GFSMW_250_spd_000.txt.gz
Wind_Speed
42 42 42 44 47 46 47 47 45 47 50 52 55 58 63 71 76 80 86 90 92 94 91 88 89 89 87 87 87 88 89 90 90 91 92 95 97 99 101 100 100 100 100
36 38 39 43 44 47 48 47 49 53 57 59 61 65 71 72 78 82 84 86 86 87 87 88 88 88 91 91 91 91 93 96 97 98 99 100 103 105 109 111 112 113 110
34 37 37 39 41 43 47 51 54 55 57 59 61 64 67 70 74 77 78 81 83 85 87 88 90 93 93 95 96 98 98 102 109 112 114 115 114 115 116 117 119 117 115
31 35 38 40 42 44 46 49 50 53 55 56 58 60 63 67 72 75 77 80 84 88 90 92 93 96 96 99 102 107 111 113 117 120 123 127 128 128 124 123 125 126 125
27 28 33 34 36 38 41 45 47 49 53 56 60 62 65 70 74 77 79 81 85 86 88 90 94 99 104 107 111 117 120 123 128 130 131 134 133 130 124 115 118 116 117
25 28 31 33 37 40 43 47 50 53 56 59 62 64 67 69 72 75 76 77 81 86 90 95 100 105 111 114 120 125 129 131 135 135 132 130 124 124 120 111 102 101 103
29 31 34 38 41 45 48 51 53 56 58 60 62 63 66 68 71 74 78 81 85 90 96 102 108 113 118 122 127 131 132 128 126 122 121 120 117 114 108 100 93 87 88
35 39 42 45 48 50 51 53 55 57 59 61 63 65 68 71 73 77 81 85 91 97 104 110 115 119 122 125 128 126 121 120 115 112 109 104 100 95 90 86 81 76 75
40 43 46 50 53 56 58 61 62 63 63 65 67 68 69 70 75 80 86 93 100 106 110 114 116 119 119 122 120 117 111 112 109 104 98 91 88 84 79 75 72 68 66
43 48 52 55 57 60 62 63 63 63 64 64 64 65 69 75 81 87 95 101 105 107 111 113 116 119 118 116 116 116 109 103 97 93 89 84 79 77 72 69 66 64 61
50 53 54 55 58 60 62 62 61 61 61 62 64 69 75 81 88 93 100 105 109 116 116 118 119 116 118 118 115 107 101 95 90 86 82 78 75 73 69 65 63 60 57
53 53 53 54 55 57 58 58 58 60 62 64 69 75 81 87 93 99 107 113 117 120 123 119 117 118 118 112 104 98 93 90 85 81 78 75 71 69 65 63 59 56 54
54 54 54 54 55 55 56 59 61 63 66 70 76 82 87 96 101 106 113 120 121 124 120 120 120 118 112 101 96 91 89 84 79 76 72 69 67 65 62 59 56 54 53
58 60 61 60 58 58 60 64 65 68 72 77 82 88 94 101 106 114 122 122 126 122 120 121 119 111 102 94 90 86 82 77 73 69 67 65 62 60 58 56 54 50 49
59 63 62 63 63 62 62 64 68 74 79 84 89 96 103 108 113 124 127 128 124 123 123 119 112 101 94 89 85 80 76 72 69 66 63 61 58 56 54 52 52 49 48
64 66 68 67 64 63 65 68 74 80 86 93 96 104 110 115 121 128 130 124 123 121 116 111 99 93 87 83 78 75 73 69 64 61 62 60 57 55 53 50 48 47 47
72 74 75 72 66 67 70 76 83 89 93 97 103 110 114 119 128 130 125 122 122 117 110 98 92 87 82 77 73 71 68 64 61 58 59 57 53 51 48 46 43 42 42
75 78 78 74 72 75 79 85 89 93 98 104 110 114 118 124 130 125 123 122 119 112 101 93 87 82 77 72 70 67 64 61 56 53 53 51 49 48 47 45 41 39 38
79 82 80 78 80 82 86 91 95 99 104 110 115 120 125 127 125 124 123 119 112 102 95 88 84 78 73 69 67 66 64 60 55 51 49 47 46 44 43 41 38 36 34
83 83 80 81 84 87 91 96 100 105 110 114 122 125 126 123 122 123 119 113 105 97 89 83 78 73 69 66 64 63 61 59 55 50 48 45 42 40 38 35 33 31 30
85 82 83 87 89 93 97 101 105 109 115 121 124 124 121 120 122 119 115 107 99 92 84 77 72 69 66 63 62 60 58 56 53 50 46 41 38 35 33 31 28 26 26
84 85 89 92 94 99 101 106 110 116 120 123 124 121 119 120 119 114 109 101 95 87 79 73 69 66 64 62 60 57 55 53 50 47 43 39 36 33 30 28 25 23 22
87 91 94 97 100 104 106 110 115 119 121 122 122 119 118 117 114 111 103 96 90 81 74 70 67 63 62 60 57 54 51 48 45 42 40 38 34 31 27 25 22 21 19
92 95 98 102 106 110 113 115 118 121 120 119 117 115 115 113 111 106 97 90 83 75 71 68 64 61 59 56 54 50 47 44 42 40 39 37 32 28 26 23 20 18 16
96 99 103 107 111 115 118 117 120 119 116 116 115 113 113 111 107 100 92 85 77 72 69 65 61 59 56 53 50 47 44 43 41 38 39 36 31 27 24 21 19 17 16
101 105 110 112 116 118 118 117 117 113 113 114 113 112 109 105 100 94 88 79 73 71 66 62 58 56 53 51 48 46 43 42 41 38 36 35 31 27 24 21 19 17 15

GFSMW_250_spd_003.txt.gz
Wind_Speed
39 40 41 40 41 42 42 44 46 45 46 49 53 54 55 58 60 65 70 76 80 85 90 95 95 95 96 95 93 92 92 93 93 92 91 91 92 93 93 94 94 95 97
34 33 33 35 36 37 39 41 42 44 46 51 55 58 61 65 68 71 75 78 81 84 86 88 89 89 90 91 92 93 91 90 90 92 93 95 99 102 107 108 110 111 113
25 26 28 31 34 36 39 41 45 49 52 55 58 60 61 63 65 68 70 73 76 79 82 84 85 88 90 91 91 92 95 98 101 104 108 110 111 114 117 122 123 124 126
20 22 25 31 36 39 42 44 45 46 46 48 52 56 59 61 64 67 70 72 75 78 80 83 85 87 89 89 93 99 104 109 113 116 118 120 120 122 120 121 124 127 126
22 22 25 29 31 35 38 42 44 45 48 51 54 57 60 63 65 68 71 73 75 77 79 81 82 85 90 96 102 108 112 112 116 117 119 122 123 125 124 118 117 118 121
23 26 28 32 35 39 42 46 49 51 53 56 59 62 64 66 68 68 70 72 73 72 74 80 86 93 100 104 110 114 114 115 117 119 118 117 118 119 119 118 114 113 115
29 32 34 38 41 44 48 52 55 57 59 61 63 65 67 68 69 69 68 68 70 77 83 87 92 100 104 111 113 114 118 116 115 111 111 113 115 114 107 99 93 91 93
30 33 37 39 43 47 50 54 56 59 61 63 64 65 64 64 65 67 70 74 78 84 90 94 100 105 112 116 115 115 114 108 107 107 106 103 100 95 91 85 79 77 77
32 36 40 44 48 51 53 55 57 58 59 59 61 62 63 65 67 70 74 79 85 89 95 102 106 111 117 117 112 111 112 108 105 102 98 92 89 86 82 76 71 67 65
39 43 45 47 50 52 55 56 56 57 59 60 59 62 64 65 69 74 79 85 90 95 102 106 111 116 116 113 114 115 109 103 99 93 90 88 83 79 75 71 67 63 57
43 46 49 51 54 55 57 60 60 60 60 61 61 62 64 68 73 79 84 90 94 100 107 111 114 116 115 117 116 109 102 96 91 87 85 81 77 74 70 66 63 60 55
47 51 51 49 51 55 59 61 60 60 61 62 62 65 68 73 80 84 88 93 99 107 110 115 116 116 118 117 109 102 95 89 85 82 80 76 72 69 67 64 61 57 53
51 54 57 58 58 60 62 64 63 60 59 60 64 69 76 81 86 90 94 100 107 111 115 116 116 118 116 108 100 94 88 84 81 77 74 71 68 66 64 61 58 54 50
56 59 63 65 66 67 68 70 68 65 65 68 71 76 81 86 93 97 103 108 113 117 118 117 117 115 108 99 92 87 82 79 76 72 69 66 64 63 62 60 57 53 50
62 64 66 70 70 70 71 74 72 69 72 76 79 85 88 95 99 104 110 115 117 116 118 117 116 107 100 92 86 82 78 75 72 69 67 64 61 60 57 55 53 50 49
65 67 69 73 73 72 74 77 76 76 79 82 87 91 96 101 106 111 115 117 117 117 115 113 107 100 93 86 81 78 74 72 69 67 65 61 59 56 53 49 47 47 47
70 72 74 76 75 76 78 80 80 82 84 89 94 98 103 108 111 114 117 118 116 115 113 107 101 93 87 81 76 73 70 68 65 63 61 58 55 53 51 48 46 45 45
73 76 78 78 80 81 83 84 84 86 90 95 100 105 108 111 113 114 115 113 112 111 109 103 96 90 82 77 72 69 67 64 61 59 56 54 51 48 48 46 43 41 39
77 79 81 82 84 86 87 87 89 92 96 101 106 110 111 113 113 115 111 112 111 109 106 98 92 85 78 73 70 68 66 62 60 57 52 48 46 44 43 41 39 36 35
80 84 84 86 89 89 89 92 95 98 102 107 111 113 113 112 112 109 109 111 109 106 101 95 87 80 73 71 69 66 63 60 58 53 48 44 42 40 39 37 36 34 33
85 85 88 91 92 91 93 96 99 103 108 111 112 112 112 110 109 109 109 109 106 103 97 89 82 75 72 69 66 63 60 57 55 51 47 43 40 38 37 35 34 31 30
86 90 91 92 93 95 97 100 105 109 111 112 112 111 108 108 107 109 108 105 105 99 93 84 77 72 70 66 63 59 57 55 52 50 46 42 39 37 35 32 31 29 28
91 90 92 95 95 98 101 106 110 111 112 112 110 104 104 106 108 107 105 104 101 95 87 80 73 70 67 63 60 57 54 52 50 47 45 41 37 35 33 30 28 27 25
92 93 95 98 101 105 108 110 111 113 112 107 101 102 105 107 106 105 103 102 96 88 81 74 69 66 63 59 57 55 52 50 48 45 42 40 38 34 32 30 27 25 23
96 97 101 105 109 112 112 112 112 107 104 102 101 104 106 106 105 103 101 96 90 82 76 70 67 64 61 57 54 53 50 49 45 42 40 38 36 35 31 27 25 24 22
100 103 107 111 113 114 112 109 104 102 102 103 105 105 104 104 102 100 97 90 83 78 72 68 64 61 58 54 51 49 48 46 43 41 39 36 34 33 30 28 24 23 21

GFSMW_250_spd_006.txt.gz
Wind_Speed
33 36 39 41 42 42 45 45 47 47 46 47 50 52 54 57 60 63 65 66 67 69 71 72 75 78 80 83 84 86 87 88 85 85 83 82 83 85 88 91 95 97 97
34 34 34 35 35 38 39 39 40 43 44 46 50 53 54 56 58 60 62 65 68 71 74 77 79 81 83 83 85 85 85 85 80 82 86 88 94 98 101 103 108 110 109
27 27 28 29 30 31 34 37 39 41 43 45 48 51 54 57 60 64 66 68 71 74 76 79 81 82 83 85 84 81 81 86 91 90 95 101 105 106 111 115 117 121 121
21 21 22 26 28 31 31 34 37 40 43 47 51 55 58 60 64 67 69 72 74 77 79 80 81 82 83 81 79 84 90 92 98 101 108 109 112 114 116 119 119 119 121
17 19 19 21 25 28 32 36 41 44 48 52 56 59 62 65 67 70 73 74 74 73 71 71 72 74 76 82 88 91 94 100 104 110 114 118 120 122 122 113 114 116 116
13 17 23 26 30 34 36 39 43 47 50 54 57 60 63 64 65 65 64 64 64 64 66 68 73 78 84 88 93 98 102 106 112 116 119 121 122 119 116 114 112 114 115
19 21 24 28 31 35 39 42 46 48 50 51 53 55 58 60 62 63 64 66 66 68 72 77 81 87 91 95 97 103 107 113 115 118 117 114 113 110 108 106 102 102 103
17 20 25 30 34 39 43 46 47 50 52 54 58 61 62 63 65 66 67 68 69 72 76 81 87 91 95 98 103 109 111 113 114 113 111 108 105 102 98 94 89 87 86
23 27 30 34 39 40 44 48 52 55 56 56 58 60 61 62 64 65 66 68 72 76 82 87 93 97 101 107 111 112 114 112 111 106 103 101 97 93 89 85 80 74 74
29 32 34 39 43 47 49 53 56 58 60 61 63 64 64 62 62 64 67 71 76 82 87 92 97 103 107 110 111 112 110 110 104 102 99 95 90 87 82 77 73 69 64
34 37 39 45 49 52 56 60 63 64 63 64 66 69 69 66 67 71 75 79 85 90 94 99 102 107 109 111 109 108 108 106 102 95 91 87 82 78 74 71 68 65 62
38 40 43 49 54 57 61 65 68 69 68 67 68 70 70 70 74 78 82 86 92 97 100 102 107 109 108 108 109 109 104 98 92 87 83 80 75 71 69 67 64 61 58
45 46 49 55 59 62 65 68 71 72 72 72 73 74 74 76 81 85 89 94 99 102 103 107 109 108 108 109 108 100 94 89 85 80 77 73 70 69 66 63 60 58 56
50 53 55 59 63 66 69 72 74 76 75 77 78 79 79 84 87 91 96 101 104 105 109 110 108 108 108 107 100 93 87 83 79 75 71 68 66 64 63 61 58 57 55
55 58 60 64 66 69 73 77 78 78 80 83 84 83 86 89 93 98 103 107 108 111 111 108 107 108 108 99 94 87 82 78 75 71 68 66 63 61 60 57 56 54 52
59 62 65 68 70 73 78 81 80 83 86 85 86 88 90 95 100 105 108 109 112 112 108 107 108 109 101 95 89 82 79 76 72 69 66 62 60 59 58 54 50 48 48
62 67 72 74 76 78 82 84 84 87 86 89 90 92 97 102 107 109 111 112 111 107 106 109 109 104 97 90 84 79 76 72 70 66 62 59 57 56 54 51 48 46 45
68 73 76 78 79 82 86 86 88 88 91 92 95 99 103 108 112 113 111 107 105 105 106 108 105 98 94 86 81 77 73 70 66 62 58 55 54 52 50 48 45 42 42
71 76 79 81 83 87 87 89 89 92 94 97 101 106 109 112 114 111 105 104 105 106 107 106 99 95 89 84 79 74 70 66 62 58 55 52 51 48 46 44 41 40 40
76 78 82 84 86 86 89 91 94 95 99 103 105 110 112 111 107 104 103 103 104 106 105 99 96 92 85 80 75 70 67 63 58 54 52 51 48 45 42 40 39 38 37
80 84 85 84 86 89 91 94 97 101 105 108 110 111 109 105 103 101 102 105 106 104 100 96 94 88 82 77 71 67 63 59 55 52 50 49 45 42 40 37 36 35 34
85 82 82 85 88 91 93 99 102 106 108 109 108 103 102 103 105 105 105 105 103 101 98 96 91 85 78 72 68 63 59 55 52 49 49 48 44 39 39 34 33 33 32
82 83 85 87 92 97 101 104 105 110 108 103 100 104 105 105 106 105 102 101 102 99 96 92 87 79 74 68 63 59 56 51 48 47 48 47 43 39 36 35 31 30 30
84 87 91 94 97 102 107 109 108 104 100 101 102 105 107 107 104 101 101 102 101 98 93 87 81 75 69 64 59 56 52 49 46 46 46 44 41 39 34 31 30 29 29
89 92 97 99 103 106 104 103 100 100 100 105 108 110 111 108 104 103 102 101 98 93 87 81 76 70 65 61 56 52 49 47 45 44 44 40 38 37 34 32 30 29 27
95 99 102 107 109 106 107 105 105 108 112 116 114 112 107 103 103 101 99 97 91 87 81 76 71 66 62 58 53 50 47 45 44 43 41 38 35 34 33 31 30 27 27

GFSMW_250_spd_009.txt.gz
Wind_Speed
30 30 33 36 40 43 46 47 49 52 54 55 56 55 54 54 54 54 55 58 61 65 67 68 70 74 79 79 81 82 85 86 87 84 83 86 87 84 82 82 84 88 90
33 33 35 36 38 40 42 44 46 46 45 43 43 45 46 49 52 57 61 65 69 71 74 77 80 82 84 86 87 87 85 86 84 84 80 78 83 89 90 92 94 99 100
31 33 34 35 35 36 36 34 32 32 35 39 43 46 50 55 59 63 67 70 75 78 81 83 85 87 89 88 86 82 79 78 78 83 85 86 89 92 99 104 108 112 115
28 29 29 25 21 22 23 27 30 33 38 42 46 50 53 54 58 60 62 66 68 71 73 74 74 74 73 73 73 76 78 83 87 89 95 97 100 103 104 111 116 121 126
19 18 16 15 18 20 23 27 31 36 40 44 48 51 53 54 55 57 59 62 64 66 66 67 68 70 71 73 77 81 87 88 93 99 102 107 112 115 117 116 122 125 128
13 13 14 15 18 22 26 30 34 38 40 43 47 50 53 55 59 59 60 63 66 67 68 68 69 72 75 79 82 86 90 94 101 107 112 116 120 121 121 120 116 115 118
13 13 14 17 22 26 30 33 37 41 43 47 51 53 54 56 56 59 62 65 66 66 67 69 73 77 80 83 88 93 100 106 111 115 116 117 116 114 111 111 109 106 108
13 15 18 23 27 30 34 38 43 48 51 53 57 59 60 61 62 63 68 70 70 69 71 75 80 83 87 91 98 104 109 111 112 112 110 106 107 107 104 102 99 97 97
17 20 23 27 32 35 39 43 47 51 54 57 61 65 68 70 71 71 74 75 73 74 77 81 84 90 95 100 106 109 108 109 109 106 105 104 100 100 99 96 93 87 84
25 28 31 33 37 40 43 48 52 56 58 62 64 68 70 72 72 74 76 76 78 81 84 89 93 97 101 106 108 109 111 108 104 104 103 98 97 96 94 90 84 79 71
33 35 37 40 43 45 48 52 56 60 63 65 67 72 73 73 76 77 79 82 84 88 92 97 102 106 108 111 110 110 108 104 104 105 98 96 93 90 86 81 75 70 67
37 41 42 44 49 51 53 57 61 65 69 71 72 76 77 79 81 82 85 87 90 96 101 105 108 109 113 112 110 107 106 107 106 98 95 91 86 82 77 72 69 67 66
43 42 43 47 52 57 58 62 68 72 75 75 77 80 82 83 84 87 90 93 98 103 106 109 111 110 110 108 107 106 107 104 97 95 89 84 79 75 71 69 66 64 62
46 46 47 50 59 62 64 69 74 77 78 80 82 84 85 87 89 93 96 100 104 108 112 113 110 108 107 109 107 107 102 97 94 89 82 76 73 69 68 66 63 60 58
49 49 51 58 63 66 70 73 77 80 82 85 86 86 88 90 94 97 102 106 109 111 113 109 108 108 107 108 106 100 95 93 86 80 74 70 68 67 65 62 59 57 55
52 55 60 62 64 68 73 77 80 84 87 86 87 89 91 96 99 103 107 111 112 110 105 106 109 109 110 106 99 95 92 86 79 73 70 67 66 65 61 59 56 52 50
57 60 61 65 69 73 79 81 85 85 85 87 89 91 95 99 104 108 110 111 106 101 105 109 110 109 107 102 95 91 86 79 73 70 67 65 64 61 56 54 52 50 48
63 63 67 72 76 80 83 85 83 84 87 90 93 97 100 105 110 109 107 102 100 104 107 107 106 103 98 93 89 85 80 73 70 68 66 63 61 57 53 51 50 46 44
66 69 74 77 80 84 83 84 85 87 90 95 99 101 105 108 107 103 102 104 105 108 106 101 98 98 92 91 86 81 76 71 68 65 63 60 56 53 50 49 46 43 42
69 74 78 80 84 84 84 85 87 91 96 99 102 105 108 104 103 104 107 109 108 103 96 98 101 98 93 90 83 78 73 69 66 63 60 58 52 49 48 46 43 40 38
75 79 82 84 85 84 85 87 92 96 99 104 107 109 107 106 105 106 107 105 103 98 99 102 101 97 93 85 81 75 70 67 63 61 57 53 51 49 46 43 40 39 36
79 82 86 86 87 89 90 93 98 102 105 107 104 104 106 109 110 109 108 105 102 106 106 106 101 94 89 84 74 71 68 64 61 58 54 51 49 47 45 40 38 37 34
83 86 86 89 90 91 94 100 104 107 108 108 108 105 108 111 113 113 112 112 110 112 106 101 97 91 83 78 74 68 66 61 59 55 51 48 47 45 43 39 35 34 33
88 88 90 92 93 95 99 103 107 107 105 105 107 113 116 116 115 114 114 116 111 102 98 95 91 84 78 72 69 66 63 58 57 53 49 46 45 44 41 38 35 31 30
91 91 93 94 97 102 104 109 107 106 107 108 112 114 115 118 119 115 108 102 101 98 91 87 84 79 74 69 66 62 60 58 55 50 47 45 44 42 40 37 35 31 29
92 95 96 100 103 106 109 108 107 107 110 113 114 115 117 116 112 108 103 99 95 90 85 82 78 72 69 66 64 60 57 55 51 47 45 43 42 40 37 35 33 32 29

GFSMW_250_spd_012.txt.gz
Wind_Speed
31 37 42 40 39 41 43 46 48 50 53 55 57 57 59 60 61 61 59 60 59 63 66 69 71 73 75 77 78 78 79 81 83 81 80 77 78 83 83 84 83 83 84
34 37 39 41 40 41 42 43 44 45 47 49 50 49 47 47 47 50 55 58 62 64 66 67 68 70 71 72 72 71 69 71 73 72 72 71 73 76 80 86 91 94 98
36 38 38 38 38 38 38 39 38 37 36 35 36 37 39 43 47 51 56 58 61 64 66 67 67 68 69 70 70 68 68 67 71 75 78 81 83 85 89 94 99 103 108
33 35 33 32 33 32 29 28 27 28 29 32 35 38 38 40 46 48 52 56 58 62 64 65 67 68 69 70 71 72 74 77 78 83 87 90 93 94 95 102 107 113 118
30 30 29 26 24 23 24 24 24 27 29 32 35 40 44 45 50 54 57 60 62 63 63 65 68 71 74 74 76 77 79 83 88 90 94 98 103 107 111 110 115 116 118
27 24 21 20 22 22 21 24 26 30 33 36 41 45 49 52 55 56 60 65 66 66 67 70 72 74 78 80 81 84 87 91 94 100 103 107 110 112 113 111 107 104 104
23 20 22 20 20 21 23 27 32 37 41 44 47 51 54 56 62 64 66 69 71 71 73 75 76 79 83 86 89 93 96 100 103 107 108 108 107 104 101 96 92 92 98
24 23 20 21 23 26 29 32 36 41 47 51 54 57 60 64 68 71 73 74 76 77 78 80 81 85 90 94 98 102 106 109 108 105 102 97 97 95 95 98 94 90 91
21 20 22 25 29 32 37 40 44 49 55 56 57 60 65 69 72 74 77 80 82 82 83 84 87 90 94 100 105 108 109 106 103 100 98 99 98 98 95 94 91 87 85
23 23 27 30 35 40 44 47 48 52 59 61 63 67 71 75 78 80 83 84 84 84 85 89 94 99 104 107 109 109 102 102 104 105 102 102 96 92 91 89 89 86 80
26 30 33 37 40 45 45 48 49 54 62 65 69 71 75 78 81 85 85 84 85 86 90 95 100 106 110 110 107 104 105 106 109 108 106 98 93 90 88 86 84 79 75
32 35 40 43 45 47 47 49 55 60 65 69 69 75 78 82 84 83 83 84 88 92 97 101 106 111 109 103 104 104 107 110 111 109 103 97 92 90 86 80 76 72 69
36 39 41 45 48 49 51 55 61 63 64 69 73 79 83 85 83 85 86 89 93 97 102 106 110 110 105 102 106 108 111 110 107 105 98 92 87 85 79 72 69 66 65
43 44 46 46 50 55 59 60 60 67 71 77 80 84 84 84 84 85 90 94 98 103 108 109 104 103 104 104 105 106 107 106 104 95 90 85 81 78 72 69 65 63 61
44 49 52 53 54 59 63 62 67 72 79 82 86 87 86 86 88 92 97 101 104 108 109 103 103 105 107 106 105 100 99 99 89 85 82 80 74 72 67 65 61 59 59
52 53 56 60 64 66 65 68 73 78 82 86 88 89 90 90 91 97 104 107 111 110 104 102 104 104 106 110 101 94 92 87 82 81 79 74 68 66 63 62 59 57 55
54 57 62 65 68 69 70 75 80 82 86 89 90 92 93 95 98 104 109 113 112 108 105 107 109 110 110 106 98 92 88 86 86 80 76 71 65 63 60 57 57 56 53
58 61 64 68 71 75 77 81 85 86 90 91 93 94 95 99 104 108 113 111 107 106 107 110 111 108 105 97 95 92 90 88 84 79 73 67 62 62 58 56 54 53 51
60 64 69 72 76 81 85 86 89 91 94 92 94 97 100 105 109 111 112 108 105 107 111 111 109 102 100 100 96 95 90 83 81 75 69 65 60 58 56 54 54 52 50
68 69 74 79 81 84 89 89 92 97 95 96 97 101 108 111 111 110 111 112 114 112 109 106 106 104 101 99 93 86 83 83 78 71 65 65 59 55 52 51 51 50 47
70 73 80 83 86 90 89 93 97 95 98 99 104 110 112 110 112 111 109 112 115 110 107 107 107 105 99 94 89 85 83 80 74 67 63 61 60 54 50 49 49 47 46
77 83 85 89 92 92 95 96 95 98 100 105 110 112 113 114 113 112 112 116 116 114 108 106 103 97 93 90 89 84 78 73 69 64 61 58 55 52 49 47 46 46 43
83 87 90 93 95 97 98 96 98 100 106 111 114 114 114 112 113 115 118 118 114 105 103 97 94 92 88 84 82 78 73 69 66 63 59 56 52 49 46 45 44 42 39
88 89 93 96 97 96 97 99 102 108 113 115 114 114 114 114 114 115 115 111 108 106 102 97 92 89 83 77 73 72 70 67 64 59 56 52 49 47 44 43 42 40 35
93 94 96 93 93 97 99 104 109 113 116 117 117 115 113 111 110 108 109 108 104 98 95 92 86 82 78 75 69 66 66 64 62 58 54 50 47 45 43 41 40 37 34
94 99 94 94 96 100 105 109 113 116 117 116 115 113 113 111 111 112 106 105 102 98 92 85 81 79 76 73 69 64 60 58 57 55 52 49 45 43 41 41 39 36 33

GFSMW_250_spd_015.txt.gz
Wind_Speed
31 31 33 35 38 43 48 49 45 49 54 59 62 64 65 64 63 65 69 71 72 70 68 68 69 71 72 73 74 73 74 76 78 77 75 76 76 75 76 78 81 82 85
33 35 32 39 40 39 45 51 49 48 48 52 54 59 59 59 57 57 56 58 58 57 56 60 63 66 69 71 71 72 75 77 77 77 75 75 77 79 81 85 89 92 95
39 36 36 36 39 40 43 47 46 48 49 49 47 45 44 44 47 48 48 50 53 56 60 63 65 67 68 70 73 75 76 76 77 78 79 80 80 83 89 93 96 100 104
35 35 36 36 36 37 37 39 40 37 38 37 36 38 39 40 41 44 47 51 55 57 62 66 69 72 74 76 77 79 80 80 81 83 86 89 91 91 95 99 103 106 109
19 25 27 27 27 28 30 31 32 31 33 37 38 38 38 41 43 47 51 54 58 61 65 69 73 78 80 81 81 82 83 86 89 92 95 98 103 104 103 101 103 102 103
22 29 28 25 25 23 25 28 31 33 36 38 40 42 45 48 51 54 57 61 65 68 73 77 80 83 81 81 84 85 90 95 97 100 103 105 104 100 99 98 95 90 96
26 29 27 22 22 24 25 29 33 36 41 44 45 47 50 53 55 59 64 69 72 75 79 82 83 81 82 85 90 94 97 101 105 109 109 105 103 103 104 102 99 94 89
26 29 25 26 27 26 25 29 35 40 46 49 51 52 55 60 63 67 68 70 76 80 84 85 84 84 84 89 95 100 104 109 111 108 105 103 104 105 106 102 95 80 82
28 28 24 25 29 29 32 34 39 44 49 52 53 54 59 64 68 68 71 77 81 85 86 85 86 86 89 94 99 104 109 111 107 104 104 102 104 108 106 102 92 86 84
30 26 27 29 32 35 37 38 39 45 51 54 57 60 65 65 67 72 77 82 86 88 87 87 88 91 96 101 106 109 109 105 105 106 108 106 102 103 103 99 94 92 88
27 26 28 31 37 41 44 45 44 47 53 58 61 61 62 67 72 78 81 86 88 88 89 90 92 96 102 107 111 110 105 106 106 108 109 107 101 98 96 95 91 89 81
29 30 32 34 39 43 47 52 51 53 56 63 67 66 67 73 79 82 85 89 90 90 90 91 96 101 107 110 108 103 103 104 105 105 101 97 97 93 87 84 80 78 72
32 35 37 38 41 45 49 53 56 59 62 63 66 70 72 80 83 86 89 92 90 92 94 98 103 107 109 105 102 101 104 105 106 102 98 94 91 87 83 77 74 69 66
34 36 39 41 42 46 50 56 60 62 63 66 70 73 79 85 88 89 95 92 93 95 98 104 108 106 102 102 104 103 104 100 102 98 93 88 84 80 78 74 67 65 63
42 41 43 46 47 51 55 59 62 65 69 75 78 79 85 87 91 95 92 94 96 100 106 110 105 103 102 104 107 105 101 99 95 93 88 84 79 77 74 70 65 62 60
52 53 52 53 57 59 61 63 68 70 77 81 85 87 89 91 96 95 96 98 101 107 109 107 107 105 105 105 108 108 101 98 95 89 85 84 78 73 69 67 64 60 57
51 56 59 61 63 62 66 69 71 75 82 87 90 92 93 97 96 98 101 104 109 110 109 108 106 105 106 110 109 104 98 97 94 89 87 83 76 71 68 64 61 58 55
53 56 61 68 68 69 71 73 76 82 87 89 92 95 96 96 99 102 106 111 112 111 111 109 109 108 106 104 100 97 95 92 89 86 81 77 73 69 66 62 59 54 52
58 60 65 68 71 75 78 81 84 88 91 93 97 94 94 98 101 108 111 114 114 114 111 110 109 107 104 99 96 94 92 91 87 81 77 73 69 65 62 60 57 53 49
66 68 70 71 73 76 81 86 89 91 93 97 96 96 98 101 108 114 116 118 115 113 110 111 110 106 101 97 96 93 89 85 80 76 72 69 66 62 60 57 54 51 47
71 71 72 75 78 82 87 91 92 93 97 101 98 99 103 109 113 118 118 119 120 119 119 115 110 104 99 96 92 84 80 78 75 72 69 66 63 59 57 54 51 48 44
70 75 78 82 85 89 92 94 95 98 103 101 101 104 109 113 118 121 122 120 118 118 116 113 107 102 95 92 87 82 80 76 72 69 66 63 60 56 54 51 47 45 43
74 78 83 87 91 94 95 96 99 104 105 102 105 110 114 120 122 123 122 120 117 115 112 107 102 97 91 84 81 79 77 74 70 68 64 61 58 54 51 49 45 41 39
79 82 87 90 94 96 98 100 103 105 103 106 110 114 119 123 124 122 119 117 115 112 108 103 97 91 87 81 78 76 75 73 68 64 61 58 55 50 47 44 42 40 37
86 88 90 94 96 98 100 103 106 104 106 110 115 118 123 125 121 118 116 114 113 108 103 99 93 86 81 76 73 70 68 67 64 60 57 54 51 47 44 41 39 38 34
90 91 94 95 97 100 104 106 104 106 110 115 119 123 125 122 118 115 113 111 107 105 101 96 88 83 77 73 69 66 64 61 60 57 55 52 48 45 42 39 37 37 34

GFSMW_250_spd_018.txt.gz
Wind_Speed
54 50 48 51 53 53 52 55 54 52 51 50 49 51 54 61 65 69 72 72 75 77 74 72 69 68 69 69 70 71 74 77 79 83 85 85 83 82 81 82 85 89 92
45 50 47 45 44 42 39 43 45 47 50 50 52 55 57 59 61 64 66 67 69 68 66 64 65 65 67 70 73 75 79 82 84 85 82 80 82 85 89 92 94 95 99
32 32 35 39 41 36 38 39 39 44 47 47 51 53 55 55 55 54 56 58 59 60 61 63 66 67 69 73 76 80 84 86 85 84 83 83 85 88 94 96 101 106 107
33 35 40 46 42 36 36 35 36 42 43 43 44 44 45 46 48 53 56 58 60 62 65 67 68 70 73 76 81 85 87 87 86 86 86 91 94 98 101 104 107 104 101
34 37 34 36 26 28 31 32 29 33 35 35 35 39 42 46 50 55 59 61 64 69 70 71 72 73 77 82 87 89 88 88 89 90 94 98 101 106 108 110 106 104 103
39 38 32 26 25 27 28 25 33 32 33 36 38 41 46 51 55 59 61 62 65 64 64 68 71 76 81 86 89 88 88 88 90 94 98 103 108 110 111 107 106 105 106
40 39 32 26 20 21 24 29 32 34 36 39 43 44 48 52 55 57 61 63 64 63 66 72 77 80 83 88 89 89 89 91 95 100 106 110 110 107 105 105 107 106 106
29 25 22 23 21 25 29 30 33 37 40 43 47 48 49 52 57 59 60 62 62 67 72 78 81 84 88 92 89 90 92 95 103 108 109 109 105 106 106 107 112 111 106
25 28 29 27 26 27 29 33 35 40 45 47 48 53 56 60 61 60 62 66 68 72 77 80 84 88 92 90 91 92 97 103 106 106 104 104 103 107 108 107 105 104 97
23 27 28 28 30 32 33 37 40 43 44 49 54 56 60 61 61 63 69 73 75 80 83 85 90 92 92 94 95 99 105 106 103 100 98 101 103 105 102 99 96 95 92
25 24 25 30 33 35 37 39 42 46 48 52 57 61 63 62 63 70 76 80 82 84 87 90 94 92 95 98 102 106 106 103 102 101 102 103 103 101 97 94 94 90 86
26 27 33 35 36 39 40 42 44 46 51 57 61 63 64 66 69 75 80 83 86 89 92 93 92 93 98 103 104 103 102 101 100 101 102 103 103 102 100 95 90 85 79
29 32 34 34 37 42 45 47 49 53 58 61 63 65 68 69 74 80 84 86 92 92 91 91 93 97 102 104 105 103 101 101 102 103 104 103 103 101 99 94 89 83 77
32 34 34 35 40 44 48 49 50 55 59 61 63 66 69 74 79 83 87 89 95 92 91 92 97 103 107 108 106 103 103 103 103 103 100 99 99 97 92 88 82 78 73
35 34 36 40 46 47 49 51 55 59 61 61 65 70 76 79 83 86 88 93 96 92 92 97 102 106 109 111 109 107 104 104 102 99 98 97 95 90 84 80 75 72 69
40 43 45 46 47 48 52 57 61 62 62 66 70 76 81 86 88 90 91 98 96 95 99 103 107 111 113 111 110 110 106 99 97 96 94 94 91 86 82 79 73 68 66
46 49 52 54 55 58 60 63 66 66 69 74 79 84 87 91 91 93 98 99 97 100 104 109 113 117 115 112 110 110 107 104 97 94 92 89 85 82 78 74 70 66 62
53 55 56 58 61 63 67 69 69 72 76 81 84 89 92 95 96 98 102 98 101 105 109 114 117 117 113 112 111 107 102 97 93 90 86 82 80 76 73 69 65 61 58
57 58 60 61 63 67 71 72 75 79 82 87 90 93 96 98 98 103 99 102 106 110 114 117 119 116 113 112 109 103 98 95 90 86 81 78 74 71 68 65 61 58 54
59 61 62 63 67 71 73 76 80 83 87 90 93 96 97 98 105 103 102 107 112 116 118 120 120 117 115 112 107 101 97 91 84 79 76 73 69 66 64 62 58 55 51
63 65 68 69 72 75 79 82 86 89 92 94 97 98 100 104 102 102 107 112 115 118 120 120 118 117 113 109 105 100 93 86 79 74 72 69 66 63 61 57 53 51 48
65 67 70 72 76 79 84 89 92 94 95 98 99 101 105 104 103 107 111 115 118 122 122 118 117 116 112 106 101 94 86 82 76 71 67 64 63 60 57 53 49 48 45
67 71 74 78 83 86 89 92 94 97 100 101 102 105 105 104 107 111 114 119 123 122 118 117 114 111 106 101 93 86 81 79 75 68 64 61 58 56 52 49 47 45 43
72 75 78 83 87 91 94 97 99 99 100 102 106 105 104 107 111 114 117 120 123 121 119 113 108 104 100 93 86 82 79 75 72 67 62 58 54 52 49 47 44 43 41
76 80 84 88 92 95 97 99 100 101 103 106 103 103 107 111 113 116 119 121 121 119 115 110 103 97 91 84 80 78 74 70 68 64 58 54 52 50 47 45 43 41 38
82 86 89 92 95 97 98 99 101 104 106 102 104 108 111 113 116 118 120 121 116 112 108 104 97 90 83 79 75 71 68 66 62 59 56 54 50 47 45 43 40 39 37

GFSMW_250_spd_021.txt.gz
Wind_Speed
46 50 51 50 53 50 47 51 54 53 56 56 58 63 63 60 58 60 60 63 67 68 69 71 71 71 71 74 75 76 76 77 82 85 87 91 93 96 97 95 93 91 90
48 52 54 55 52 52 56 54 59 63 62 61 57 59 56 54 56 58 61 63 64 64 64 63 66 70 73 75 76 79 83 85 87 88 90 93 97 98 96 94 93 94 96
33 37 53 55 59 60 60 61 61 55 56 56 52 49 51 52 54 56 56 54 54 56 59 64 69 72 75 78 81 83 80 78 83 89 93 96 98 95 94 95 97 102 106
34 37 42 43 45 45 46 51 52 52 50 47 47 47 46 44 45 45 47 51 56 61 64 68 71 74 77 79 75 74 78 83 87 91 94 96 93 93 94 100 104 108 109
32 36 39 42 44 42 42 44 46 46 45 42 35 35 37 39 40 44 50 56 60 62 62 65 67 68 69 71 75 79 83 87 90 92 90 90 93 97 103 107 109 108 108
38 39 38 40 41 42 36 36 33 30 30 32 34 38 40 43 43 48 53 55 57 62 64 64 64 66 70 75 79 83 87 88 91 88 88 93 98 103 105 105 104 105 106
33 32 36 37 38 37 33 27 26 25 33 35 39 41 44 48 49 54 57 60 63 65 65 64 68 72 75 78 83 86 87 86 85 88 94 99 102 104 105 104 103 104 105
35 31 30 32 34 28 28 31 30 26 35 36 41 46 51 53 54 57 60 63 67 68 65 68 73 76 78 82 87 85 83 85 87 93 98 103 104 104 104 102 104 104 105
30 26 27 25 27 25 29 31 29 35 40 42 44 51 54 52 56 59 64 65 64 65 68 74 78 81 83 86 91 87 85 88 93 97 102 105 106 104 103 105 106 106 103
23 25 22 21 26 29 31 31 35 39 41 46 49 51 53 55 60 63 63 64 66 70 76 78 80 84 86 91 92 88 90 94 98 102 106 106 106 106 105 107 105 104 101
26 22 20 24 27 29 32 37 40 42 44 47 49 50 53 59 63 64 65 68 71 76 79 84 85 88 91 95 91 91 95 98 102 108 110 109 108 107 105 102 100 99 96
23 25 26 29 29 34 37 41 40 42 45 47 50 54 59 64 66 67 69 73 78 84 85 88 90 91 96 94 93 96 99 103 107 111 111 109 108 106 102 98 94 93 91
27 27 28 30 33 36 39 41 42 44 47 51 57 61 64 68 67 69 74 79 85 89 91 93 92 96 96 94 98 101 104 107 108 109 109 109 108 104 99 96 94 91 88
26 26 30 33 36 39 40 41 43 47 53 56 60 65 70 69 71 74 79 85 88 91 94 95 96 98 95 98 101 105 110 111 111 109 109 108 104 99 97 93 89 85 81
27 30 33 36 37 39 42 47 51 54 57 61 65 69 71 72 75 80 85 88 90 93 94 96 100 98 99 103 104 108 111 113 111 111 108 104 103 98 93 87 81 77 76
33 34 37 38 42 46 49 53 54 58 61 65 68 72 74 77 80 86 90 91 93 95 96 100 98 99 104 106 109 113 114 114 113 109 107 104 98 90 85 80 76 74 72
37 39 42 45 47 50 53 54 57 61 64 68 73 75 78 82 87 91 92 94 96 98 102 101 100 104 106 110 113 115 118 115 112 110 105 98 92 85 81 77 73 71 68
40 44 47 50 53 55 58 60 63 66 68 73 76 79 83 87 91 94 97 98 99 103 102 102 106 107 110 113 116 118 117 117 114 108 102 94 87 82 79 76 71 67 64
47 49 51 54 56 59 62 64 67 70 73 77 81 85 89 92 95 99 99 101 103 102 100 105 108 110 113 116 118 118 118 115 111 105 95 88 84 80 76 71 68 64 61
50 53 55 56 59 62 65 67 70 74 77 81 85 90 94 97 99 100 101 103 102 101 105 108 110 113 116 119 121 119 115 110 106 97 88 83 80 77 72 69 64 61 57
54 56 58 61 63 67 70 73 76 79 82 86 90 94 98 101 101 101 103 101 101 105 108 108 112 116 120 123 122 117 112 106 98 90 84 80 75 73 68 64 59 56 54
56 59 62 66 68 71 75 78 81 84 89 92 96 99 101 101 102 103 100 102 106 109 109 111 115 120 122 121 117 111 106 98 91 86 81 77 71 71 64 58 54 52 51
60 63 65 69 73 76 79 81 85 89 93 96 99 99 99 102 103 99 103 107 111 111 112 115 118 119 118 116 111 105 98 92 87 82 78 73 67 66 60 56 52 49 47
64 67 70 74 77 80 83 86 89 92 95 97 97 99 103 102 100 103 108 110 112 113 115 117 117 115 112 110 104 97 92 87 82 77 74 69 63 61 57 54 51 48 46
68 72 76 80 82 84 87 89 92 95 96 97 100 102 102 101 105 109 110 111 113 115 115 117 114 111 105 101 95 90 86 82 78 73 70 66 60 58 55 53 50 46 44
74 78 81 84 84 86 89 93 95 95 98 102 103 102 103 106 109 111 112 115 115 115 116 113 109 104 99 92 90 85 80 77 73 70 66 62 57 56 54 52 49 44 42

GFSMW_250_spd_024.txt.gz
Wind_Speed
39 41 42 45 44 44 45 46 42 41 49 52 55 60 63 64 71 72 72 69 69 71 65 65 68 69 68 67 67 71 75 78 80 82 82 84 84 85 86 89 92 94 96
33 39 37 40 47 47 49 51 53 51 57 57 54 57 59 64 64 66 65 65 60 60 61 60 60 61 63 67 70 71 75 77 76 77 78 79 84 87 90 92 94 94 94
27 33 37 38 45 48 52 53 54 51 51 53 58 64 68 65 61 58 57 56 53 51 51 53 57 61 63 65 69 73 74 73 77 80 81 83 87 90 91 90 90 91 95
30 32 34 38 38 42 44 43 44 47 54 54 54 56 58 57 55 50 46 44 45 48 51 56 61 63 67 71 72 72 72 77 81 83 85 88 93 93 89 89 92 95 101
35 36 36 36 37 35 38 43 45 45 46 48 49 49 49 48 45 45 43 44 47 51 57 61 65 67 70 71 73 71 76 82 85 85 86 89 94 92 89 90 95 101 106
33 33 36 38 41 41 43 44 45 44 47 40 38 41 39 40 42 44 44 47 52 57 61 65 68 70 70 69 71 76 79 82 83 86 89 94 94 91 93 97 102 105 109
37 38 36 34 37 38 40 42 40 38 35 30 33 38 43 45 45 50 52 54 59 59 62 67 69 68 69 72 75 80 83 85 87 89 95 95 92 94 99 102 104 105 105
35 35 35 35 40 41 39 38 31 28 26 27 33 42 48 50 52 55 57 61 58 62 67 69 69 70 73 77 82 84 85 86 89 94 96 94 96 100 103 104 106 105 108
35 39 41 37 34 30 29 30 27 28 29 30 37 44 49 55 58 59 60 58 62 66 71 70 71 73 78 81 84 86 89 91 94 98 95 95 102 104 104 107 110 112 111
37 35 34 33 29 27 27 26 28 31 31 32 37 45 52 57 57 58 59 62 66 70 72 72 73 77 82 85 86 89 93 95 99 97 97 103 103 105 107 110 112 111 109
33 33 30 26 24 21 22 26 28 30 35 35 39 45 51 57 59 60 64 67 70 74 74 75 80 84 87 88 90 94 97 101 99 98 104 105 106 109 111 111 110 108 105
32 29 25 23 22 24 26 29 31 33 35 37 44 51 56 57 64 67 69 71 73 76 78 81 86 91 92 94 96 98 102 101 99 105 108 107 109 112 113 111 109 104 97
30 27 24 23 25 27 29 30 33 38 41 46 50 53 56 63 67 69 71 73 78 80 82 86 91 95 98 98 101 102 102 101 105 108 107 109 113 114 112 109 104 98 91
28 27 24 24 28 31 30 33 38 42 48 48 54 57 60 66 70 71 73 78 82 83 87 91 95 100 102 102 104 105 102 106 110 111 112 115 116 114 109 105 100 93 86
30 27 26 29 33 32 33 38 43 47 50 54 58 61 64 69 72 74 78 82 85 88 92 96 98 102 104 106 104 102 107 111 113 115 117 118 116 112 107 103 96 89 82
30 29 31 34 35 38 42 46 49 52 56 59 63 65 68 71 75 78 82 84 88 91 95 100 100 101 105 104 104 108 111 114 116 117 118 117 114 111 107 100 92 85 79
36 34 34 37 41 43 47 50 53 57 61 63 65 69 72 76 79 81 84 87 91 95 99 100 104 107 107 105 109 112 115 117 118 119 118 115 112 109 102 94 87 82 75
37 38 40 42 46 48 51 55 59 62 64 65 68 73 76 79 81 84 87 92 96 98 100 102 106 105 106 109 113 117 117 118 119 118 118 114 111 104 96 89 83 78 71
41 43 44 46 49 53 56 60 63 64 66 70 73 76 79 82 84 87 92 95 98 101 103 106 106 106 109 114 117 118 117 118 118 119 117 112 104 97 90 83 78 73 67
43 45 48 50 53 56 60 63 64 67 71 74 76 79 82 84 88 91 94 97 99 102 105 106 107 110 113 118 119 118 118 118 118 117 113 104 97 92 84 77 75 70 65
45 48 50 54 58 60 62 65 68 71 74 76 79 82 85 88 90 94 97 98 101 105 105 107 110 114 117 118 119 119 119 120 116 112 104 96 91 87 78 72 72 66 62
49 52 56 58 60 63 66 69 72 75 77 80 83 86 89 91 95 98 98 102 106 105 108 109 113 117 119 118 121 120 119 116 110 103 95 91 87 81 73 68 69 62 59
54 57 60 63 65 68 71 73 75 78 81 85 89 90 93 96 99 99 102 105 105 107 109 113 114 115 118 122 121 119 115 110 101 95 90 88 83 76 72 65 64 59 56
59 62 65 68 71 73 74 76 79 83 86 88 91 94 96 97 98 101 103 103 109 110 114 115 115 115 116 119 119 115 110 102 95 90 88 86 80 72 68 63 60 57 55
64 67 70 73 74 76 78 82 85 87 89 92 94 95 97 98 100 103 103 108 111 115 114 116 115 116 114 116 116 112 101 94 90 85 85 82 77 68 62 59 58 55 54
69 71 73 75 78 81 83 86 88 91 94 94 96 98 99 102 104 103 107 113 114 115 118 117 116 112 112 110 107 99 95 89 86 81 79 77 71 63 58 57 56 53 51

GFSMW_250_spd_027.txt.gz
Wind_Speed
39 32 27 36 42 44 41 47 49 54 48 52 60 59 55 54 59 61 63 67 67 68 71 72 73 73 68 67 65 59 60 64 66 70 74 75 73 74 78 83 85 85 86
28 35 30 23 38 43 42 43 43 43 51 61 56 55 55 57 60 63 65 68 69 73 73 71 71 63 60 57 58 61 64 68 71 73 71 70 74 79 83 86 87 88 90
25 23 27 38 33 36 37 43 47 50 52 52 56 53 55 61 58 60 63 66 65 62 62 63 55 53 56 61 63 65 70 72 73 69 71 74 79 83 86 88 90 91 94
33 32 28 27 30 34 37 34 35 39 44 43 47 49 50 53 55 55 53 49 47 48 49 48 50 54 60 62 65 68 73 73 73 73 77 82 86 88 88 90 93 95 99
29 29 30 32 33 33 33 34 35 37 38 40 43 46 47 50 49 49 48 44 42 47 48 52 56 61 63 64 70 73 71 72 75 78 83 85 88 90 91 93 96 100 99
24 24 26 28 28 29 33 36 37 39 41 42 44 45 42 43 44 44 44 46 48 51 52 56 61 63 64 69 73 76 77 76 79 84 87 88 90 92 95 98 101 97 98
28 26 25 26 29 31 34 37 39 40 42 44 42 37 36 40 44 44 46 51 55 55 58 62 65 66 69 73 77 79 77 79 84 87 90 93 95 97 98 101 96 98 103
26 26 26 27 29 31 35 37 38 43 41 38 37 32 34 36 43 46 52 57 57 58 62 64 67 73 74 78 79 79 79 83 88 91 93 95 98 101 102 98 101 105 108
29 30 29 28 30 34 36 38 37 36 34 30 31 32 34 37 42 48 53 58 61 64 65 69 76 78 79 78 81 82 83 86 90 93 95 98 101 101 98 103 107 108 108
33 34 34 31 34 32 34 34 33 31 29 28 29 32 35 36 42 48 55 62 64 66 67 76 78 78 79 82 83 85 86 90 93 96 99 102 100 100 104 107 109 111 112
35 37 35 35 33 31 32 29 27 25 25 26 29 32 37 38 47 56 59 59 63 66 74 77 78 80 82 86 87 89 91 94 95 99 104 103 102 105 109 110 114 115 114
38 37 36 33 32 33 28 25 24 26 28 30 32 34 41 46 51 55 59 64 69 72 75 77 80 83 86 91 93 93 95 98 100 104 101 103 106 112 114 116 117 116 114
37 37 36 32 32 31 27 28 27 30 33 35 39 43 47 50 55 60 64 68 69 73 76 80 85 88 89 93 97 99 95 101 106 106 107 110 113 116 118 118 118 116 112
35 34 32 33 33 30 31 33 32 35 39 43 45 48 52 56 61 65 67 69 72 77 81 85 89 90 92 96 99 101 103 106 108 109 111 114 117 119 121 120 118 114 106
32 32 32 31 34 34 36 36 38 41 43 46 50 54 58 62 65 67 70 74 77 80 84 88 90 91 94 99 101 102 105 110 110 112 114 117 120 122 121 120 116 109 103
35 31 32 34 36 38 39 41 43 47 50 52 55 58 62 66 68 71 74 78 81 84 86 90 91 95 96 100 102 106 109 111 112 113 117 120 122 121 119 116 111 105 96
37 37 37 38 42 43 44 46 49 51 53 56 60 64 67 69 72 75 78 82 84 86 88 92 96 99 103 103 106 109 110 112 113 116 120 121 123 119 116 112 107 99 92
41 43 43 43 42 45 48 50 52 53 57 60 65 68 70 73 75 79 82 84 86 89 92 94 98 101 104 106 108 111 111 113 116 120 121 122 121 117 112 109 101 93 85
42 43 44 45 47 49 51 52 55 58 61 65 68 70 72 75 80 83 84 86 88 91 94 97 101 103 105 107 111 111 114 117 120 120 122 121 118 114 108 103 96 89 82
40 42 43 46 49 52 54 57 59 62 65 67 69 72 76 81 83 84 87 89 91 94 98 101 103 105 106 111 112 116 118 120 119 121 122 120 116 110 104 99 92 85 80
37 41 45 48 51 54 57 60 63 65 66 69 73 77 79 81 85 87 89 91 95 99 100 103 105 106 111 111 115 119 120 120 120 120 119 115 112 105 99 93 88 81 75
41 43 45 49 53 56 58 61 64 67 70 74 77 79 82 84 87 90 93 97 100 101 104 104 106 111 113 117 120 121 119 120 119 116 115 111 106 99 92 86 82 76 70
48 50 51 54 57 59 63 65 68 71 74 76 79 82 84 87 91 95 98 101 103 104 104 107 108 110 116 121 124 122 120 118 114 112 109 102 98 92 86 81 74 70 64
52 53 55 58 60 63 65 68 71 74 77 79 82 85 89 93 97 100 101 103 104 106 109 110 112 115 118 119 118 117 117 115 110 105 100 96 90 86 82 75 69 64 61
55 57 60 62 65 68 70 73 75 78 81 85 88 92 95 98 101 102 102 103 108 110 112 115 117 115 113 112 111 109 108 107 104 98 94 87 85 81 77 70 65 61 58
56 60 63 65 68 72 74 77 80 83 87 90 92 94 95 97 100 103 107 110 111 114 116 117 115 113 112 109 107 104 100 99 95 89 86 82 79 75 70 66 64 61 57

GFSMW_250_spd_030.txt.gz
Wind_Speed
22 24 29 21 20 30 35 32 34 42 38 48 53 55 57 54 61 57 64 57 59 63 64 65 68 69 76 80 76 69 61 59 60 64 64 66 71 74 75 75 76 79 82
20 26 28 30 20 26 35 39 42 43 46 51 60 57 51 57 61 63 62 61 61 64 65 68 70 73 75 65 60 56 57 59 63 64 68 69 70 74 77 78 81 85 87
20 31 36 34 36 29 30 38 44 45 47 48 47 50 60 64 64 64 61 64 65 60 62 64 66 66 62 57 56 57 61 64 65 68 73 75 78 77 75 82 87 90 92
23 24 25 30 36 33 33 32 32 41 45 45 48 50 53 53 54 57 59 60 59 57 58 58 58 58 54 57 59 62 65 67 70 72 76 80 83 85 86 84 87 92 93
19 23 33 33 31 30 32 33 34 35 33 34 36 38 43 44 47 47 51 53 54 53 55 56 57 55 57 62 65 66 66 70 75 76 77 79 82 86 90 94 96 92 93
22 25 26 27 28 30 35 37 39 37 37 38 39 39 41 42 44 47 50 51 48 48 49 52 55 57 61 64 68 69 72 74 78 80 80 82 85 89 92 95 96 96 101
26 27 28 26 28 29 32 34 35 35 36 36 38 39 41 43 42 41 41 41 45 45 50 55 58 62 65 69 72 76 79 83 84 84 83 87 91 94 96 97 99 101 103
28 29 29 29 30 29 31 34 34 34 36 37 35 37 36 36 36 33 33 39 46 49 55 60 59 67 71 75 78 82 83 85 85 87 89 91 94 97 98 99 101 105 105
31 31 31 32 33 31 30 34 35 36 35 35 34 32 31 32 34 37 40 43 49 50 55 60 64 69 70 77 83 83 85 87 88 90 92 96 98 100 100 101 106 105 107
31 35 34 34 31 31 34 36 37 35 35 36 36 32 31 29 27 38 46 47 48 54 60 63 67 73 79 81 84 86 86 89 91 94 96 97 100 102 102 106 108 109 113
35 36 37 35 34 35 36 38 35 34 37 36 33 32 32 30 34 40 48 50 56 61 62 65 71 76 79 83 85 86 89 93 95 97 100 102 102 102 106 110 110 115 118
38 38 38 38 39 40 41 38 34 36 36 37 36 35 38 36 38 45 51 56 60 62 64 70 75 78 80 84 88 90 93 97 100 102 102 105 105 108 111 112 115 119 121
39 41 41 41 41 43 41 38 35 37 39 40 40 38 39 42 46 51 57 62 65 68 72 76 77 79 83 86 89 93 97 99 102 106 107 108 110 111 115 116 119 123 124
40 41 40 40 42 41 38 37 39 41 41 42 43 43 44 48 51 56 61 65 69 72 74 77 79 83 86 90 93 95 99 100 104 107 108 110 111 115 118 120 124 126 126
43 41 35 36 38 39 41 43 43 44 43 47 48 49 51 54 58 62 66 69 73 74 77 80 83 87 90 94 97 98 101 103 105 107 110 111 114 118 121 124 127 127 126
33 34 36 37 39 39 40 42 44 47 51 53 54 55 57 60 63 66 70 73 75 77 81 83 87 90 95 96 101 102 103 106 108 111 112 114 118 121 124 127 127 128 123
38 40 41 41 40 41 41 43 46 50 53 55 57 60 63 65 67 70 73 76 78 81 84 87 90 92 95 99 100 103 106 108 111 111 114 117 122 125 128 128 127 124 119
39 40 42 44 45 45 46 46 47 51 55 58 61 64 66 68 71 74 76 79 82 85 88 90 93 95 97 99 103 106 108 110 111 115 118 122 126 129 129 127 122 120 114
40 40 42 43 45 47 48 48 49 50 54 57 61 65 68 71 73 76 80 83 85 87 90 93 95 96 100 104 108 109 108 110 116 118 122 126 128 128 125 122 119 116 109
34 33 34 37 40 42 45 48 51 54 57 61 64 68 71 73 76 79 82 83 85 88 90 93 97 101 105 108 109 110 112 115 118 121 124 126 126 124 120 117 113 109 100
40 42 42 42 41 42 44 47 51 56 59 62 65 68 70 73 76 79 81 83 87 90 94 98 102 104 104 107 112 115 117 118 118 120 122 122 120 119 115 111 106 100 92
45 45 45 45 46 47 49 52 54 56 59 62 65 68 71 74 77 79 82 85 89 93 95 97 100 104 107 110 112 115 117 118 118 117 115 114 113 111 108 102 97 91 84
50 51 50 50 50 51 52 53 56 59 61 63 67 70 72 74 75 78 82 85 88 93 96 97 100 105 109 111 112 115 117 119 119 116 113 109 107 104 99 93 89 85 79
48 51 53 54 53 55 56 57 59 60 62 63 65 69 73 77 79 81 85 88 91 94 98 101 104 106 109 111 112 111 110 111 111 112 111 109 102 97 93 88 83 79 73
44 45 47 50 52 54 54 55 56 58 62 66 69 72 75 78 82 86 87 91 96 100 101 103 106 107 109 108 106 106 106 105 105 103 102 97 96 91 88 83 78 72 68
47 45 45 47 50 52 54 57 61 64 68 70 75 77 82 84 86 87 90 97 101 102 104 105 104 104 103 103 104 104 105 104 100 94 91 89 87 84 80 77 73 70 65

GFSMW_250_spd_033.txt.gz
Wind_Speed
28 15 19 30 22 30 27 27 36 35 49 46 48 55 44 51 50 52 59 57 60 62 65 71 74 70 71 76 75 71 74 70 65 64 62 59 61 65 70 71 75 77 80
26 24 19 23 23 24 32 37 35 39 38 44 42 53 51 49 51 50 51 52 54 54 58 64 68 74 71 74 71 73 71 65 63 62 63 66 64 58 66 79 80 82 85
20 19 26 26 30 28 25 29 39 40 41 40 41 42 47 51 53 57 59 61 66 68 68 73 70 72 71 70 69 69 69 65 65 65 66 67 69 73 70 72 82 84 88
21 26 23 32 32 39 31 31 32 35 40 44 46 43 47 53 57 60 64 69 69 68 69 72 68 66 64 62 66 65 64 64 64 65 67 72 74 80 84 81 80 84 86
19 27 29 28 34 36 42 43 35 35 36 36 38 45 47 52 53 51 53 55 58 58 60 62 60 58 57 60 62 64 65 65 69 68 69 72 79 85 90 93 96 88 88
23 25 25 31 31 29 32 36 39 40 41 42 43 45 46 48 51 51 52 53 53 53 52 54 52 52 58 57 60 66 68 70 70 75 78 84 88 92 91 90 94 98 100
29 28 28 31 33 34 37 39 41 42 43 44 45 45 45 46 47 45 44 45 44 44 47 45 52 54 61 63 66 67 71 77 80 83 88 91 94 92 93 94 99 102 105
34 33 33 33 32 32 34 36 38 38 39 41 41 41 44 45 42 39 39 38 41 38 42 42 49 57 63 63 66 72 78 83 85 88 92 95 91 92 95 97 102 106 108
33 31 33 33 32 32 33 35 38 39 38 36 31 37 47 42 38 36 36 38 40 46 48 52 53 59 61 66 72 77 82 84 89 93 95 92 94 97 99 103 106 108 111
34 33 32 35 36 36 35 36 36 38 40 38 36 43 47 41 38 36 41 41 42 48 50 53 57 59 66 71 77 81 83 89 93 95 93 93 97 100 103 108 110 113 113
36 36 36 36 37 39 39 38 37 39 41 40 41 41 41 38 40 41 46 46 48 48 53 57 61 66 71 76 81 84 87 91 93 93 93 100 101 103 108 110 113 115 118
40 40 41 41 40 40 38 40 41 42 44 42 40 41 40 39 41 42 47 49 53 55 58 63 67 72 77 82 84 88 91 90 92 95 96 101 105 107 109 113 116 117 118
40 41 40 41 41 41 44 44 46 46 46 44 43 41 43 44 47 49 53 53 56 59 63 68 72 76 80 83 85 89 92 94 95 98 99 102 104 107 112 115 116 118 121
40 40 42 41 43 46 47 46 48 48 46 43 41 43 45 49 53 54 56 57 61 65 69 72 75 79 82 84 87 91 94 99 99 103 106 108 112 115 117 117 120 124 126
39 41 43 46 46 48 49 45 46 46 45 42 40 41 46 48 53 56 59 62 66 69 73 76 80 82 83 86 91 93 96 99 100 103 107 110 112 114 117 122 124 125 126
35 37 39 38 40 41 40 41 45 44 41 47 46 49 53 55 59 62 65 68 70 73 77 80 81 83 86 90 92 95 96 98 101 105 107 110 112 117 120 123 124 124 124
35 38 39 39 40 41 43 42 43 46 49 50 50 52 55 59 62 66 69 71 74 76 77 79 82 85 88 90 92 94 96 98 102 105 108 113 117 120 123 122 121 123 125
35 39 42 43 43 41 42 43 45 47 47 47 48 48 51 55 59 62 64 66 70 74 78 82 84 86 87 89 91 94 97 99 103 108 111 114 117 120 123 124 124 122 118
39 41 41 41 41 39 41 43 43 43 44 45 47 49 53 56 58 62 66 70 73 76 78 80 83 86 87 89 92 94 97 101 106 110 113 116 119 121 123 124 120 118 117
40 40 39 38 39 42 45 46 46 47 48 48 49 51 54 57 60 64 67 69 71 74 77 80 82 84 88 91 94 98 103 105 108 111 114 116 117 118 117 119 120 117 115
39 44 45 47 48 50 50 49 50 51 52 53 54 56 58 60 62 64 66 67 70 74 78 83 87 89 93 94 97 101 106 109 110 112 111 111 113 114 115 115 115 115 111
40 43 46 50 54 56 55 55 55 56 56 57 58 59 60 61 61 62 66 70 74 77 80 84 88 90 93 94 99 104 109 112 111 111 110 110 111 111 111 113 110 106 103
49 46 46 48 50 52 54 56 57 58 59 59 57 56 57 60 64 68 71 73 76 81 83 88 90 92 95 100 102 107 110 111 110 110 110 110 113 114 111 107 104 99 94
54 52 51 49 50 52 52 51 50 50 50 51 53 57 61 65 69 72 76 80 84 85 87 91 94 95 98 103 106 106 108 108 108 107 109 113 113 109 105 101 97 91 86
58 58 53 52 54 53 51 51 51 52 54 56 59 63 68 70 74 78 80 81 84 88 92 95 98 99 105 107 107 109 110 107 106 106 108 105 101 98 95 94 89 84 80
60 57 56 55 54 53 52 55 57 60 61 61 65 71 74 76 78 78 80 83 86 92 97 100 101 105 105 106 109 111 107 107 108 105 100 94 92 91 89 86 83 79 75

GFSMW_250_spd_036.txt.gz
Wind_Speed
28 25 27 22 25 28 25 23 30 33 39 40 44 43 36 39 41 48 46 47 51 51 52 54 57 63 64 72 74 66 70 77 78 75 77 74 72 73 71 67 68 69 71
28 26 33 27 27 30 29 28 31 39 36 36 44 49 51 46 46 46 46 59 59 63 64 63 67 68 68 66 71 77 77 74 82 75 78 77 73 68 66 65 70 74 76
23 33 30 26 33 32 35 38 35 39 39 35 35 35 45 48 54 53 57 56 57 60 61 65 66 69 71 72 73 75 72 71 73 73 77 75 71 67 65 65 67 75 83
27 26 29 27 24 28 31 37 37 41 45 43 43 47 47 45 45 49 53 59 62 64 65 66 69 69 73 72 71 72 70 70 68 69 71 72 69 69 70 72 76 80 85
31 19 30 29 31 32 33 36 36 34 34 38 39 43 46 51 55 52 54 51 56 61 62 64 64 66 66 65 66 66 63 67 66 66 68 73 72 74 80 88 92 88 91
39 29 25 31 37 34 40 43 39 45 45 46 42 40 42 43 45 46 49 52 54 57 58 59 61 60 60 63 64 57 60 65 69 73 76 75 80 81 84 91 96 102 104
43 41 26 28 31 36 39 38 34 34 39 45 48 48 49 50 51 51 47 50 53 54 56 59 58 55 53 55 51 58 62 69 75 77 78 81 85 88 94 98 102 103 102
46 42 34 32 32 34 36 38 38 37 38 40 42 45 42 41 42 38 38 42 49 53 55 56 54 53 54 58 56 61 68 73 76 77 81 86 88 94 100 102 103 101 103
37 40 45 39 40 37 38 39 37 37 39 40 39 38 35 36 31 28 39 43 49 51 51 54 55 57 59 61 64 67 69 72 76 82 86 90 94 97 101 102 103 104 105
34 34 40 41 37 36 35 37 37 42 43 40 39 35 29 25 27 39 44 48 49 51 55 59 61 63 60 62 64 66 70 75 81 86 91 95 97 97 100 103 104 106 108
28 36 38 38 39 40 41 36 21 58 48 42 37 37 32 34 43 52 53 50 50 54 57 61 62 63 66 66 69 72 77 82 87 91 93 95 98 99 101 103 106 109 114
27 30 35 37 40 41 42 43 41 46 46 41 33 41 43 43 42 43 47 51 51 54 58 61 64 66 68 71 74 78 82 87 89 94 95 97 99 101 104 107 111 114 115
30 31 30 31 34 37 39 41 42 43 44 44 37 44 47 45 42 48 56 52 53 55 59 62 67 70 72 75 78 83 86 88 92 94 96 99 101 103 105 108 109 112 115
34 30 31 34 36 37 38 39 43 45 46 45 41 44 44 38 45 52 51 54 58 61 66 69 68 69 73 78 83 85 87 89 91 95 99 100 101 103 105 108 111 115 119
34 33 29 35 36 38 38 39 40 39 39 40 40 43 45 46 47 49 52 54 56 59 63 67 71 74 79 81 83 85 86 89 93 96 97 97 100 104 108 110 114 118 121
37 35 32 31 32 32 33 36 37 38 38 41 46 46 46 50 53 53 54 56 58 61 63 66 70 73 75 77 79 83 87 89 91 93 96 101 104 107 109 111 114 118 121
36 33 31 30 30 33 34 36 38 41 42 43 43 45 47 50 53 53 53 52 52 54 57 60 65 69 74 78 80 82 85 88 91 95 97 100 104 105 108 113 114 118 118
26 28 30 33 34 36 39 40 40 41 42 41 42 43 45 46 47 48 49 52 54 57 61 65 68 71 75 76 77 80 83 86 90 93 97 97 101 107 111 115 117 117 117
28 26 27 29 34 37 39 40 41 42 44 46 49 51 51 52 53 54 55 58 60 63 66 68 70 70 70 73 78 82 86 89 91 96 97 101 104 109 115 118 119 118 116
28 27 28 32 34 37 42 45 47 50 51 54 56 55 55 56 57 58 60 63 64 64 64 63 67 70 72 78 83 85 86 88 93 99 102 104 107 113 116 117 118 117 117
29 31 33 39 39 38 38 41 44 49 54 58 60 60 60 60 59 60 61 61 59 60 66 70 73 76 78 80 81 84 88 93 96 99 102 105 109 111 116 119 119 119 117
35 37 38 42 45 47 45 43 46 49 51 52 53 54 54 55 55 55 56 58 63 66 71 75 78 78 79 78 83 88 94 99 104 105 107 105 108 113 114 113 113 112 111
42 45 46 47 50 52 49 49 52 54 53 54 53 54 52 53 55 58 62 65 68 73 79 82 78 78 81 85 90 95 100 103 108 108 106 107 111 112 110 108 108 106 103
48 53 49 54 53 55 60 54 56 58 57 55 55 55 56 58 61 65 65 68 72 76 81 79 82 88 92 97 97 101 104 107 108 107 107 110 111 108 106 105 104 102 99
54 56 58 61 60 61 60 61 63 64 60 56 56 58 57 53 53 56 60 63 71 73 77 84 89 93 95 98 101 106 108 108 107 107 109 109 106 104 103 101 98 96 94
58 60 63 64 66 64 66 67 69 69 64 59 56 58 58 60 61 64 66 73 77 85 90 94 99 101 103 103 107 110 110 108 108 111 109 105 102 100 98 94 91 91 89

GFSMW_250_spd_039.txt.gz
Wind_Speed
26 28 39 75 72 74 69 68 74 71 69 66 67 58 56 50 50 48 51 47 46 44 43 50 42 45 53 62 67 66 70 69 72 75 79 80 83 85 83 84 81 78 75
30 30 28 34 48 67 73 75 77 74 71 64 58 54 53 49 44 37 40 47 50 53 50 48 53 56 61 67 69 69 71 74 76 78 81 86 85 84 84 82 75 69 72
26 29 31 31 33 37 45 56 55 59 64 72 58 48 39 42 47 50 50 49 53 55 55 56 56 61 64 67 69 72 76 77 78 82 85 87 83 81 83 76 69 68 73
20 20 24 35 30 35 31 33 34 36 36 37 40 42 41 40 42 42 43 48 54 57 59 62 65 65 67 67 69 71 72 73 78 80 83 81 82 82 74 71 70 75 77
24 29 22 31 27 31 27 39 45 39 41 42 45 48 48 53 49 48 51 53 58 59 63 64 64 67 67 66 66 71 74 76 77 80 79 75 72 70 73 76 80 79 82
25 35 35 25 31 29 32 33 36 40 45 43 45 49 47 46 44 44 46 50 50 52 51 55 58 62 61 64 67 70 72 74 74 71 68 68 70 75 79 80 83 86 91
26 32 38 37 28 31 35 36 37 40 43 44 45 42 46 52 51 54 57 57 58 48 49 50 54 59 58 61 64 67 69 68 66 65 68 72 78 80 81 83 87 92 98
22 25 36 43 41 32 32 32 34 39 41 42 43 46 49 46 46 49 53 51 49 51 41 50 53 55 61 63 65 66 67 66 68 73 77 77 79 79 83 88 95 98 103
34 28 27 42 50 45 34 37 37 37 40 43 45 44 43 43 45 47 44 44 44 49 44 47 59 62 64 65 68 69 70 73 76 78 79 79 82 88 93 96 99 102 104
25 27 27 28 36 45 49 45 44 35 28 32 33 33 34 39 39 39 38 41 38 40 41 53 60 65 70 69 70 71 73 76 78 78 81 84 87 91 96 100 103 104 104
23 24 24 25 28 29 32 36 35 25 34 44 42 32 33 37 40 31 34 35 49 51 54 58 64 72 74 73 72 72 74 78 80 81 85 89 93 95 99 102 103 104 107
32 31 27 27 27 30 36 37 34 39 40 38 33 36 29 17 22 39 37 39 58 61 59 63 67 70 73 75 74 75 78 81 83 90 91 90 95 99 99 99 103 104 106
28 34 32 31 31 32 33 34 35 35 32 32 38 41 36 42 48 47 51 56 60 62 65 67 69 73 76 76 77 80 83 87 89 89 92 94 94 93 97 99 100 104 106
29 28 29 33 30 32 35 31 31 27 37 41 45 48 50 50 61 63 64 62 64 66 67 68 71 72 75 76 76 78 80 83 86 86 86 87 91 93 95 97 100 104 107
35 30 26 30 34 28 29 30 28 29 39 45 50 53 55 57 53 52 53 57 59 64 69 70 69 68 69 71 73 74 74 76 79 83 86 88 89 91 95 97 100 101 103
37 37 29 26 30 30 31 31 30 28 32 37 42 44 47 48 50 53 57 58 59 60 62 64 65 65 64 65 68 71 75 77 80 83 84 86 91 94 95 95 97 104 106
34 35 35 25 24 30 32 31 33 34 34 35 38 41 42 44 47 49 51 51 54 56 58 59 61 63 65 67 71 74 75 79 80 80 86 91 94 96 95 98 104 107 110
38 36 35 31 26 24 25 26 28 30 32 33 36 38 41 45 50 53 54 56 58 59 61 62 64 65 69 71 72 72 73 76 82 87 90 87 89 93 98 101 101 105 107
36 37 32 25 19 16 18 22 25 28 31 32 34 38 42 47 51 54 57 59 59 61 62 62 64 66 67 67 67 70 73 80 82 81 88 90 94 96 98 99 102 103 105
43 40 36 29 22 20 22 25 25 27 29 30 37 40 43 45 47 50 51 53 55 57 59 60 60 60 63 67 72 75 76 74 78 83 88 92 95 100 101 104 106 104 106
46 45 38 34 30 26 30 29 32 35 35 40 45 46 50 52 53 53 54 55 57 58 57 58 61 65 66 66 66 67 72 82 83 88 96 100 102 105 109 110 110 109 110
49 48 45 40 39 39 43 44 45 44 47 49 50 53 55 57 57 56 55 58 60 61 62 62 63 63 63 67 70 76 82 87 93 96 101 102 107 109 110 110 111 112 110
47 49 52 47 47 48 49 52 53 53 53 56 58 58 59 57 61 59 60 58 57 58 60 59 61 64 69 71 80 85 89 96 100 103 105 106 108 109 110 111 112 112 111
49 49 53 50 52 55 57 58 58 59 62 62 61 63 64 65 66 68 68 65 65 66 64 68 74 74 76 80 86 90 95 103 106 108 109 108 109 113 116 114 115 115 112
50 52 57 58 57 58 59 59 61 63 65 69 69 69 71 69 72 74 77 69 68 69 71 75 80 81 84 86 91 96 104 108 112 113 110 113 119 120 117 117 116 115 111
54 57 62 64 62 61 62 62 63 67 70 71 71 74 74 75 79 79 81 80 79 77 77 80 82 87 92 95 97 105 110 113 115 114 118 121 121 117 116 115 114 110 105

GFSMW_250_spd_042.txt.gz
Wind_Speed
17 21 30 39 47 60 60 64 59 60 59 62 57 58 59 63 65 67 64 65 66 61 64 65 62 57 51 55 54 55 57 59 65 68 72 69 70 75 79 77 82 79 79
20 23 25 37 42 55 65 67 67 68 62 60 61 64 67 71 70 65 67 52 49 63 55 48 44 45 50 51 55 60 62 66 68 72 74 75 76 77 75 76 77 76 81
22 25 28 29 40 49 61 62 63 66 68 65 63 64 68 67 60 66 55 56 55 52 48 49 56 58 60 63 64 65 66 69 71 73 74 72 72 74 76 76 78 76 72
28 22 24 32 34 44 40 49 60 65 63 67 69 73 61 64 69 60 58 63 61 49 50 51 55 58 62 64 67 67 68 67 67 69 68 71 73 74 74 74 74 70 73
20 26 25 27 29 37 41 44 50 62 61 53 57 57 60 64 54 46 45 47 52 51 51 55 58 59 61 61 63 65 65 64 65 65 65 65 69 71 71 71 72 75 79
18 21 30 33 26 28 35 36 45 60 65 60 53 48 43 42 44 45 48 50 53 56 56 58 62 67 68 69 69 68 63 61 61 63 65 71 73 73 73 73 78 81 82
19 18 20 37 32 30 35 36 37 37 35 38 42 43 41 46 45 46 46 49 53 55 59 60 63 63 60 60 61 61 61 60 63 67 71 75 76 78 79 80 82 84 86
19 17 17 20 41 38 35 35 36 35 36 37 38 41 43 46 46 47 49 49 48 50 47 45 46 52 54 57 60 57 59 62 69 72 74 77 80 80 81 84 86 87 90
21 21 21 22 24 38 45 41 39 37 36 35 34 33 35 40 32 28 33 39 39 37 39 41 47 50 52 57 59 60 67 73 75 77 81 83 83 82 85 88 90 93 94
23 19 24 27 25 32 35 44 41 41 34 37 36 33 31 31 27 28 31 29 33 32 36 46 46 51 54 59 67 71 74 77 81 85 85 85 87 89 90 94 96 99 100
23 21 22 25 31 28 32 33 39 44 45 44 36 36 33 23 26 30 28 28 28 28 41 53 57 57 59 65 68 72 78 80 80 82 87 90 91 92 95 98 98 98 96
25 18 17 20 26 35 34 37 35 39 42 36 34 30 35 35 35 32 24 43 33 38 51 60 66 58 61 71 80 84 85 87 87 89 88 90 93 95 95 96 92 91 95
36 28 15 14 19 27 36 39 38 39 36 31 36 40 32 33 38 39 45 34 43 48 49 58 65 73 78 81 86 88 89 88 90 91 92 92 91 90 86 88 90 91 92
38 38 29 16 12 15 25 29 36 39 32 38 39 39 40 42 44 40 49 54 56 66 74 77 78 79 81 86 90 90 88 89 91 93 90 83 81 83 85 85 85 90 90
36 40 37 30 15 11 14 22 26 33 34 41 46 47 46 51 48 52 58 59 63 67 71 75 81 88 88 87 86 87 87 85 81 79 79 80 82 81 80 83 85 87 86
34 35 36 38 32 23 19 18 17 24 30 40 42 45 52 56 61 62 64 69 73 76 78 80 81 80 81 78 77 77 78 77 78 79 80 79 79 79 82 84 85 85 88
34 36 32 32 35 33 28 26 20 19 23 34 39 45 51 55 58 62 62 63 64 66 67 67 70 74 75 76 78 78 79 80 79 77 75 76 79 81 84 85 84 88 93
35 33 32 34 36 34 32 29 24 24 24 24 26 28 34 41 45 49 52 56 61 66 70 74 77 77 77 77 75 72 71 72 72 73 76 78 74 77 79 85 89 92 97
36 33 36 34 39 35 32 33 28 23 16 17 22 24 22 26 30 32 33 36 37 42 48 54 59 62 64 64 65 68 70 72 75 79 81 77 79 84 81 86 90 93 98
38 40 37 35 38 40 36 32 32 27 27 25 25 26 28 30 32 34 40 41 41 43 49 50 51 57 60 63 67 70 72 71 72 72 76 80 82 84 86 91 93 96 97
38 41 39 36 40 45 44 40 39 39 40 40 39 38 38 38 40 42 44 45 49 51 53 55 57 56 59 66 71 72 73 72 78 86 84 82 85 87 91 95 98 101 102
42 43 44 47 46 48 48 47 47 45 45 47 49 50 50 49 49 51 53 53 55 55 58 61 62 61 64 65 66 68 72 77 81 85 84 85 88 91 95 99 104 106 110
46 45 45 46 46 47 47 51 53 52 51 53 56 56 57 57 57 59 60 60 60 62 63 67 68 71 72 72 73 75 76 79 83 86 90 90 91 95 99 104 108 113 117
51 46 47 47 44 49 50 51 53 54 57 60 60 62 62 61 63 66 67 66 68 68 69 71 74 76 80 83 86 85 86 88 88 87 91 94 96 100 103 110 116 118 122
54 50 50 49 48 54 54 54 57 60 62 64 64 66 67 67 68 69 71 72 75 77 77 77 79 82 86 90 92 90 92 93 93 95 97 98 101 105 110 117 120 125 128
59 55 54 51 52 55 59 61 62 66 68 69 70 71 72 73 74 74 76 78 80 83 83 84 85 87 92 96 98 96 97 97 98 99 102 105 109 114 118 123 126 130 129

GFSMW_250_spd_045.txt.gz
Wind_Speed
25 21 28 45 48 59 72 72 69 71 73 66 66 67 66 63 69 67 54 59 58 60 62 65 64 64 64 49 45 45 46 45 46 47 53 55 63 67 71 72 72 75 77
24 19 25 34 38 47 58 63 62 67 74 69 70 69 69 69 66 72 66 61 63 67 67 68 70 64 51 50 49 42 47 52 55 59 64 65 68 70 69 71 71 69 70
21 18 20 33 35 35 46 50 58 65 68 65 69 71 73 65 62 64 59 59 62 63 60 60 48 46 48 50 53 57 62 63 63 64 65 66 67 69 70 66 64 64 65
19 21 19 26 33 34 33 41 57 55 57 63 66 64 61 63 64 59 59 64 62 58 61 48 49 48 49 52 53 55 58 62 60 62 65 68 70 72 68 64 65 69 72
19 21 22 23 29 30 32 34 40 47 52 51 52 58 66 61 65 68 60 52 57 53 46 47 52 54 57 57 59 59 59 60 61 61 63 64 62 64 61 63 69 74 75
20 18 20 24 27 32 31 33 37 38 39 47 49 52 54 54 55 59 59 56 48 50 49 53 53 54 55 57 61 57 55 57 59 58 57 50 55 57 63 68 72 77 81
23 21 17 20 25 30 32 31 29 34 37 41 43 41 48 52 53 56 47 51 50 51 56 55 52 50 48 52 50 47 50 53 46 47 51 57 63 68 71 77 78 78 81
27 25 22 18 21 27 35 34 33 33 39 43 40 40 40 40 44 45 45 48 46 51 37 36 39 41 40 40 46 50 49 59 64 62 61 63 69 74 80 82 84 84 86
26 29 28 22 20 25 28 40 39 37 37 38 38 39 41 40 41 39 46 52 47 35 34 35 36 38 38 40 48 53 54 62 64 69 70 71 76 82 86 85 85 87 89
28 26 30 26 21 22 26 35 44 47 44 44 45 42 36 40 41 40 40 40 38 35 36 38 37 41 32 46 52 58 63 63 66 71 76 78 84 86 84 86 92 96 97
26 30 30 31 27 23 23 28 36 41 45 51 46 44 42 40 41 40 35 36 36 38 33 37 39 39 46 55 59 60 65 65 72 83 78 85 87 88 89 92 97 95 95
30 28 30 32 29 27 24 23 29 32 37 40 47 52 53 53 52 50 45 43 43 37 42 44 45 54 50 61 69 71 74 75 80 83 81 85 98 99 99 98 95 87 83
33 31 29 33 30 26 23 22 24 32 29 36 39 45 49 49 51 48 43 48 48 43 45 49 50 60 66 66 71 71 77 85 85 91 94 97 102 103 94 95 90 88 88
39 31 30 30 33 29 28 24 25 26 29 31 32 37 44 47 50 48 45 50 48 48 52 59 58 59 69 78 85 80 85 90 91 94 100 101 101 98 95 94 90 91 87
44 40 35 29 33 31 29 25 23 23 29 32 32 32 39 42 46 47 54 56 52 53 57 60 64 66 72 76 84 90 93 96 100 104 106 102 98 94 94 89 85 81 84
37 36 36 28 33 31 31 30 25 20 23 30 32 31 35 40 45 52 54 54 56 60 65 65 70 74 78 83 88 93 99 101 101 97 95 93 89 85 83 80 83 85 88
33 29 31 32 31 33 32 35 36 28 25 25 25 29 34 41 47 49 54 61 63 64 65 69 72 75 79 84 89 91 91 91 79 74 74 74 74 78 81 83 82 78 85
42 39 27 32 34 34 35 34 34 31 31 31 30 31 34 39 41 43 46 50 54 56 60 60 54 49 53 54 52 52 51 52 55 59 63 68 72 75 78 82 85 90 95
44 41 35 29 36 36 38 36 31 30 34 34 34 34 31 33 38 41 43 45 48 49 51 54 56 55 56 58 59 58 59 60 61 62 64 66 69 72 74 76 81 86 92
47 46 39 39 35 38 41 40 36 32 40 42 37 36 41 38 37 43 47 48 50 53 55 56 56 58 59 61 64 65 66 65 67 69 70 74 76 77 79 82 85 89 93
54 51 50 49 38 40 42 44 43 42 44 48 46 41 41 43 43 47 46 50 54 59 61 63 64 64 65 65 67 69 70 70 71 74 76 81 84 88 87 90 91 91 93
61 58 54 49 47 44 45 48 47 48 48 49 48 48 47 48 50 53 54 55 56 57 59 63 67 69 70 71 73 73 76 77 77 78 80 85 89 94 93 93 94 94 96
61 58 51 50 51 49 51 51 51 49 53 53 51 52 52 53 57 58 58 61 63 65 67 68 70 72 73 74 77 79 80 81 83 83 84 90 96 98 97 99 99 100 101
62 59 56 57 58 53 55 56 57 55 53 53 54 56 56 60 62 63 64 66 68 71 74 74 74 75 75 79 81 83 86 88 88 89 91 97 103 102 102 105 106 106 105
71 68 63 59 59 58 57 61 61 61 59 60 57 59 61 63 66 67 71 71 74 77 81 81 81 81 83 85 89 90 91 93 93 95 98 103 106 107 107 109 110 108 108
68 65 60 63 67 65 61 63 65 65 65 66 64 63 65 67 71 74 76 78 81 85 87 88 87 85 88 89 95 96 97 97 97 100 105 109 110 111 113 114 112 111 110

GFSMW_250_spd_048.txt.gz
Wind_Speed
20 20 22 24 36 41 68 61 58 54 54 59 56 57 59 60 57 54 52 55 59 60 63 62 63 62 60 62 65 62 54 42 43 45 39 43 44 48 49 53 60 61 65
26 17 17 19 32 46 50 66 70 64 61 62 60 64 66 68 68 68 65 63 62 61 62 60 66 67 62 69 63 51 48 46 47 43 47 53 54 58 61 64 62 63 61
33 22 17 19 24 36 46 55 57 57 67 63 60 66 66 67 67 68 66 66 64 62 63 63 61 65 63 66 60 48 45 45 49 52 51 54 53 57 57 60 62 54 51
35 26 20 15 21 29 35 40 43 48 58 51 62 63 70 73 71 69 64 66 68 71 73 66 62 71 63 53 53 51 50 52 54 56 57 58 59 59 53 57 50 48 50
33 30 21 15 13 25 33 33 36 44 47 49 55 55 60 64 67 67 64 65 66 66 70 71 70 64 68 50 52 53 54 56 58 58 59 61 57 48 44 45 48 53 61
31 31 23 18 16 16 25 32 33 39 42 45 47 51 55 56 60 62 63 64 66 63 55 63 56 57 63 54 55 58 58 60 54 54 51 45 37 42 47 46 51 57 69
29 26 25 21 17 17 19 27 34 38 43 45 43 46 48 49 53 59 52 58 55 51 45 44 48 49 46 52 52 55 56 50 49 52 50 41 43 49 57 59 65 72 76
23 28 25 24 21 16 19 23 29 35 35 38 43 44 47 45 45 44 47 49 51 46 48 46 45 46 45 45 48 50 52 49 46 49 54 60 60 63 63 73 75 78 83
24 25 27 26 26 25 18 20 28 32 40 38 37 41 42 40 41 42 43 41 42 43 43 43 45 49 47 50 53 49 44 47 41 51 63 66 71 66 73 73 83 85 81
24 25 28 25 27 27 26 23 23 30 34 44 44 41 39 39 39 41 43 43 44 42 43 44 45 47 47 45 46 48 46 51 56 61 63 68 64 71 77 80 84 77 89
26 26 28 28 30 25 26 25 26 26 32 36 43 51 48 46 46 44 44 44 46 48 45 46 48 51 48 41 39 48 53 51 60 63 65 67 72 77 84 75 84 96 101
29 27 28 29 33 32 26 26 27 29 30 30 36 41 48 52 59 57 54 59 55 52 52 51 55 52 51 51 42 47 52 61 71 68 70 76 82 80 84 95 98 103 107
32 28 30 32 34 37 31 27 27 26 28 27 32 39 41 40 39 43 51 56 56 56 59 61 61 58 52 52 51 52 59 62 67 69 74 80 84 89 96 101 106 107 110
36 36 35 36 33 33 33 29 29 27 25 27 26 32 36 39 41 40 40 44 47 49 54 57 53 54 57 59 57 58 64 67 70 74 79 85 90 96 102 104 109 106 92
37 41 41 35 33 31 32 35 31 33 30 28 27 25 29 34 37 39 40 43 45 46 46 50 53 57 62 62 61 64 65 68 74 79 87 94 95 90 90 92 69 59 62
42 46 44 40 38 33 31 37 38 34 36 32 28 25 21 26 34 39 42 44 45 46 48 49 54 57 58 63 66 69 72 72 73 78 71 64 72 61 66 70 70 71 71
49 45 46 44 41 36 30 30 37 40 40 41 36 34 30 25 23 25 32 38 40 45 47 50 57 60 62 67 70 73 74 63 61 62 67 73 73 72 72 74 74 73 75
51 53 50 51 46 39 36 34 34 40 41 41 41 40 38 34 32 31 33 35 38 41 45 47 50 54 56 56 57 60 61 65 67 70 71 73 73 75 76 77 76 77 79
55 54 49 53 50 44 41 41 40 38 44 42 42 37 34 34 33 33 35 38 41 44 45 48 52 53 54 59 64 65 69 73 74 73 75 76 77 78 79 78 80 81 83
61 60 57 51 53 49 45 45 42 42 43 46 48 45 43 40 39 36 39 40 43 45 48 48 46 46 50 53 54 57 61 64 67 70 69 72 74 76 80 81 84 87 87
70 66 62 62 58 62 58 47 50 50 47 48 50 53 55 53 50 45 46 46 50 52 53 54 57 59 59 60 63 66 69 70 71 75 75 76 80 79 84 86 88 88 90
67 74 74 69 69 64 68 64 57 55 49 52 54 54 58 59 59 59 58 57 56 57 58 60 61 63 64 66 69 71 74 77 79 80 81 83 86 86 90 90 90 90 93
77 71 75 77 74 75 68 71 65 61 56 55 60 61 61 63 61 61 64 65 66 64 64 66 67 68 70 72 74 77 79 83 85 87 88 86 90 92 93 94 95 95 97
85 81 76 74 72 71 66 72 71 64 60 60 62 65 64 65 66 66 67 67 68 69 68 70 74 76 76 77 80 82 85 88 90 91 93 92 94 97 97 98 99 101 103
81 82 81 78 74 72 71 74 75 72 69 70 67 68 71 70 69 70 71 70 71 75 78 77 79 80 82 83 85 86 89 92 95 96 96 97 100 102 101 103 105 106 109
81 82 81 82 79 75 75 78 79 81 78 76 75 75 76 78 76 75 77 78 80 82 83 84 85 87 88 88 89 91 95 97 98 101 101 101 104 106 107 108 109 112 117

GFSMW_250_spd_051.txt.gz
Wind_Speed
27 24 14 14 19 26 38 48 48 44 51 55 46 52 53 52 56 54 53 54 51 51 43 43 46 50 53 55 57 63 65 60 56 59 57 59 49 49 44 44 49 45 44
34 22 21 10 15 23 32 51 42 49 47 57 50 51 51 51 54 54 53 55 55 56 55 55 57 55 60 63 66 69 65 60 60 65 61 62 59 47 49 53 53 50 51
33 26 24 15 11 13 23 36 50 46 54 48 55 59 57 58 57 59 59 60 59 58 60 61 62 65 67 71 68 66 69 67 56 64 54 49 49 51 53 57 58 55 57
30 32 25 21 11 10 15 25 47 43 45 49 49 54 54 57 61 63 62 63 65 64 67 70 70 72 70 66 67 63 62 59 54 53 52 50 54 56 58 56 49 43 42
27 26 26 24 16 9 12 19 29 44 44 50 44 45 51 58 58 62 65 63 68 71 71 70 68 67 62 64 57 57 53 51 51 49 51 57 60 55 51 41 39 44 45
22 22 23 21 21 15 10 13 20 29 39 43 48 44 45 49 53 55 58 60 63 64 65 67 68 68 63 58 55 52 52 51 52 46 46 48 48 49 47 44 49 48 54
18 22 17 20 19 18 15 10 14 22 31 36 41 40 41 42 46 48 53 57 60 58 59 57 55 54 56 53 53 51 49 51 48 49 45 42 46 41 43 50 54 60 64
18 20 20 18 19 21 15 15 15 14 21 29 35 39 42 41 43 45 47 49 49 52 51 51 52 51 48 51 52 51 50 52 53 53 51 57 55 58 59 60 62 66 69
25 21 23 20 19 18 19 15 15 17 16 20 29 34 35 38 43 45 46 46 46 46 46 49 48 49 51 52 49 52 50 51 53 58 58 59 58 57 61 64 69 70 74
29 22 27 26 21 17 19 23 20 18 18 21 23 28 41 40 41 46 50 51 51 52 51 50 50 49 49 51 51 49 50 51 53 58 51 59 61 58 62 65 68 72 77
30 33 28 28 28 24 21 20 24 19 21 19 20 26 32 38 48 47 49 51 54 54 56 54 52 52 51 51 51 50 48 50 52 51 50 55 58 60 63 68 69 75 79
33 36 32 31 32 29 27 25 22 23 22 22 22 23 27 36 40 43 48 54 54 53 55 53 53 55 55 57 54 54 59 58 53 52 56 54 60 61 64 68 71 77 80
36 38 40 35 37 33 31 28 22 20 23 24 24 26 28 29 33 37 42 43 46 49 52 54 53 54 55 58 58 59 59 60 51 52 54 57 61 64 68 71 74 80 87
34 40 43 40 40 39 35 32 27 25 25 25 24 26 27 29 30 33 35 37 40 44 44 48 51 53 56 58 55 53 51 51 55 59 60 63 66 70 73 77 83 84 75
38 41 46 46 45 45 41 38 32 27 32 25 28 27 28 29 30 29 30 33 36 40 40 43 45 48 47 47 49 53 58 56 56 58 61 65 66 66 67 66 68 74 74
42 44 46 47 48 49 49 46 42 31 29 31 33 29 31 31 33 31 31 30 32 34 38 41 44 44 44 45 45 48 51 54 56 58 61 62 62 65 68 72 75 75 74
49 45 50 52 54 53 53 47 45 38 35 35 36 33 34 34 35 36 36 34 33 32 31 32 33 35 38 41 44 47 50 51 52 54 58 60 60 57 58 61 65 68 72
53 50 49 55 55 56 53 51 49 48 42 38 40 39 38 41 41 41 40 40 43 43 40 39 38 37 39 42 45 48 51 55 57 57 52 55 59 64 64 65 69 73 75
62 61 59 55 56 58 59 58 57 51 48 43 41 39 39 45 49 49 47 46 44 45 44 44 43 43 45 46 51 51 51 55 56 58 62 65 67 67 69 71 74 78 80
69 66 64 58 64 62 61 60 60 55 54 55 47 44 43 45 52 55 54 52 53 51 51 51 51 52 51 54 57 61 63 63 63 65 67 68 71 73 75 79 81 83 85
75 74 71 65 68 68 65 63 62 63 62 57 57 51 49 49 54 55 55 56 59 61 62 61 61 62 63 64 66 69 71 71 70 72 73 74 77 80 83 85 86 89 91
79 75 74 70 70 72 70 68 69 68 67 65 64 62 62 58 61 62 62 62 62 63 65 68 69 68 69 72 75 77 77 78 78 78 80 81 85 88 89 89 92 95 98
85 83 80 76 75 75 75 78 76 75 75 76 74 71 69 70 76 69 70 68 68 70 71 68 71 73 75 76 77 77 80 82 85 86 88 90 94 93 94 95 99 102 103
90 89 87 85 83 77 77 76 75 73 73 71 74 76 74 76 80 80 76 76 75 75 77 78 79 80 78 79 80 82 85 88 91 93 95 97 99 99 99 101 104 106 108
84 86 88 87 84 81 80 80 79 79 77 77 80 76 75 76 82 84 85 85 84 84 83 85 87 86 88 90 91 91 93 95 97 99 100 103 103 103 103 106 109 113 113
74 78 82 86 84 86 86 87 87 89 88 86 86 86 85 82 84 87 90 91 93 93 92 92 95 92 92 93 94 97 99 102 105 106 108 107 107 108 109 112 116 118 117

GFSMW_250_spd_054.txt.gz
Wind_Speed
26 29 17 8 13 20 35 33 39 43 47 44 40 47 45 49 49 51 57 59 56 58 54 50 56 57 57 58 57 50 46 51 59 64 63 65 67 68 63 52 50 47 49
26 28 24 12 5 22 30 38 43 48 50 52 41 46 48 51 54 54 52 55 59 61 61 65 60 61 63 58 52 55 56 63 64 67 66 68 69 59 52 47 48 47 51
27 24 25 19 9 8 27 40 44 43 46 53 54 43 43 52 57 56 55 57 58 60 62 65 65 64 61 59 62 64 65 66 69 73 72 72 63 53 49 48 49 52 55
23 24 22 24 15 7 11 31 42 45 43 46 47 52 56 53 50 50 51 52 55 56 56 58 59 60 60 63 65 66 70 74 73 71 73 64 58 52 49 51 47 51 57
21 23 19 20 18 12 6 10 32 42 46 49 50 52 51 52 54 54 54 57 57 59 61 60 62 65 67 68 72 72 73 74 77 71 62 59 57 50 47 47 46 51 49
20 22 18 18 16 16 12 5 10 30 43 47 50 53 55 56 56 56 56 59 60 62 64 66 67 67 70 71 71 72 69 71 62 62 58 54 53 53 46 44 41 41 41
21 21 22 15 18 15 14 10 5 6 21 39 45 51 54 56 54 54 56 58 60 61 62 63 66 67 68 68 69 65 62 61 58 58 53 55 55 51 51 44 48 50 52
26 23 20 19 16 18 12 11 9 7 8 13 28 41 46 52 53 55 56 55 55 56 57 57 61 62 63 59 55 57 58 59 60 54 54 54 52 52 50 54 50 50 50
28 26 23 22 20 20 14 10 13 12 11 10 12 19 33 45 47 46 44 47 49 51 53 54 55 56 55 57 56 58 59 58 57 56 55 53 54 54 52 49 51 53 51
32 29 24 19 25 23 22 18 15 14 13 12 12 14 19 27 39 47 52 52 52 52 52 53 54 54 54 55 55 57 58 58 59 59 55 54 51 55 51 53 52 52 54
36 31 27 24 23 28 28 26 26 20 14 12 12 11 12 14 24 35 43 47 46 46 49 51 52 55 55 56 57 59 63 63 61 59 57 53 56 56 53 53 54 53 58
39 35 30 29 24 27 32 29 30 26 20 18 19 13 16 14 16 18 22 34 45 52 53 52 54 54 55 58 57 59 59 61 62 59 55 59 61 58 54 55 56 58 61
45 42 35 36 25 27 32 36 33 33 29 23 20 19 13 14 15 17 17 22 30 38 45 50 54 56 57 57 57 58 59 59 60 60 59 64 55 55 54 55 57 60 62
48 46 41 38 38 31 32 38 36 36 34 32 29 27 21 20 19 19 21 20 20 25 34 40 45 47 49 51 51 52 55 59 61 60 56 56 58 58 56 57 60 66 64
49 50 45 40 38 38 34 38 40 40 39 36 35 35 29 27 25 24 24 26 25 25 25 26 33 42 45 49 52 54 55 56 55 55 54 55 56 52 50 53 54 57 61
51 52 52 49 43 42 39 41 44 42 40 39 38 39 38 35 30 28 29 30 32 31 30 29 29 31 33 35 40 42 46 47 49 50 49 46 49 51 52 55 58 60 60
56 56 56 53 49 47 47 44 47 46 44 44 43 42 44 43 39 36 35 35 35 37 38 38 38 39 38 38 37 38 40 41 43 45 46 49 54 55 57 59 60 62 67
60 58 59 59 58 49 52 49 47 48 50 48 45 47 47 47 49 46 43 42 42 42 44 45 47 47 46 46 45 45 47 47 49 52 53 56 57 62 63 65 69 72 74
64 65 67 65 64 56 56 59 55 54 53 52 52 53 50 50 51 50 52 55 50 50 50 50 53 52 54 54 54 54 54 55 56 60 63 66 68 71 74 77 78 80 82
75 75 73 68 61 63 61 65 60 60 57 60 58 58 61 58 54 50 56 57 56 57 57 56 55 58 58 61 63 64 65 66 67 69 71 74 78 81 83 85 87 87 88
77 76 76 76 73 70 69 68 71 65 65 64 66 66 65 63 63 60 60 61 64 63 63 62 61 61 65 65 68 69 69 70 72 74 76 78 82 85 87 88 90 90 93
84 86 86 86 84 81 78 75 74 76 73 72 70 71 69 69 67 65 64 67 74 71 71 71 66 67 72 71 74 77 77 76 77 80 84 87 90 91 92 93 95 99 101
93 94 96 96 93 85 83 83 81 81 79 80 76 74 73 73 71 72 77 77 77 78 79 74 74 75 77 77 78 81 85 87 87 91 92 96 98 99 99 100 103 106 108
95 98 101 102 100 97 94 90 87 82 81 80 78 78 77 77 76 80 81 81 79 80 80 79 81 83 83 86 88 89 90 93 95 98 100 101 103 104 104 103 105 107 110
76 82 88 94 94 93 89 91 89 87 85 83 83 84 81 76 78 80 80 82 83 84 87 89 88 90 91 92 92 93 96 100 102 103 106 108 109 112 112 115 117 116 118
73 71 75 81 84 85 83 80 84 89 88 86 85 88 86 85 84 87 90 92 92 91 95 99 99 99 97 99 99 101 102 105 106 108 108 112 114 114 117 118 117 115 115

GFSMW_250_spd_057.txt.gz
Wind_Speed
19 19 21 21 13 20 28 32 28 32 31 33 29 29 32 33 54 46 42 46 47 45 47 40 43 46 48 50 53 54 57 59 58 59 59 57 55 60 63 66 69 66 67
17 17 18 22 14 11 28 36 34 36 38 33 38 35 32 34 50 45 47 46 48 54 49 53 49 52 51 56 60 60 57 59 62 64 64 62 63 66 67 70 72 69 66
14 16 16 19 16 6 21 38 39 43 45 46 38 39 38 40 42 46 49 55 57 57 55 57 60 59 62 65 64 64 66 65 66 63 63 66 68 68 74 74 74 66 57
17 16 16 15 17 13 8 29 45 47 48 44 51 47 41 46 48 50 51 52 51 53 62 63 60 66 63 62 64 66 67 66 65 64 66 69 72 77 77 70 63 58 50
19 20 18 16 16 18 14 8 37 51 51 49 50 52 52 49 50 50 55 59 57 59 57 59 57 61 63 63 64 64 63 66 66 69 72 77 77 75 68 62 61 52 54
24 22 21 18 14 14 14 12 9 37 53 54 53 56 60 59 56 52 52 53 54 55 57 59 59 61 63 61 62 64 65 67 74 75 74 74 74 69 64 62 56 51 51
25 23 21 20 14 14 10 8 10 12 26 54 56 57 58 61 61 60 59 57 56 57 58 59 59 61 63 64 66 70 73 75 74 73 74 73 70 66 64 62 58 53 54
27 26 19 22 19 15 14 8 8 10 9 24 56 53 59 62 62 63 64 64 65 66 66 68 69 70 72 74 74 72 71 71 72 70 65 63 62 63 61 60 59 59 55
27 28 19 25 23 15 18 14 9 9 10 10 14 33 57 57 64 67 66 67 69 70 70 70 72 70 71 69 69 68 68 63 60 61 62 64 66 64 60 64 61 61 59
31 32 24 24 27 23 19 20 19 15 15 13 12 13 20 33 55 62 60 65 69 70 69 71 70 66 65 62 60 61 62 62 62 60 63 62 61 62 66 65 64 63 62
35 36 33 26 31 27 23 19 21 21 20 17 14 12 14 17 25 31 39 53 61 63 62 67 68 64 62 61 60 59 62 59 60 62 62 63 66 67 64 64 65 64 61
44 40 40 34 34 34 31 28 25 22 23 26 21 21 18 15 17 22 24 27 31 39 45 52 59 60 60 60 60 60 61 59 60 61 63 63 62 61 63 67 67 67 70
47 47 42 41 39 38 37 35 32 27 23 27 31 27 26 23 20 19 17 21 23 27 29 31 38 43 47 52 57 59 62 64 64 64 64 64 65 64 67 66 70 71 68
55 49 43 47 42 43 42 42 38 37 34 28 34 33 32 29 31 30 26 23 23 24 23 24 25 27 31 34 38 44 49 52 54 57 61 65 69 68 69 70 68 66 65
51 45 46 48 48 46 44 46 42 41 42 38 32 41 39 36 36 36 36 31 29 27 27 28 29 26 25 27 29 32 35 36 44 51 55 57 59 60 62 63 63 61 55
47 46 52 53 55 53 48 48 48 45 42 44 39 37 43 44 42 40 38 41 40 38 35 33 34 37 36 36 39 38 36 39 37 35 36 37 41 45 47 49 51 54 57
52 57 61 60 59 57 50 53 54 52 48 47 45 44 40 48 48 45 43 44 44 44 46 45 42 43 40 43 46 45 45 42 47 48 47 49 50 52 54 56 58 61 65
66 65 66 64 63 58 55 58 58 58 55 53 54 52 48 48 49 48 48 46 47 49 51 52 51 50 50 50 50 52 53 50 47 52 54 56 58 59 62 64 67 70 73
73 72 70 69 67 66 63 61 63 65 64 61 58 55 57 56 53 52 52 52 51 55 57 54 54 57 60 61 59 60 59 58 57 57 59 62 64 64 67 69 71 73 75
78 75 73 70 67 67 69 67 65 67 69 68 64 61 60 63 62 57 55 57 58 61 62 61 60 61 62 59 61 62 61 63 65 63 68 68 70 71 74 77 80 82 84
82 79 79 76 71 73 74 71 71 75 76 72 71 71 65 65 69 68 67 67 65 67 66 67 69 71 71 68 70 73 74 74 74 72 72 73 74 77 80 83 87 87 90
89 88 86 86 85 83 82 80 79 78 77 77 76 77 80 74 74 74 75 75 74 71 70 71 74 77 78 77 78 79 78 79 78 76 78 80 83 87 89 92 95 97 98
94 96 92 88 83 84 84 88 89 84 85 87 88 87 88 85 82 81 79 80 80 80 77 79 78 78 79 78 78 80 80 81 83 84 87 88 90 94 99 101 101 102 104
91 89 89 91 92 92 94 95 95 94 94 97 98 97 96 92 88 88 88 87 87 83 80 80 80 81 81 82 84 86 85 89 89 93 97 99 101 104 105 105 104 103 107
93 92 90 91 93 95 96 99 102 104 103 103 103 104 101 99 98 96 94 90 87 88 86 82 84 88 89 89 89 92 92 97 102 102 104 102 102 104 106 104 107 112 117
86 84 80 79 80 82 85 86 86 85 87 87 88 86 85 86 89 89 90 92 91 91 90 91 91 93 92 95 98 97 101 101 103 107 106 108 106 107 109 110 113 114 110

GFSMW_250_spd_060.txt.gz
Wind_Speed
16 17 18 16 23 18 16 28 31 26 23 23 24 26 27 29 29 37 38 48 45 39 38 41 43 45 42 37 37 41 44 46 48 49 51 49 49 58 58 57 58 59 60
10 15 13 15 19 23 18 23 25 27 26 25 27 29 27 29 25 30 46 49 40 43 44 45 45 44 44 40 39 42 46 52 52 54 53 56 61 63 61 62 58 62 65
11 15 19 14 14 20 17 19 20 32 27 33 31 32 30 28 27 35 47 48 45 44 44 45 48 45 45 42 43 50 54 54 57 60 62 64 66 64 65 63 62 65 68
19 20 19 22 15 14 15 14 20 36 37 32 35 34 36 34 31 30 46 38 44 44 48 48 49 54 51 51 53 52 57 59 62 64 63 66 68 68 65 64 67 71 73
18 18 21 22 21 14 12 15 12 21 42 37 38 37 34 38 38 34 34 51 41 50 51 48 53 52 53 56 57 59 62 63 68 66 66 63 64 65 67 68 74 75 71
19 21 20 20 19 15 13 11 12 10 25 45 42 39 42 42 38 41 43 43 46 46 49 56 59 59 56 57 61 64 61 62 64 62 61 64 66 69 73 76 75 72 68
21 22 22 20 16 19 17 10 9 7 7 31 45 48 49 49 49 47 47 51 53 56 58 60 61 60 60 61 62 62 62 63 64 66 68 70 72 74 78 78 74 67 62
25 24 23 25 18 18 19 16 13 9 4 4 17 49 44 50 51 53 57 55 57 58 61 61 62 62 63 65 66 67 68 70 68 71 73 75 78 78 71 67 63 63 64
28 29 27 26 24 20 23 21 17 16 12 11 7 11 20 55 47 53 56 60 65 67 66 66 68 68 68 68 69 70 72 71 73 78 80 80 76 67 62 62 63 62 61
32 36 33 31 30 26 24 24 20 19 23 20 17 12 12 15 30 48 50 59 66 64 67 68 71 71 72 75 75 77 77 78 81 83 79 73 69 69 67 67 65 66 65
39 40 39 33 33 33 29 27 25 22 22 24 24 19 17 14 15 20 29 42 48 52 62 71 76 75 76 79 79 82 84 79 76 78 74 75 75 73 69 70 69 69 70
46 46 44 39 35 37 32 29 29 27 25 27 26 26 26 24 21 19 20 25 29 36 45 54 60 65 70 69 68 69 71 70 71 73 74 76 76 70 69 69 69 72 73
50 49 46 44 41 41 44 35 32 33 30 31 32 30 27 31 29 27 27 26 24 26 31 35 38 39 43 48 54 60 67 72 72 69 66 66 65 65 66 66 66 67 67
53 49 47 45 43 46 48 43 40 34 33 33 37 37 36 33 34 36 37 36 33 32 32 31 32 34 34 34 34 35 37 38 38 37 38 40 43 46 48 46 48 51 52
54 52 50 49 45 49 50 49 44 43 40 38 40 43 43 43 40 36 43 44 41 41 40 38 37 34 34 34 33 32 33 35 36 38 39 39 40 41 43 43 44 45 47
56 57 53 52 52 54 47 46 48 47 47 46 44 49 49 47 45 43 40 39 50 46 45 44 42 45 45 45 45 44 45 45 43 43 45 44 46 46 46 48 51 50 55
62 59 60 57 58 57 52 51 52 55 53 50 48 51 53 51 49 50 50 50 46 44 53 51 47 49 46 46 49 52 53 52 51 52 53 55 56 55 56 58 57 56 60
66 66 65 64 62 59 56 53 62 65 62 55 54 55 57 56 60 59 58 56 56 55 48 54 58 53 50 52 53 53 54 56 58 59 57 57 61 58 57 60 62 63 65
74 73 70 66 62 59 61 63 65 66 65 63 65 64 62 61 63 63 62 61 61 60 60 53 56 58 58 59 61 62 62 63 61 60 61 61 63 66 69 71 72 72 73
71 72 70 69 66 70 71 73 76 75 74 71 65 62 62 61 65 67 67 66 65 67 61 61 61 63 63 64 67 69 73 74 73 74 70 70 71 73 74 75 74 74 76
74 72 71 71 73 77 80 81 83 82 81 76 71 70 66 67 69 71 73 70 67 70 70 67 66 68 71 73 75 76 77 78 78 80 81 81 80 78 76 77 79 80 82
78 76 75 75 80 82 84 85 86 85 83 82 83 77 76 78 79 79 79 74 75 77 75 78 80 75 76 78 78 79 82 84 85 86 82 82 82 85 84 87 86 88 87
89 90 86 83 90 89 89 89 91 90 91 93 91 91 88 87 84 83 83 83 84 83 88 92 91 90 86 82 84 87 88 86 82 85 88 84 87 90 91 94 95 97 98
89 88 87 90 92 95 96 96 98 97 99 97 97 94 91 90 92 91 90 87 85 90 92 91 92 91 90 93 92 91 89 89 78 73 91 92 93 94 97 103 100 102 105
102 100 98 99 101 102 102 102 103 101 102 97 98 99 98 100 101 101 100 100 101 101 100 99 101 101 103 99 92 90 86 84 86 92 96 101 101 100 99 103 106 105 104
103 103 100 101 103 102 101 104 104 102 99 101 102 102 102 101 102 102 100 98 97 99 91 87 90 83 79 77 83 80 75 64 71 91 104 99 100 100 98 98 102 107 108

GFSMW_250_spd_063.txt.gz
Wind_Speed
18 10 12 14 14 18 19 17 20 30 30 29 39 63 65 56 59 60 65 61 65 51 44 42 44 51 47 47 39 38 39 39 44 40 39 37 36 38 43 41 45 49 54
17 1 10 14 15 18 16 19 16 24 32 28 34 41 50 59 59 54 50 57 58 52 49 43 50 49 46 45 40 41 43 39 42 47 48 45 43 43 42 48 53 57 58
17 10 13 15 16 19 15 14 7 16 27 30 25 32 35 39 39 47 55 55 49 48 46 48 48 48 44 40 41 41 40 43 45 49 53 51 49 45 50 52 58 62 64
21 16 14 15 15 18 16 13 11 11 24 28 28 23 26 27 29 32 33 35 36 38 48 49 45 45 45 40 43 48 47 50 52 50 51 51 50 55 58 60 63 64 60
20 20 16 15 15 15 17 15 13 11 11 34 30 26 25 29 34 32 29 28 33 39 44 45 44 41 39 45 48 49 48 51 51 53 55 57 60 62 64 65 66 65 63
22 21 16 15 15 13 14 17 17 12 10 12 38 33 32 30 38 36 31 31 38 47 50 48 47 45 47 47 49 51 53 55 55 56 59 64 66 66 63 67 66 66 68
23 22 22 18 16 18 15 15 16 16 12 10 12 40 41 36 40 36 39 39 40 46 52 47 47 48 52 54 53 55 59 60 60 62 61 64 68 70 70 71 71 71 71
28 25 25 23 21 21 20 17 16 16 17 13 10 11 35 43 41 43 44 41 38 40 46 50 51 52 52 57 58 60 60 62 63 63 64 67 71 74 78 79 74 73 76
34 29 30 29 26 22 22 23 18 20 17 17 19 14 14 25 32 40 50 47 49 51 52 52 52 57 62 61 62 66 68 66 68 70 73 75 79 78 77 78 79 82 82
42 40 31 28 29 26 26 25 25 19 21 20 18 22 23 21 20 18 26 48 52 54 56 56 58 61 62 65 68 67 69 71 74 75 75 76 79 81 83 85 83 80 76
38 38 31 31 33 32 31 28 29 26 22 20 21 19 19 22 25 22 21 27 35 45 53 59 63 63 66 67 71 73 73 74 73 78 81 84 84 83 83 84 82 82 80
38 40 38 35 35 37 35 34 31 33 28 24 25 26 26 23 20 26 28 28 27 29 36 40 38 42 50 62 72 76 76 79 77 74 70 75 74 74 75 77 80 83 84
45 44 43 43 38 38 37 39 37 36 38 35 33 33 34 32 29 27 27 29 32 32 32 33 32 33 35 37 40 43 46 48 52 54 55 55 53 53 53 50 49 48 45
52 50 44 45 46 46 46 43 38 36 38 44 47 40 34 33 33 32 35 36 33 33 38 42 42 40 40 39 37 38 39 40 40 41 41 38 37 38 42 42 43 42 41
53 55 52 54 50 50 48 45 43 42 40 40 46 46 44 38 39 39 40 42 41 42 41 38 41 44 45 46 46 45 43 42 41 42 44 46 46 48 50 49 50 49 51
53 50 50 52 51 49 51 50 48 45 46 46 45 44 49 47 45 45 46 44 49 48 46 49 48 50 46 46 53 55 54 53 52 52 53 55 55 58 56 55 57 59 61
52 54 52 50 50 48 48 51 52 53 49 50 50 53 55 55 53 51 50 49 48 50 51 56 56 56 55 54 54 53 57 55 56 56 57 57 58 59 63 65 66 67 64
53 57 57 56 55 52 51 51 52 53 54 52 51 57 60 58 60 62 57 56 58 58 59 60 59 59 55 60 61 63 60 60 63 62 62 64 67 66 67 68 68 69 70
58 62 60 59 58 58 59 59 59 60 60 57 58 60 65 65 63 61 63 63 66 63 59 63 67 66 66 67 69 64 60 59 59 59 63 66 69 71 71 74 76 76 79
67 62 61 62 63 64 66 67 66 65 63 63 63 62 61 64 68 72 72 73 74 67 64 65 68 72 71 68 64 67 67 71 71 66 68 72 76 79 81 82 82 82 85
70 67 65 65 68 67 67 68 67 67 66 66 65 68 69 71 72 74 78 79 78 75 72 72 71 73 75 76 73 73 74 77 77 75 78 82 84 85 84 86 88 88 88
70 70 70 71 71 71 70 71 72 73 72 70 69 73 76 81 81 83 84 82 82 79 76 77 76 79 83 83 81 79 78 79 82 86 89 88 83 86 86 89 92 94 78
75 75 74 74 75 76 77 78 78 77 73 74 77 83 86 86 88 91 92 91 91 90 92 89 86 85 83 85 83 82 81 82 84 89 89 95 87 90 88 83 84 84 84
74 77 79 82 83 84 86 87 87 89 89 88 87 87 89 94 95 96 96 97 98 97 95 96 92 89 86 90 90 90 89 87 91 92 96 87 90 86 84 74 75 80 83
87 88 89 91 93 94 95 94 94 94 95 94 91 96 94 97 102 104 106 108 107 108 109 110 107 99 93 101 96 91 88 101 86 73 90 89 74 90 94 72 88 89 103
99 99 100 100 101 102 104 104 104 107 109 107 106 108 107 106 106 108 110 111 109 107 106 103 100 100 100 101 110 106 97 99 91 77 91 88 69 65 83 97 104 94 93

GFSMW_250_spd_066.txt.gz
Wind_Speed
32 27 22 12 12 14 16 20 25 21 22 26 38 45 45 45 58 49 57 58 58 55 49 50 45 42 39 34 39 39 41 42 46 47 46 36 41 42 39 38 39 37 38
29 23 17 10 10 14 14 15 20 22 11 23 31 37 47 48 50 56 54 60 58 60 61 53 55 48 44 40 40 43 49 47 49 43 41 38 45 48 45 44 44 41 43
27 22 18 14 12 13 15 14 16 17 15 13 27 26 30 53 57 60 56 54 53 48 51 55 55 52 50 40 43 52 52 46 48 47 48 51 47 57 52 52 52 51 50
26 24 22 16 14 12 13 16 15 16 15 19 16 27 27 22 39 52 56 57 56 55 51 51 53 59 53 48 49 52 49 50 49 47 46 53 54 51 53 56 55 56 58
29 26 25 19 15 13 10 12 16 16 16 15 14 17 25 24 26 39 43 45 39 43 46 51 52 52 50 47 50 50 50 47 50 47 44 47 51 53 52 51 54 57 61
34 29 28 20 14 14 12 10 13 17 15 16 17 16 19 22 22 27 37 33 32 33 36 44 46 44 43 46 45 48 46 48 48 51 51 55 55 57 56 57 60 61 63
38 32 26 20 17 15 12 12 11 13 15 15 17 18 17 25 25 23 24 28 32 31 33 36 38 34 44 48 45 45 47 47 51 57 58 59 59 60 62 64 64 67 70
38 34 27 24 21 17 16 11 12 12 13 13 15 15 14 16 31 35 30 29 35 38 39 36 39 40 43 53 52 50 53 55 58 61 61 62 63 66 67 68 70 70 70
35 34 32 29 26 23 20 16 14 12 13 12 14 14 17 19 18 19 40 47 39 40 42 41 45 44 46 51 51 53 53 54 56 60 65 64 66 67 69 69 73 73 77
38 39 38 36 31 24 26 24 20 17 16 16 15 14 15 17 16 21 24 23 29 45 48 50 47 48 54 54 56 57 58 58 61 65 66 67 70 70 74 78 79 78 78
39 41 44 43 40 33 30 30 28 24 20 20 22 20 20 20 22 23 21 24 25 24 25 42 51 48 53 57 59 61 62 66 67 68 71 75 77 78 80 81 82 83 84
42 40 38 41 45 42 35 32 35 33 26 25 24 28 26 28 29 29 30 26 23 26 29 28 28 33 43 53 60 66 69 72 75 77 77 79 79 81 80 82 82 78 78
45 42 42 41 39 39 38 36 38 37 34 32 31 30 30 31 31 34 31 27 28 26 27 28 30 35 35 35 37 39 42 46 48 49 49 52 52 54 56 55 55 52 48
52 49 47 46 43 40 42 41 40 40 41 40 37 35 34 33 33 35 33 31 31 32 33 34 34 35 33 33 36 42 44 44 46 48 49 51 51 51 51 49 49 49 48
60 58 53 50 46 44 42 41 42 44 45 46 45 40 38 38 37 37 40 40 39 38 39 39 38 38 39 43 44 43 44 45 45 47 51 55 59 60 61 60 60 59 57
53 59 60 56 53 50 47 46 46 49 50 48 48 45 46 42 43 43 42 43 45 47 46 45 44 45 45 46 53 55 56 54 52 51 48 51 53 58 62 65 65 65 65
56 56 56 56 56 53 52 52 50 49 50 51 50 51 51 49 47 47 48 51 53 54 53 53 52 52 53 53 56 62 58 55 53 57 59 60 63 61 58 60 60 61 61
52 52 55 57 57 57 57 57 53 52 50 50 50 52 53 52 51 52 51 53 58 58 58 61 60 56 55 57 55 59 64 64 61 60 59 65 66 59 63 68 66 70 70
61 57 56 58 58 56 55 56 56 57 58 56 55 55 55 56 58 58 55 58 61 64 63 64 62 62 62 60 64 63 67 70 71 68 68 67 66 67 70 72 74 75 75
70 64 60 59 58 58 58 59 59 60 60 59 58 57 57 59 60 60 61 61 65 65 64 63 64 67 68 68 67 70 75 75 72 71 71 72 71 74 74 76 79 83 84
74 71 71 69 68 66 65 64 64 64 63 62 63 63 62 61 60 60 63 65 67 66 69 70 71 74 75 76 71 77 80 77 79 76 76 77 79 81 81 80 80 84 84
73 73 73 70 69 69 70 70 70 69 70 70 70 69 66 64 65 65 67 69 69 72 75 76 77 79 81 81 82 84 85 84 84 85 80 83 83 87 90 88 87 91 93
73 76 75 74 74 73 72 72 72 72 72 72 71 72 69 69 71 73 76 78 77 78 79 78 83 87 87 93 92 90 88 88 90 89 90 89 94 90 94 91 89 88 98
77 75 73 72 73 74 74 74 76 77 76 75 74 75 77 79 81 82 85 87 87 84 84 88 89 93 96 96 96 99 100 97 96 94 96 95 93 98 96 97 90 79 92
79 80 81 83 81 80 80 79 79 78 77 77 80 83 85 87 89 92 92 92 94 97 100 102 103 106 103 106 106 104 101 103 106 100 107 91 103 97 95 99 96 92 100
84 83 84 86 86 85 85 84 84 84 85 87 92 93 95 97 98 100 102 104 107 109 111 110 105 111 110 110 109 108 111 104 111 108 107 108 108 97 110 104 111 118 112

GFSMW_250_spd_069.txt.gz
Wind_Speed
29 28 31 28 23 23 23 17 19 21 24 15 14 26 29 36 36 32 44 48 48 52 53 57 49 44 43 46 49 47 39 39 41 45 49 47 47 46 42 31 32 46 39
29 28 27 27 22 18 14 13 16 15 19 16 14 22 27 38 41 40 36 44 44 50 51 48 51 53 52 47 43 41 37 32 40 45 45 43 41 48 48 39 41 47 45
27 27 28 24 22 15 13 12 14 11 14 16 10 17 24 32 41 43 41 44 49 50 52 54 55 54 54 54 54 51 42 45 39 45 42 42 48 52 53 55 51 54 54
24 27 29 25 24 18 16 12 11 13 11 12 11 10 21 22 32 40 44 48 50 52 52 51 47 51 54 53 50 52 52 52 43 47 47 49 54 52 56 59 56 55 56
26 26 30 27 26 21 16 11 7 8 11 9 11 4 17 25 25 23 26 39 46 58 58 54 54 50 51 49 45 50 44 43 45 50 51 54 53 56 52 53 50 50 52
33 28 30 29 29 23 18 13 10 6 7 10 9 9 3 19 24 26 24 25 31 34 35 42 46 40 43 44 45 46 40 38 40 46 50 49 48 50 55 49 48 54 58
41 35 33 31 32 26 19 15 12 11 6 6 8 9 9 5 14 25 25 22 25 29 32 30 31 33 34 36 36 35 33 36 36 41 50 50 51 50 52 55 57 61 64
44 40 39 34 33 28 24 20 16 12 9 8 6 8 9 9 5 3 23 29 26 28 34 35 35 33 33 31 34 34 37 38 43 43 46 49 51 53 55 61 66 67 68
40 40 36 34 35 32 26 24 20 17 12 11 10 9 8 11 12 12 8 5 13 24 30 30 34 36 39 39 37 37 37 43 48 49 49 52 54 55 61 64 66 70 72
39 37 37 37 38 35 30 26 26 22 18 15 14 14 13 13 15 15 18 19 17 14 14 19 33 44 43 42 40 42 42 47 53 55 56 61 64 65 67 69 66 68 70
43 42 41 41 39 36 36 35 29 26 26 24 19 16 16 17 19 20 20 21 22 20 19 18 20 21 30 43 44 47 48 50 52 57 60 61 63 67 68 71 73 74 77
45 46 45 44 41 43 43 41 37 33 31 31 30 26 22 20 20 21 22 23 23 23 23 20 19 18 21 26 30 41 49 53 54 53 56 60 65 66 69 72 75 71 69
45 42 44 45 42 42 43 46 46 40 38 38 34 34 32 26 25 26 27 27 26 24 26 26 26 24 24 24 26 29 31 34 35 37 41 43 45 48 50 50 49 51 51
55 50 45 44 44 45 45 44 42 40 42 42 38 37 34 34 31 32 31 31 30 30 31 33 32 32 32 32 29 30 32 34 36 38 41 43 43 46 46 46 47 47 49
58 54 51 50 49 48 47 45 44 41 41 44 40 39 38 38 40 38 37 36 35 34 35 38 41 40 39 40 38 38 38 40 42 44 44 45 47 48 48 47 52 54 51
54 55 56 57 55 53 51 49 47 46 44 44 42 42 43 44 45 44 42 43 42 41 41 42 44 45 47 47 46 46 47 48 48 47 48 50 48 49 54 52 55 59 59
62 57 53 55 53 53 56 55 53 49 47 48 48 47 46 45 46 47 47 48 49 47 46 46 47 48 51 55 53 51 52 55 55 54 54 54 54 56 57 61 61 63 61
57 58 60 57 56 54 53 54 52 52 53 53 52 51 50 50 49 50 51 52 53 53 51 52 53 53 53 58 58 58 57 59 60 60 61 60 58 60 65 66 66 63 65
63 69 68 66 63 63 61 58 57 56 56 57 57 56 56 56 56 55 55 56 56 57 58 58 61 59 58 61 61 64 67 64 63 65 68 69 68 69 68 72 70 68 71
63 62 61 72 68 68 64 62 63 63 63 62 62 62 62 62 62 61 62 63 64 64 64 64 61 60 62 66 67 69 71 68 70 72 73 74 73 73 72 75 77 76 77
71 74 74 76 72 71 71 69 66 65 66 67 68 68 68 67 66 67 68 69 69 69 69 70 66 64 63 62 67 69 70 72 75 74 76 80 81 80 79 81 82 83 87
77 77 76 74 75 74 75 75 72 70 70 70 69 69 71 72 71 70 69 71 72 73 74 72 70 69 67 67 70 74 77 79 82 81 79 79 81 84 84 84 78 79 90
79 78 76 78 82 81 81 82 80 76 77 76 76 77 76 76 76 77 74 74 75 75 74 76 75 72 74 76 77 79 82 86 88 87 87 89 89 94 94 96 93 97 94
85 84 81 79 78 78 80 81 77 74 74 77 78 78 77 76 76 77 79 80 80 79 79 77 77 75 78 82 84 86 87 89 94 95 99 101 95 100 88 87 105 105 99
88 90 87 86 85 85 81 78 79 82 82 80 78 77 77 78 80 82 83 84 83 81 80 81 82 84 88 90 93 96 98 102 105 107 106 104 101 108 108 107 109 112 108
90 90 88 86 86 86 84 85 87 86 86 86 86 86 87 87 88 90 90 89 87 86 86 88 95 98 102 106 109 111 113 113 113 114 110 105 109 109 114 118 116 119 118

GFSMW_250_spd_072.txt.gz
Wind_Speed
44 39 36 32 26 23 18 17 16 18 22 22 19 16 16 23 26 24 21 27 32 40 52 46 54 53 48 46 45 44 35 32 35 34 40 32 32 37 42 43 44 44 41
40 39 34 28 23 22 18 16 14 12 14 17 15 14 17 25 32 27 30 24 33 36 43 44 43 51 53 50 45 44 42 39 39 35 33 38 43 42 50 52 51 53 47
40 37 31 26 24 21 19 16 13 9 11 11 14 10 17 26 37 32 27 27 27 32 39 43 44 45 50 48 49 48 47 51 47 45 42 40 38 46 49 52 49 49 54
40 34 31 27 24 22 22 16 14 12 8 7 11 10 10 21 35 40 33 36 32 33 36 40 42 44 46 49 49 53 49 46 51 51 51 52 47 47 50 50 49 51 51
39 34 33 29 25 23 24 18 14 10 4 5 7 10 4 13 25 37 35 33 35 36 42 46 45 47 50 48 46 43 42 42 43 44 44 42 45 47 52 47 46 50 51
41 36 31 28 29 27 25 20 16 13 6 1 4 5 8 9 19 23 28 28 26 28 41 44 43 48 48 48 47 47 48 44 48 46 49 44 43 49 52 48 50 51 52
39 37 36 35 33 31 30 23 20 15 10 5 0 4 4 4 7 20 25 27 26 23 28 32 36 37 39 43 40 39 43 44 47 46 45 42 42 42 41 42 46 48 51
40 40 40 38 38 33 34 26 22 17 13 11 7 5 0 5 3 3 12 25 27 26 23 25 28 30 31 33 35 35 36 34 32 32 36 40 42 42 41 44 48 49 52
45 43 39 39 36 32 33 32 26 25 21 16 14 11 9 5 1 2 3 2 7 21 30 28 25 34 36 36 35 33 33 30 31 33 35 37 39 42 42 46 49 48 50
44 41 39 36 36 32 32 34 30 29 26 21 16 14 11 10 8 7 6 5 6 5 7 15 25 35 35 38 39 40 38 37 36 36 38 40 42 44 46 47 49 52 58
45 42 39 37 38 40 40 39 35 33 27 26 24 19 16 14 14 13 13 13 11 9 10 9 9 9 14 21 22 26 35 43 42 42 43 45 46 50 56 56 58 59 60
46 43 42 43 42 41 42 42 39 37 35 33 28 28 27 22 20 20 18 18 17 16 16 15 16 16 15 15 15 15 19 24 25 26 31 39 43 47 49 48 52 54 53
48 46 44 43 43 43 42 42 42 41 40 39 35 36 33 32 29 29 27 24 24 23 21 21 21 24 24 25 25 26 23 25 26 26 28 28 29 31 31 31 34 37 40
49 48 46 46 46 46 45 46 45 46 45 44 43 41 40 38 36 34 33 31 29 30 29 28 28 28 31 33 35 34 33 33 33 32 33 35 36 37 36 37 36 40 41
51 50 49 49 50 51 51 47 46 47 47 43 41 39 39 41 42 40 37 36 38 37 35 36 35 34 35 36 38 40 41 42 38 37 41 42 42 43 46 44 45 44 41
60 56 52 51 53 52 52 51 51 49 45 42 42 42 41 41 42 43 42 41 41 42 41 42 43 43 43 44 42 42 45 45 46 46 47 48 47 49 48 48 50 50 46
63 62 59 58 56 55 54 53 52 51 51 50 48 46 46 45 46 46 48 48 47 47 46 47 48 49 51 51 49 48 47 46 49 51 54 56 56 53 54 55 54 56 59
63 65 64 62 61 60 59 58 58 57 55 54 54 55 55 54 52 53 53 53 52 52 52 52 54 55 56 56 56 56 56 55 54 55 57 59 60 59 59 59 58 58 61
66 67 69 67 64 62 60 59 60 61 59 59 59 59 60 61 61 61 60 58 59 59 58 59 59 60 61 60 61 63 63 63 62 63 64 66 62 61 64 68 66 66 68
66 67 69 68 67 64 62 63 63 64 63 62 60 60 61 61 61 63 65 66 64 64 64 64 64 64 65 66 69 69 70 70 70 69 69 70 68 68 71 72 73 73 79
71 72 72 73 70 69 69 71 69 68 66 64 64 64 65 67 67 67 68 68 68 69 70 71 71 71 71 71 72 75 76 77 77 74 72 70 68 69 74 75 77 79 79
67 69 73 76 80 80 79 75 76 76 74 69 68 67 71 74 76 76 74 74 75 75 77 78 79 79 80 81 82 81 82 83 85 83 83 79 71 71 77 79 80 84 87
75 74 71 68 72 75 75 79 79 78 77 75 79 77 78 78 76 76 77 78 80 81 81 84 85 86 86 86 88 85 86 89 90 90 89 87 83 80 79 81 84 87 90
87 84 81 80 75 79 85 83 79 79 80 78 78 79 80 80 80 80 79 81 83 87 90 91 90 89 87 87 86 86 89 93 95 96 95 92 90 89 88 89 93 98 102
92 86 87 88 88 87 88 84 84 85 87 86 85 85 82 83 82 83 84 82 82 82 85 89 90 92 90 88 89 89 94 97 95 94 96 95 97 101 102 105 106 109 113
96 94 92 92 92 91 90 91 93 93 92 92 91 92 93 95 92 91 90 88 90 89 87 86 89 92 92 93 97 100 96 96 96 97 102 106 109 114 118 120 122 124 124

GFSMW_250_spd_075.txt.gz
Wind_Speed
27 29 43 45 42 42 33 24 21 18 17 20 24 21 21 20 23 26 24 31 35 43 38 44 59 56 51 52 52 47 40 38 35 38 36 36 32 37 33 29 29 29 33
24 40 47 43 44 39 29 23 18 15 14 17 17 16 20 17 25 25 27 26 23 33 31 37 46 47 51 53 49 49 44 41 38 41 38 34 40 34 32 37 33 37 38
39 47 44 45 42 36 27 23 19 18 13 12 14 14 17 17 27 30 26 23 26 29 33 35 41 44 47 47 49 49 46 47 49 45 47 49 46 45 44 45 44 43 46
44 45 43 44 42 34 28 24 20 17 15 11 12 9 10 14 30 34 33 35 27 30 33 37 37 38 40 42 43 44 48 49 50 46 43 47 46 45 50 48 45 45 48
45 44 46 46 37 31 28 24 20 17 13 9 7 5 6 11 31 34 35 31 26 29 36 37 36 39 42 41 41 44 50 49 49 49 47 46 48 50 48 48 45 48 50
43 44 45 41 36 33 28 28 22 17 15 10 5 2 5 10 21 28 34 32 30 27 27 26 35 41 42 43 43 46 47 48 44 47 44 44 47 47 47 50 50 51 54
43 46 46 43 40 36 32 30 26 20 19 16 10 5 4 4 20 24 32 33 31 33 36 36 38 39 41 43 46 48 49 49 49 50 49 50 50 51 51 53 55 53 53
46 48 48 44 42 37 33 32 30 25 22 21 16 10 5 8 8 23 26 28 30 34 32 33 34 44 55 55 53 53 56 55 52 52 49 46 49 48 47 47 48 48 45
50 50 48 46 42 38 35 35 36 31 25 23 22 17 11 8 7 9 15 26 30 31 29 26 24 26 28 31 36 38 37 36 37 39 37 36 34 36 35 38 40 43 45
51 51 50 46 42 40 37 36 39 34 29 27 24 22 18 14 12 10 8 9 11 15 25 32 31 33 34 34 33 37 37 37 39 40 39 39 40 42 42 41 41 40 41
51 49 49 46 41 40 40 40 42 37 33 32 28 23 21 20 18 15 14 13 12 13 16 16 19 24 27 28 33 37 41 45 48 49 48 46 43 42 43 44 45 48 49
53 51 51 49 44 42 41 41 39 38 38 36 31 28 27 24 22 22 22 19 17 17 16 16 18 22 22 21 21 25 30 31 28 30 35 40 44 49 52 54 55 57 58
54 52 50 52 48 46 46 45 43 39 40 40 37 34 31 28 29 28 26 26 25 24 23 23 22 23 24 24 25 25 25 26 27 27 28 32 35 39 42 42 41 39 40
56 56 53 52 51 49 47 45 43 46 46 44 43 42 38 35 33 33 33 32 31 33 32 30 29 29 31 30 29 29 30 32 33 35 36 36 35 37 37 39 41 42 41
57 60 56 54 51 50 49 49 49 51 50 48 48 46 44 42 40 42 42 41 40 39 38 37 37 37 35 34 36 37 38 38 40 41 44 45 46 44 44 45 47 47 47
53 62 61 56 55 52 52 54 55 54 52 52 51 49 48 44 42 41 41 42 43 43 43 44 44 44 40 44 43 44 45 47 48 48 48 48 50 54 54 53 53 55 55
53 61 63 60 58 56 53 55 54 55 54 54 50 55 52 48 47 45 44 43 44 45 46 46 46 47 48 51 51 51 52 54 55 56 55 54 54 55 56 57 59 61 62
55 59 65 65 63 60 58 57 56 56 55 54 59 55 54 52 49 48 50 51 50 50 50 51 53 55 55 57 57 57 57 57 60 61 62 60 61 62 63 64 64 67 70
59 62 63 68 65 63 64 64 57 57 60 58 58 56 56 56 55 56 58 57 58 59 58 60 61 62 61 61 61 63 64 64 64 65 64 64 67 70 73 72 72 71 73
62 62 63 64 65 65 66 65 66 67 66 65 64 63 63 63 64 66 66 65 65 65 66 68 69 69 66 66 67 69 70 72 72 72 72 70 70 73 76 77 77 79 80
64 67 67 64 63 64 66 67 70 70 69 70 70 72 73 74 72 71 71 72 71 72 74 75 74 74 72 71 70 72 74 76 76 76 76 76 77 79 80 82 82 85 85
68 69 68 67 68 69 69 68 70 72 72 72 71 71 72 74 75 75 75 75 75 73 74 74 75 74 73 75 78 78 81 83 85 87 88 89 88 87 85 83 87 89 91
71 69 70 71 70 70 70 70 72 72 72 73 75 78 79 80 80 79 79 76 75 76 79 79 81 83 83 81 82 82 86 88 90 91 92 93 94 95 96 94 93 94 97
75 76 76 76 78 78 77 77 79 79 80 81 79 81 82 84 82 81 82 86 84 87 87 87 87 88 88 85 86 89 91 92 95 96 97 100 102 101 99 99 97 96 98
83 78 77 79 80 81 83 85 86 86 85 84 86 87 89 89 87 91 95 94 92 89 85 87 88 86 88 90 90 91 90 90 89 94 93 93 94 94 96 100 104 107 113
89 87 85 83 81 81 81 82 84 86 84 86 86 87 89 92 92 94 94 96 93 93 95 96 95 93 96 96 95 95 94 96 99 101 101 97 101 103 107 111 109 110 112

GFSMW_250_spd_081.txt.gz
Wind_Speed
70 71 72 72 71 70 67 61 43 36 36 31 32 33 37 37 36 36 36 39 39 40 42 48 50 59 58 59 59 55 57 58 55 55 51 50 49 47 48 40 29 29 30
69 69 73 74 74 64 62 46 38 38 30 31 32 33 36 35 34 34 35 36 37 39 40 43 45 56 59 67 62 60 57 52 50 49 48 47 43 44 46 43 36 31 32
63 69 76 74 66 61 49 38 38 36 30 32 31 32 35 31 32 30 31 32 32 35 41 38 39 50 59 57 61 65 60 55 46 46 46 43 42 43 49 42 42 37 37
65 71 71 64 59 52 37 36 39 30 31 32 32 34 29 31 25 28 28 26 28 34 35 42 36 40 51 52 52 55 59 56 52 50 48 47 48 50 52 49 46 47 45
69 70 62 56 50 37 33 41 34 32 33 34 34 33 27 24 23 21 23 23 27 30 36 44 45 42 40 50 56 51 46 48 52 53 51 50 50 51 48 49 49 50 49
67 64 56 47 36 31 40 38 35 35 35 34 36 30 26 22 20 19 22 26 31 32 34 37 46 46 43 46 49 49 49 49 50 48 53 52 53 58 53 53 54 55 54
62 55 54 36 33 37 42 38 37 37 36 34 34 27 25 20 15 18 23 28 32 33 33 30 29 40 42 39 49 50 51 48 50 51 53 57 58 62 57 57 60 55 55
57 52 41 33 35 44 44 42 41 39 38 33 29 28 24 19 16 14 24 32 33 31 28 31 35 32 37 35 40 47 49 55 53 58 56 59 60 55 55 58 59 57 58
56 48 31 34 45 47 46 44 44 41 39 34 29 30 26 20 16 11 24 34 36 32 27 28 31 35 39 39 43 45 48 54 58 57 55 59 61 64 64 60 60 60 64
52 40 33 40 49 50 49 46 47 43 41 36 33 32 29 21 16 15 20 40 38 37 34 35 33 36 44 48 50 54 56 58 57 62 62 68 65 62 59 59 63 65 61
49 38 37 43 48 54 53 51 49 44 41 39 36 34 31 25 20 18 18 31 44 45 41 39 37 37 44 49 54 54 53 55 56 55 58 61 62 63 61 63 61 58 57
48 37 42 48 55 56 56 55 51 46 41 39 39 36 34 31 27 24 21 21 30 48 45 47 43 48 48 44 49 53 56 57 59 61 61 63 61 55 53 54 55 52 53
41 39 45 51 56 55 57 56 53 48 44 41 42 40 38 35 33 30 28 25 25 27 35 45 50 50 48 54 53 53 54 55 55 53 51 51 52 52 52 54 57 56 57
39 44 46 52 56 55 56 55 57 55 49 47 43 42 42 41 36 36 35 34 32 31 29 30 32 33 35 37 39 39 39 38 38 38 38 38 39 40 41 43 44 46 48
44 46 48 48 52 54 54 54 58 57 55 52 46 42 44 45 43 40 38 38 38 37 37 36 36 36 35 35 36 37 39 39 40 41 42 43 44 46 48 49 52 53 53
44 45 51 52 50 51 53 53 56 58 59 56 50 46 46 46 46 47 44 43 42 41 41 40 41 42 43 42 43 44 42 43 45 45 46 48 49 52 53 54 57 59 58
46 44 53 57 52 49 51 54 56 58 57 56 53 52 50 49 48 49 53 51 48 47 46 45 46 47 48 48 49 50 49 50 52 53 54 54 55 57 58 58 59 60 62
47 46 49 58 54 49 50 52 55 58 57 57 56 56 56 55 54 54 57 55 53 54 53 54 54 54 54 53 52 50 52 53 53 55 57 59 60 60 62 65 67 67 67
49 50 48 56 52 51 51 51 53 55 57 59 60 60 60 60 59 59 60 60 59 58 60 61 60 60 61 61 59 58 59 59 59 60 61 62 63 66 69 71 73 73 75
53 51 46 46 51 56 53 54 56 56 58 58 60 62 64 62 61 63 63 62 64 66 66 65 64 65 65 64 65 65 65 65 66 67 66 69 70 73 77 79 79 80 81
48 53 43 54 52 55 52 58 54 57 61 61 61 62 62 64 65 67 67 65 64 65 67 72 71 71 69 68 68 70 71 71 72 72 73 75 78 81 81 84 84 85 87
59 62 67 69 69 65 62 59 61 64 64 64 65 64 64 66 69 67 69 68 64 64 74 75 74 75 76 76 76 78 79 78 77 78 80 83 85 87 86 87 88 90 91
75 73 73 72 69 71 72 69 74 69 67 67 65 60 57 58 75 73 73 65 70 78 79 82 79 80 81 81 82 83 85 86 85 86 88 89 89 89 91 92 93 96 97
78 78 78 79 74 69 69 69 70 71 72 72 73 73 75 76 75 78 80 81 81 85 87 86 86 89 90 87 88 92 94 96 95 93 93 93 93 95 97 99 103 104 106
78 77 77 85 86 82 77 77 77 75 76 75 75 77 78 80 81 82 82 86 86 88 90 92 92 93 95 97 99 100 100 99 98 99 100 99 100 100 101 106 110 110 111
81 84 82 84 85 88 90 90 88 86 85 83 82 80 80 82 82 84 86 88 91 93 94 94 94 98 103 104 102 103 104 105 105 107 106 108 108 108 113 115 114 113 111

GFSMW_250_spd_084.txt.gz
Wind_Speed
54 53 57 55 58 64 64 67 68 72 73 74 55 38 37 42 40 38 38 40 42 47 50 53 49 50 52 53 55 53 55 56 53 47 48 45 50 47 40 40 39 42 46
52 52 53 52 54 62 66 68 71 75 73 65 44 37 41 41 37 36 37 38 40 43 47 51 52 49 54 57 56 55 56 56 50 48 49 48 44 46 45 43 44 43 43
52 48 52 59 58 65 63 68 72 76 73 52 38 39 42 38 35 34 35 37 37 40 41 45 48 49 50 52 56 58 59 58 58 56 51 51 50 46 47 42 42 43 44
46 49 58 60 59 67 69 73 77 71 51 39 39 41 40 35 33 33 34 36 37 39 40 44 47 49 50 50 56 59 62 60 58 55 55 51 46 43 45 42 43 46 49
51 58 64 63 67 69 71 72 71 51 36 41 40 40 36 33 32 33 34 33 37 36 36 39 42 46 44 47 59 60 60 60 59 52 48 49 49 47 46 47 46 48 49
54 59 61 65 67 69 70 68 48 37 39 41 42 38 35 31 32 31 28 31 29 30 30 34 37 38 41 37 60 60 59 61 56 52 52 53 54 51 49 48 53 51 52
56 58 63 69 71 71 66 49 36 37 42 42 39 36 34 32 30 27 26 26 25 25 25 31 39 38 39 41 40 53 49 53 50 47 50 44 47 53 54 55 58 53 53
62 62 63 67 68 56 46 36 36 42 42 42 38 36 32 31 26 25 27 23 22 25 24 29 36 44 43 44 38 40 54 46 50 47 42 42 48 54 56 59 60 59 57
61 62 62 62 55 45 46 32 41 42 43 40 37 33 33 30 24 27 24 22 25 25 29 31 35 45 46 42 44 42 43 47 44 43 52 53 55 56 58 57 53 55 60
53 56 58 54 46 41 35 37 43 44 43 38 37 36 34 29 26 28 25 23 32 32 31 32 31 29 33 34 28 32 36 40 48 50 52 57 59 59 61 61 63 63 62
57 58 56 42 33 37 29 37 44 44 44 39 40 37 35 30 28 24 25 25 37 37 35 31 31 31 35 33 35 37 38 43 46 50 52 53 55 58 62 64 65 67 68
53 51 53 47 34 34 32 47 52 48 49 44 41 39 36 32 29 25 24 23 34 41 36 37 36 37 33 39 40 44 44 48 50 52 54 54 55 58 61 63 61 62 67
52 54 56 48 42 39 45 54 56 56 53 47 43 42 40 37 33 29 26 24 24 38 46 36 38 36 38 41 39 46 50 56 56 54 56 57 56 58 60 65 62 55 55
55 57 56 49 36 44 54 58 59 60 55 52 48 44 42 41 37 33 30 29 27 25 30 43 39 43 45 47 47 47 49 49 49 52 57 60 64 64 61 56 53 50 48
61 60 57 48 40 47 60 60 60 63 59 55 51 45 44 43 41 39 36 35 34 32 30 30 32 36 37 46 43 44 48 51 51 49 48 48 49 49 47 46 47 46 46
62 56 49 43 41 49 58 62 62 64 64 58 55 50 46 42 42 44 43 41 38 40 40 38 38 37 36 36 38 39 39 41 43 42 43 45 47 47 47 47 50 50 52
59 48 41 38 41 49 56 62 63 63 66 63 59 55 49 45 42 42 44 46 46 44 43 44 45 45 45 44 44 42 42 44 45 46 48 51 52 53 55 54 57 59 59
54 38 36 40 41 45 52 61 61 62 62 67 64 59 54 52 51 48 46 47 49 51 50 50 48 49 48 48 49 50 51 52 54 54 55 57 59 62 62 60 61 63 64
43 39 42 42 41 49 52 56 57 58 59 59 59 62 61 58 57 55 54 54 55 55 56 57 55 56 56 57 58 59 59 60 61 61 62 61 62 64 65 66 66 66 67
40 47 46 45 44 46 52 54 49 53 54 51 56 55 56 58 58 59 59 60 61 60 59 60 60 61 61 63 65 66 66 66 67 67 67 68 70 71 70 71 72 73 74
44 51 53 50 50 49 51 52 52 48 51 53 51 47 53 54 54 56 58 62 63 64 64 67 67 66 67 69 70 71 71 71 71 72 73 72 73 76 76 77 78 79 79
52 55 57 53 54 51 51 52 53 53 53 54 51 44 55 54 55 50 59 67 62 66 67 68 71 71 70 70 71 71 76 78 81 77 75 77 76 79 81 82 82 83 86
57 59 63 53 55 47 48 51 50 54 51 53 60 53 53 58 62 70 75 77 71 71 68 69 72 72 74 74 75 75 78 81 83 83 84 86 86 85 85 86 89 91 92
61 62 63 54 56 57 57 62 59 62 67 63 60 55 76 76 73 74 74 77 75 72 72 73 75 72 78 78 74 82 84 88 90 89 91 93 92 92 91 93 96 99 101
63 69 67 66 62 67 73 71 75 71 69 67 61 67 74 65 71 78 76 77 74 74 75 78 81 83 88 87 90 89 92 96 94 94 98 102 103 100 100 102 105 107 109
68 73 77 72 71 74 77 81 83 83 80 82 78 79 81 79 82 81 82 82 81 80 83 84 86 88 89 94 96 99 101 102 103 103 103 106 109 109 110 111 111 111 112

GFSMW_250_spd_087.txt.gz
Wind_Speed
54 55 53 54 47 44 37 43 54 63 59 58 62 63 63 65 64 59 39 39 43 48 43 45 45 47 47 48 54 62 55 48 55 56 54 49 47 43 41 36 39 40 38
48 50 50 48 39 36 30 46 53 53 55 59 61 62 65 66 69 47 40 42 45 46 45 44 45 48 50 45 49 52 49 50 51 54 54 54 49 43 43 40 39 44 42
49 48 50 39 33 34 34 46 54 55 55 56 59 61 67 70 54 39 42 44 45 44 41 43 43 48 51 50 45 39 44 50 51 52 54 54 50 45 45 43 44 44 40
45 48 50 39 34 38 42 46 49 53 57 57 61 69 69 54 38 42 43 44 41 39 37 39 40 45 49 52 50 46 46 53 53 53 52 52 53 51 48 46 43 43 44
43 51 46 42 37 37 42 46 52 56 59 65 65 67 54 39 39 44 43 38 35 34 34 37 40 44 44 46 49 49 50 58 59 56 52 50 50 49 47 46 47 44 43
40 38 36 36 29 34 38 47 56 58 63 66 71 52 38 36 43 43 38 35 30 32 35 37 36 39 42 45 49 49 50 55 62 58 54 55 51 52 50 51 45 47 45
44 40 43 34 34 41 45 51 56 61 66 68 52 39 33 41 43 38 34 29 29 33 35 34 35 36 39 41 45 45 48 57 63 61 59 51 46 46 46 46 51 50 50
40 42 44 42 38 40 43 51 54 60 61 47 36 32 39 42 38 32 30 27 28 32 30 30 30 31 33 34 39 39 45 54 60 56 56 56 55 49 50 49 49 47 53
43 41 41 41 40 43 43 42 46 44 39 34 31 36 41 38 36 30 28 27 27 30 27 25 25 33 33 34 29 30 28 37 42 54 50 48 51 45 46 47 46 50 50
41 43 40 41 43 45 24 24 30 33 27 28 36 39 37 38 32 30 28 26 26 28 26 29 36 34 34 34 35 36 36 36 34 42 42 52 49 54 51 50 51 52 51
40 44 45 42 42 41 31 38 24 26 35 33 40 38 39 37 33 30 29 26 27 26 28 29 34 33 37 40 39 41 42 43 44 37 44 44 46 51 51 54 56 55 57
38 42 41 43 42 48 39 32 35 42 46 43 42 41 40 36 31 32 29 23 28 24 32 29 35 34 31 31 36 34 36 33 33 41 45 46 47 48 48 52 54 56 59
43 38 44 44 45 49 47 45 36 38 42 45 44 43 41 38 35 37 31 25 23 23 36 33 33 34 32 31 38 40 39 39 41 42 41 45 48 50 51 52 56 58 59
43 41 46 48 49 46 42 39 41 43 51 52 50 49 46 42 41 40 34 30 26 25 26 34 35 35 37 37 37 38 40 43 43 43 45 47 51 55 57 57 59 60 58
46 45 48 49 48 48 47 39 36 49 54 56 56 53 51 47 43 44 40 35 31 30 27 25 35 35 41 38 38 43 45 45 43 45 49 54 56 57 57 56 58 63 64
55 50 51 52 52 51 50 51 44 48 61 60 60 57 58 53 47 48 45 41 36 35 34 33 31 31 35 40 46 49 51 51 53 54 55 57 61 62 63 59 56 54 51
54 55 54 57 56 53 55 51 46 52 61 65 60 63 61 58 49 48 47 45 42 41 39 38 38 37 35 35 36 39 42 44 44 46 45 45 45 47 49 49 50 51 53
52 55 57 59 60 57 49 50 47 56 63 69 63 66 65 59 51 45 45 45 44 45 46 46 45 43 43 43 43 44 44 45 46 48 50 50 50 51 53 55 56 56 58
60 59 59 62 61 56 49 46 47 56 65 67 68 64 67 64 57 53 49 47 46 47 48 49 49 50 50 50 49 49 52 54 54 55 56 57 57 58 60 61 62 63 65
64 64 65 65 60 54 42 44 49 48 63 66 69 64 69 67 62 59 57 54 53 53 52 53 55 55 56 57 56 57 58 59 60 62 64 65 67 67 68 69 70 73 74
67 66 67 60 59 47 46 40 49 50 52 61 67 67 63 63 67 64 62 62 60 59 59 60 61 61 61 60 63 67 65 64 65 67 68 71 74 76 77 77 78 80 80
68 67 65 59 50 49 53 47 47 52 56 57 57 64 64 58 61 65 64 67 68 67 61 58 60 60 62 62 60 64 67 68 69 71 72 74 77 78 80 83 81 81 85
67 65 64 55 45 54 54 51 50 57 58 56 54 55 51 56 54 58 61 57 57 56 55 57 63 69 69 67 64 68 72 72 74 75 76 76 77 79 81 82 84 85 86
66 62 58 51 49 58 62 58 53 51 62 59 57 54 57 63 62 61 62 58 61 64 58 66 70 73 76 79 75 76 76 77 78 79 77 71 82 85 87 88 90 90 93
64 62 59 56 51 63 66 64 61 61 63 61 63 67 65 72 69 68 66 69 67 65 68 72 78 75 76 80 77 81 84 82 85 88 84 85 93 92 93 96 97 101 103
64 61 57 59 56 67 70 69 68 68 65 68 66 71 73 72 73 77 76 71 74 77 84 84 87 91 90 91 92 90 88 87 89 90 90 91 96 100 103 104 105 106 108

GFSMW_250_spd_090.txt.gz
Wind_Speed
60 57 56 53 54 54 55 55 53 52 54 45 49 47 52 53 54 55 54 54 57 59 51 36 37 41 44 50 52 54 55 62 64 47 64 62 56 51 47 44 40 44 36
52 49 51 49 49 51 49 48 50 54 53 42 41 51 54 55 54 53 54 56 58 56 42 36 40 43 48 47 50 54 54 52 55 57 50 56 57 56 49 46 46 46 39
46 45 46 45 45 44 44 45 53 49 42 33 43 55 53 52 53 53 53 57 54 45 37 38 42 45 47 49 51 47 45 45 52 51 50 50 52 55 51 47 50 48 42
38 38 40 36 36 37 41 46 43 43 27 42 52 51 51 49 53 54 57 57 49 37 38 42 46 43 45 52 52 50 43 41 41 45 48 48 50 55 52 51 51 50 46
33 35 33 34 32 37 40 41 41 31 41 42 41 43 46 51 56 58 60 51 35 38 41 44 43 44 42 48 46 46 52 42 43 45 52 49 52 51 56 53 56 58 50
29 27 30 32 39 37 34 40 31 33 36 38 44 45 50 56 59 61 47 35 34 38 41 39 42 42 40 40 40 45 46 50 44 45 51 51 52 59 58 58 58 57 52
31 29 32 41 42 39 36 34 38 41 34 34 41 50 52 58 59 48 33 30 35 36 38 39 40 39 39 41 40 43 45 48 50 52 51 55 59 57 56 56 56 48 51
29 34 39 46 43 45 42 33 29 35 30 31 44 50 55 48 39 30 27 32 34 35 35 37 36 33 36 36 36 39 42 45 51 54 53 56 60 59 56 52 50 48 49
32 39 42 45 44 50 41 31 24 12 21 32 31 35 36 29 28 23 31 33 34 35 36 32 31 30 30 33 34 35 38 40 41 45 51 58 60 62 59 57 58 47 46
35 38 45 42 42 34 32 30 18 19 21 27 30 29 23 20 22 28 32 33 34 35 31 31 24 28 28 27 24 25 25 25 30 42 50 54 63 58 54 49 49 51 52
40 43 40 40 38 33 34 33 28 14 15 22 27 34 24 21 26 32 34 35 34 32 31 27 20 28 23 28 29 27 23 25 25 30 32 34 43 50 47 50 55 56 54
42 43 45 46 37 39 38 30 23 19 23 25 37 41 39 28 33 36 36 37 34 32 30 22 19 28 27 30 32 31 31 32 35 35 35 32 38 45 49 54 55 58 56
45 45 39 38 41 45 41 37 36 27 38 33 44 45 47 41 41 38 40 36 34 31 28 22 24 28 33 38 38 37 41 39 35 37 39 42 42 43 44 44 42 44 48
44 47 44 46 48 46 46 45 44 41 44 34 43 45 47 49 48 43 42 38 36 33 26 24 28 30 35 38 40 35 40 42 37 38 42 43 40 40 44 46 46 47 49
48 51 53 48 43 46 46 44 46 45 50 43 39 53 53 48 51 47 46 40 39 36 30 27 27 34 34 37 39 40 39 41 42 42 40 41 41 42 45 46 49 51 55
51 54 50 49 48 48 52 53 52 50 55 54 57 53 48 54 54 52 49 44 42 40 35 31 28 27 35 40 39 40 42 41 41 44 45 46 47 50 51 52 53 56 59
53 54 58 52 53 51 48 51 53 50 49 53 56 51 57 55 57 58 51 47 45 46 42 38 36 33 32 32 39 46 50 51 49 48 48 51 52 53 55 55 56 60 62
57 57 55 54 57 56 54 55 55 52 52 54 53 52 60 63 63 63 56 51 47 50 49 46 43 42 40 38 36 36 38 41 47 50 53 55 56 57 57 57 56 54 54
61 61 61 60 58 58 56 56 57 58 54 53 55 56 53 62 63 68 62 55 51 50 53 53 51 49 46 45 44 43 44 44 44 45 47 49 50 52 53 54 56 57 59
67 64 64 62 59 58 59 61 60 60 59 60 57 59 56 65 71 70 66 63 60 57 55 52 52 51 51 50 50 50 50 51 51 51 52 54 55 57 58 59 61 63 65
65 66 66 65 63 61 61 63 63 58 56 57 58 55 57 68 69 62 66 66 66 63 61 58 55 53 53 53 54 54 55 55 56 57 59 61 62 62 64 65 66 68 71
64 64 64 64 64 67 68 66 63 58 56 53 51 51 58 64 68 67 65 70 70 68 67 63 62 61 61 61 62 62 62 62 64 66 68 69 69 69 70 72 72 73 75
68 67 67 67 68 67 68 66 66 61 59 52 54 57 59 67 70 68 68 66 71 74 74 72 72 69 67 67 68 65 68 70 68 68 72 73 72 74 73 75 79 80 82
73 73 73 73 73 71 69 68 67 62 61 56 59 61 60 65 70 73 76 74 72 76 78 80 78 76 73 75 76 78 68 70 73 73 75 77 78 79 81 81 83 84 86
70 73 75 78 77 76 74 72 69 66 63 65 64 61 63 63 71 70 71 73 77 75 71 74 74 74 71 68 68 71 66 75 83 78 83 86 83 84 85 90 93 92 93
72 71 72 77 78 76 76 74 71 67 61 67 69 64 66 66 70 71 71 74 78 79 76 77 76 77 77 74 77 66 74 80 87 82 86 90 91 90 93 94 97 98 97

GFSMW_250_spd_093.txt.gz
Wind_Speed
83 81 74 72 70 66 65 59 60 59 57 65 66 57 51 48 49 43 37 47 47 47 50 50 47 51 46 33 34 45 57 68 66 60 63 62 60 57 57 51 46 39 34
76 72 67 64 62 61 56 53 51 50 50 56 63 48 49 47 38 38 44 53 49 47 48 52 48 45 44 30 35 43 52 58 64 68 57 52 53 61 63 54 57 49 48
64 63 58 53 49 46 43 43 44 43 47 55 54 44 47 43 37 45 50 48 46 47 47 45 50 55 40 31 37 43 50 59 54 53 66 51 49 52 56 54 51 47 45
58 56 45 40 40 40 37 36 40 43 47 52 48 43 45 44 36 48 52 51 48 44 46 52 56 52 35 33 42 43 51 53 48 52 46 61 49 43 48 50 51 49 49
46 42 36 35 38 36 34 36 42 42 44 44 39 41 41 50 36 41 46 46 42 47 52 56 56 40 35 38 42 48 49 48 46 44 44 48 46 43 49 54 55 51 53
37 33 32 33 33 31 34 36 39 41 42 38 43 43 46 41 36 38 45 43 47 51 60 55 44 37 38 44 45 45 48 52 50 45 43 39 43 46 48 55 54 54 54
35 30 30 31 30 33 32 33 40 39 40 42 47 46 38 27 37 41 46 51 55 58 55 43 37 37 39 43 45 42 42 45 56 48 44 42 44 52 55 57 54 58 58
32 29 31 30 33 36 38 39 42 45 47 48 42 26 21 29 36 40 47 54 57 47 39 36 37 38 38 39 37 40 38 40 47 52 54 49 46 47 55 60 62 60 60
28 29 29 32 40 46 43 40 41 39 40 33 25 25 31 31 26 37 43 45 43 34 33 35 36 35 36 35 41 40 42 42 43 48 53 55 51 49 52 59 62 63 58
30 31 34 40 53 50 43 39 34 27 17 23 23 19 29 25 27 25 32 37 30 31 31 32 32 34 33 35 35 36 35 37 42 45 47 55 54 54 52 55 59 61 63
40 37 42 55 47 49 45 37 37 30 20 19 21 27 27 22 31 31 27 25 27 28 30 31 31 31 27 31 28 28 29 30 34 39 44 48 51 50 55 57 58 58 58
44 41 47 56 48 48 48 43 39 29 28 27 27 23 25 22 31 32 25 23 24 28 30 30 29 28 27 25 24 24 25 22 23 29 32 38 40 49 52 56 58 53 52
43 47 57 55 52 49 52 48 41 39 37 35 29 27 26 27 34 32 29 27 28 31 32 31 31 26 23 26 23 30 27 28 27 25 25 28 32 35 37 42 45 55 62
48 50 52 59 54 52 47 50 48 44 40 35 34 24 35 35 32 32 38 28 33 34 36 32 31 29 23 30 26 31 33 29 34 30 33 35 39 39 39 38 40 46 49
51 50 51 54 55 53 49 49 51 48 41 36 26 21 43 39 41 44 46 36 32 41 39 36 32 32 26 30 35 34 33 39 39 40 43 41 42 42 41 42 46 50 52
52 52 55 56 55 53 51 52 49 50 43 38 35 47 37 46 53 50 51 46 38 43 44 38 36 37 31 33 37 39 42 43 41 43 46 49 53 54 51 43 50 48 49
56 57 59 58 59 57 54 54 53 51 47 43 48 48 46 47 49 46 44 42 42 46 47 42 41 39 36 35 41 42 44 45 45 47 49 50 48 49 48 48 50 51 53
62 56 62 63 61 62 57 59 56 56 52 55 62 55 56 47 39 48 53 51 46 48 52 49 47 45 41 39 39 45 50 50 48 49 49 50 51 52 54 55 56 57 57
61 58 59 61 61 67 64 58 57 60 62 62 64 66 66 64 68 62 57 57 60 52 56 55 51 53 50 47 45 44 43 47 53 58 60 61 60 60 60 61 63 64 63
66 62 64 62 59 71 66 69 64 63 64 67 67 67 70 66 65 64 61 59 61 63 58 61 59 56 57 56 54 52 52 51 49 50 52 55 57 58 59 60 59 59 59
71 65 70 66 68 70 71 70 72 72 70 67 68 65 66 65 66 64 65 63 58 60 65 65 66 63 60 61 61 60 59 58 57 56 55 55 56 58 58 60 61 62 63
76 71 70 69 69 70 70 73 73 75 77 75 71 70 69 71 73 71 69 64 61 67 72 68 73 72 69 65 64 64 65 65 62 60 60 59 60 61 61 64 65 66 68
69 73 76 75 72 73 72 73 72 73 73 73 71 74 77 77 75 71 76 77 74 72 66 74 77 79 76 73 71 70 69 68 66 65 66 66 66 68 69 71 72 72 75
70 72 74 79 80 78 77 75 77 78 76 74 72 79 75 72 68 68 73 74 77 87 81 79 76 81 81 83 79 77 77 77 76 75 74 72 75 78 78 77 76 79 81
70 71 72 75 76 80 82 82 81 80 80 79 79 79 78 76 70 69 67 67 74 81 83 84 82 79 84 86 86 86 82 82 81 81 82 80 81 83 85 87 89 89 91
65 72 76 77 78 79 79 80 82 82 82 81 80 80 78 77 74 70 69 64 69 78 82 84 84 81 82 85 92 93 91 89 87 86 83 87 88 84 77 81 79 86 85

GFSMW_250_spd_099.txt.gz
Wind_Speed
85 88 91 94 95 96 97 99 99 102 102 98 95 87 82 78 75 71 59 53 52 50 44 47 41 40 43 44 39 39 40 38 37 33 30 58 57 55 56 55 56 52 48
87 90 92 94 96 97 100 100 101 104 98 87 79 76 71 68 68 59 53 48 48 41 39 44 38 40 44 41 38 35 33 33 39 34 35 61 61 57 59 58 55 56 54
91 92 92 93 95 99 100 102 103 90 78 77 74 69 64 56 50 47 47 46 45 35 40 35 37 39 41 40 43 42 36 37 38 35 41 65 66 56 63 67 65 64 52
95 96 97 97 96 98 97 92 83 72 70 70 67 63 56 50 46 47 47 43 40 36 35 32 32 40 43 42 38 35 37 37 37 38 42 70 72 57 59 65 73 68 60
96 98 97 93 91 84 77 68 64 63 59 56 55 52 45 42 44 45 45 43 42 42 38 34 46 45 53 50 46 39 38 38 39 39 33 73 76 68 59 64 66 67 64
94 95 94 83 71 69 59 54 55 49 44 41 41 36 36 38 40 44 44 49 49 48 48 54 55 55 57 44 42 41 41 38 41 41 39 71 76 67 63 60 64 63 60
93 89 80 64 59 53 47 44 40 36 32 32 29 27 29 33 38 41 47 57 59 55 53 52 63 61 57 44 46 44 45 44 48 43 44 59 65 62 64 62 51 54 60
85 73 60 55 48 42 37 32 30 28 27 24 20 23 24 30 35 40 46 58 54 55 45 48 51 51 49 53 54 50 49 48 45 41 47 60 65 54 64 65 62 52 53
73 57 51 44 40 35 28 24 23 23 22 18 21 22 23 27 32 37 40 50 39 33 35 32 40 44 47 51 54 51 52 47 41 46 49 55 55 55 54 56 60 55 49
58 50 46 38 34 28 25 23 21 21 24 25 24 27 30 32 37 38 39 34 35 34 33 28 33 37 40 47 50 50 45 41 40 49 51 50 56 56 54 54 56 55 57
53 47 39 35 31 27 24 23 24 28 32 29 32 37 39 35 42 40 38 41 37 36 42 34 39 41 49 54 50 41 35 37 42 44 49 54 54 55 59 56 55 51 51
51 43 37 33 31 27 28 28 32 34 39 39 38 36 34 38 43 43 40 43 40 43 44 35 39 43 37 36 31 30 32 36 39 41 38 40 43 51 58 62 59 54 54
54 39 34 34 30 31 30 35 40 44 46 41 39 41 38 41 45 42 44 46 46 36 21 37 31 25 17 21 27 27 28 31 29 31 34 37 40 48 50 60 66 63 58
49 37 34 37 34 35 37 41 47 50 50 50 48 49 48 46 45 46 49 50 40 31 22 18 12 17 19 20 21 25 27 31 31 32 34 37 38 43 46 50 54 56 62
42 36 37 41 40 39 46 49 52 55 53 52 52 51 52 49 46 48 46 43 41 29 22 24 14 15 22 22 26 26 28 31 31 31 32 31 31 35 38 44 50 52 60
38 38 42 45 46 43 52 57 58 55 53 52 54 54 53 55 50 46 39 28 30 36 35 35 29 25 22 27 30 33 30 31 30 31 29 24 26 24 25 32 36 43 53
38 39 48 52 50 49 58 61 60 55 53 55 59 56 53 54 54 49 37 27 46 42 41 34 35 29 30 29 29 31 33 33 33 33 33 33 31 30 29 28 40 40 43
39 41 52 56 53 55 61 63 61 55 49 57 56 52 50 51 47 45 37 45 48 52 44 41 44 46 45 40 31 31 34 35 35 37 36 40 38 39 41 43 42 43 45
38 45 55 61 58 59 63 64 62 57 53 55 58 53 52 50 48 47 46 46 54 50 49 52 53 53 52 53 46 35 37 39 37 40 41 42 44 46 42 49 48 49 54
39 48 58 67 63 61 66 66 66 61 59 58 58 55 52 49 53 49 48 43 47 56 58 51 49 55 58 53 49 40 36 40 42 41 43 49 49 50 55 57 57 60 60
39 47 58 70 69 66 67 69 69 66 62 64 62 61 60 57 56 55 57 54 44 48 58 53 58 63 61 58 55 48 44 39 40 45 47 47 53 59 58 58 66 68 68
41 48 56 71 74 71 68 72 72 72 68 69 65 64 63 65 62 60 65 64 60 58 57 63 66 68 68 64 57 54 55 59 59 60 52 53 56 57 59 67 68 68 71
41 48 56 65 76 74 71 73 76 74 75 73 75 71 70 68 70 70 72 72 70 65 66 68 71 70 69 68 64 62 64 65 65 64 62 57 61 63 67 68 68 70 77
44 48 54 63 78 78 78 75 77 80 80 81 79 78 75 77 74 73 76 79 79 78 79 81 76 74 73 72 75 74 77 76 77 77 74 76 74 72 74 76 79 79 79
43 47 51 60 69 82 81 81 78 83 83 87 85 84 84 84 83 81 82 84 88 84 82 85 87 87 87 88 86 84 86 84 80 82 84 84 83 78 75 80 83 86 87
40 46 50 54 66 75 85 84 87 83 85 89 94 89 91 93 93 93 92 92 94 94 91 92 93 92 92 93 95 95 94 90 89 90 91 89 85 88 88 86 88 90 90

GFSMW_250_spd_102.txt.gz
Wind_Speed
78 77 77 78 79 78 79 80 83 85 87 89 90 92 92 95 97 97 95 92 87 78 57 55 54 52 51 48 44 37 39 42 42 39 40 35 32 31 49 51 55 55 57
78 79 81 80 80 80 82 83 83 86 89 91 93 95 97 99 97 97 93 85 78 65 53 51 52 51 48 46 40 36 39 41 42 39 40 38 28 39 55 53 56 56 59
80 81 82 83 84 85 86 88 89 93 96 97 97 99 99 100 98 91 76 70 70 57 52 48 49 49 47 46 39 35 38 41 41 38 32 31 25 51 52 62 60 56 54
83 84 85 87 88 89 91 92 93 96 96 96 96 98 95 85 76 70 67 63 58 55 50 46 43 45 40 43 38 35 37 41 44 42 42 35 28 49 55 64 61 64 66
85 85 86 89 90 93 93 91 91 91 94 94 86 81 75 69 65 61 56 50 49 50 47 43 27 46 40 39 37 36 39 43 45 42 39 35 24 53 60 67 66 68 69
86 86 87 89 89 90 88 83 85 89 83 70 62 62 62 59 55 51 44 41 43 47 49 52 50 54 37 32 33 34 41 45 45 42 38 33 28 48 61 71 68 68 73
88 87 87 88 90 88 89 84 78 68 62 60 56 51 48 45 44 41 39 42 45 49 54 53 55 47 43 44 41 45 44 50 43 40 39 36 37 31 68 73 73 71 72
89 89 87 90 88 87 83 74 60 52 49 47 44 37 33 33 37 37 36 40 46 51 56 55 51 45 44 46 49 43 41 42 42 42 42 46 46 40 61 73 75 72 70
91 89 89 88 85 83 69 56 49 44 40 37 31 27 26 27 28 28 32 39 46 55 58 55 46 31 37 39 49 46 52 47 48 52 54 55 52 46 48 76 74 71 64
90 87 86 85 81 62 54 45 39 37 31 27 27 23 25 23 23 24 28 38 44 61 62 56 49 34 34 33 37 51 54 53 54 54 58 58 53 49 49 64 71 68 69
87 87 83 80 66 47 43 36 33 30 24 27 27 23 22 21 18 26 28 33 44 56 51 47 40 30 32 37 41 45 49 51 57 56 57 55 50 46 48 63 64 60 67
86 84 77 67 47 40 35 31 30 27 30 33 34 32 26 25 33 36 36 34 39 46 46 45 42 40 30 34 41 47 51 54 59 63 57 50 43 45 51 64 62 59 62
81 78 66 58 44 35 32 31 29 32 34 37 36 36 35 38 39 33 33 36 39 42 44 42 46 35 26 36 46 48 52 58 52 49 46 43 43 50 52 58 62 63 65
76 73 62 51 40 34 32 34 33 36 37 38 42 44 46 44 44 44 43 45 45 45 42 42 45 37 31 36 43 47 40 35 33 36 37 39 42 45 55 57 60 64 66
68 65 57 43 37 35 37 40 39 43 47 47 48 51 47 49 43 43 47 46 44 47 47 46 43 37 32 39 31 26 24 24 28 28 28 31 35 40 43 48 52 57 65
70 63 49 39 36 39 44 45 46 47 52 54 55 58 54 52 54 51 50 45 48 50 51 52 45 35 41 31 26 26 25 25 24 24 26 31 36 36 38 38 45 50 54
58 50 41 39 37 46 49 48 51 53 57 57 55 56 54 53 54 52 51 47 50 51 46 48 46 45 40 31 26 30 28 28 31 29 26 31 34 34 35 39 35 36 43
41 37 35 36 41 51 53 52 54 60 59 60 55 60 60 57 59 55 51 51 49 48 48 47 47 48 45 38 35 28 26 32 32 32 34 31 32 37 38 34 28 28 27
34 28 33 37 46 56 56 54 56 65 64 60 58 60 62 59 58 53 52 54 50 49 48 47 43 44 45 43 44 44 41 38 37 34 36 39 35 37 40 40 36 39 39
28 29 34 41 50 58 58 57 59 68 66 62 60 59 60 58 56 56 57 57 50 47 47 58 56 55 52 46 49 50 51 48 51 47 42 43 42 41 40 44 46 41 43
28 31 35 43 55 60 60 60 61 70 70 65 62 63 60 60 60 60 58 59 56 57 52 54 56 55 55 55 51 55 51 58 60 54 45 46 46 43 44 44 49 51 53
30 32 36 45 57 62 63 63 64 69 72 68 64 63 60 57 62 62 60 60 61 64 63 60 59 65 66 63 60 59 62 62 65 62 55 48 50 48 44 46 51 52 54
31 35 40 45 58 64 67 66 66 68 73 73 68 64 64 64 68 64 64 65 64 67 70 69 70 71 72 73 69 71 71 72 76 71 65 56 54 49 50 54 51 51 52
35 37 42 47 56 67 71 71 70 72 72 77 74 71 71 69 71 71 69 68 69 70 74 72 74 75 76 75 76 80 84 81 80 77 72 64 64 65 71 62 64 65 64
32 36 42 47 54 69 73 78 76 74 75 76 79 77 75 76 77 78 78 75 75 76 81 81 84 84 80 78 78 82 86 87 85 83 81 79 80 77 76 78 76 76 74
33 37 42 47 54 62 73 80 83 80 79 80 81 85 84 81 84 85 85 85 84 82 84 87 87 90 90 91 88 88 89 90 89 88 88 85 87 86 88 85 80 83 83

GFSMW_250_spd_105.txt.gz
Wind_Speed
81 75 74 74 72 69 72 74 73 70 71 71 73 76 78 80 81 82 87 85 86 87 87 91 90 84 80 78 71 60 57 50 57 48 41 39 38 39 39 35 37 40 48
85 80 78 75 75 75 74 75 75 76 75 76 79 81 82 84 86 89 92 93 95 94 92 89 88 83 82 74 63 60 56 50 56 46 39 37 37 37 39 35 37 38 57
83 84 81 80 77 78 77 77 78 78 80 82 84 85 86 90 93 97 96 100 98 93 91 92 86 79 67 54 50 52 53 53 52 47 39 36 35 35 38 36 34 45 58
88 85 85 84 85 81 80 79 79 82 84 87 86 84 88 92 94 96 93 98 93 86 89 85 74 65 45 39 49 52 52 52 50 46 41 38 36 37 33 30 39 52 60
95 91 89 91 87 84 82 81 84 86 86 87 88 89 90 92 93 93 91 93 90 74 62 59 55 51 38 42 40 34 44 48 47 47 43 42 38 37 35 32 46 52 62
96 96 90 88 86 83 84 84 87 88 87 86 87 88 88 89 87 82 74 67 59 55 51 52 49 44 44 45 42 33 44 49 47 45 44 42 41 43 42 34 45 57 63
93 90 87 85 86 87 86 87 87 88 87 88 89 87 85 78 68 61 53 48 51 51 48 47 47 46 50 52 51 49 53 51 47 45 43 42 41 38 36 36 44 56 63
91 88 87 85 85 87 88 89 89 88 86 85 83 81 65 60 54 51 46 37 47 39 39 42 47 50 56 58 53 48 48 48 49 46 44 42 41 42 39 33 45 60 69
89 89 87 84 86 88 89 89 88 88 83 79 77 61 53 46 39 35 32 33 38 35 34 40 45 54 50 47 46 43 44 51 52 46 40 44 44 41 42 44 38 60 71
88 87 86 86 88 87 88 88 86 84 78 73 59 50 39 30 19 15 22 30 32 33 37 39 48 59 50 50 44 45 49 51 45 39 42 40 45 47 49 49 45 40 64
87 85 86 88 87 86 87 88 84 75 70 56 49 38 29 29 24 21 23 27 26 34 39 48 51 56 53 52 38 43 33 39 43 44 47 50 53 55 55 57 52 48 52
86 87 89 87 86 87 86 83 76 68 54 44 40 31 32 33 26 24 26 25 28 33 39 52 48 53 51 47 22 21 31 43 45 57 55 56 55 60 63 58 57 56 57
84 86 88 87 86 84 82 76 65 53 42 39 33 34 34 33 31 31 31 30 31 41 43 49 55 54 50 53 34 34 44 42 49 51 53 56 59 60 62 65 65 62 57
81 83 83 83 83 80 76 65 46 40 38 36 35 36 34 33 32 36 33 30 26 29 33 46 53 55 48 50 54 45 43 52 51 50 47 54 58 65 65 63 59 51 51
73 76 77 75 77 76 67 45 36 37 40 38 41 42 39 37 40 39 27 29 34 38 42 51 55 55 53 48 49 50 45 37 41 44 53 61 59 49 45 43 42 44 45
72 71 72 74 76 70 58 38 36 41 46 45 47 46 46 46 49 48 49 38 41 46 48 51 52 52 53 56 47 50 57 44 46 51 42 27 24 27 31 37 38 46 47
72 74 75 71 64 59 45 36 37 49 52 50 49 45 49 54 55 46 42 47 47 49 45 49 51 49 48 54 52 51 43 48 44 38 29 26 26 27 31 32 34 38 44
67 66 61 58 56 51 44 39 44 56 60 57 55 49 52 58 56 50 51 51 51 53 48 51 51 48 49 49 40 41 38 39 35 37 34 32 31 29 31 33 33 36 40
51 45 44 41 40 41 39 41 49 58 60 61 62 56 52 60 57 55 57 56 52 53 44 46 50 50 50 51 51 49 47 44 41 42 39 39 37 36 34 34 37 29 33
38 37 35 34 35 37 37 44 54 60 63 64 64 63 53 59 58 61 60 55 53 54 47 48 46 55 52 51 47 51 54 48 42 43 43 39 38 39 39 39 39 35 43
35 34 32 34 35 37 41 50 59 62 63 65 67 68 58 59 58 62 62 57 58 52 48 52 51 50 54 56 55 52 51 50 49 46 51 54 50 51 48 43 45 43 44
32 31 33 34 35 39 46 56 63 64 64 67 69 68 68 61 62 63 60 63 58 57 53 58 61 59 58 61 61 59 60 59 57 58 53 51 54 54 56 54 46 50 48
30 30 31 33 37 43 51 61 66 68 67 69 70 74 71 67 65 64 67 64 64 60 58 60 61 63 60 63 68 73 63 64 68 66 67 63 63 57 65 60 54 53 55
28 30 31 35 39 46 54 64 69 69 69 70 73 73 76 72 71 72 68 67 67 69 67 68 70 73 73 71 71 77 77 75 74 72 72 76 75 71 72 72 62 58 58
28 31 34 37 42 48 57 65 71 72 73 74 75 77 78 75 75 75 78 73 71 74 75 76 76 78 81 81 83 80 84 85 86 82 83 82 81 80 77 79 78 76 68
28 31 35 38 44 48 57 67 73 76 77 77 79 80 82 85 81 80 80 81 80 79 82 84 85 85 87 89 89 89 89 91 88 88 89 89 86 87 86 87 87 86 86

GFSMW_250_spd_108.txt.gz
Wind_Speed
96 89 83 85 85 81 80 74 75 72 71 66 66 65 67 70 70 72 72 71 69 71 76 73 75 74 74 79 81 72 71 79 68 63 63 60 53 48 48 51 45 44 41
95 88 87 88 86 81 81 78 75 74 72 71 69 69 68 70 73 75 75 77 79 77 82 83 76 74 61 72 77 73 87 75 68 67 62 53 51 49 48 53 45 44 39
93 90 88 89 89 85 81 81 79 77 74 74 76 77 79 78 78 78 79 82 84 86 83 82 78 67 46 63 78 93 89 72 72 66 56 56 55 50 49 50 47 43 42
97 95 95 91 88 86 83 82 82 83 83 80 81 83 81 79 79 82 85 87 85 81 88 83 76 70 56 69 67 74 94 70 61 56 52 56 55 53 50 48 44 44 40
90 99 97 94 91 89 88 86 87 87 87 86 87 85 83 79 81 86 88 90 86 79 85 85 83 81 73 75 81 79 70 72 60 52 56 62 53 56 50 47 43 40 34
91 95 95 92 93 92 91 92 89 87 87 86 85 85 83 82 85 89 89 86 82 73 67 58 63 61 62 62 62 29 47 53 60 48 44 50 49 52 47 43 39 37 30
90 94 96 97 95 94 95 93 92 87 84 84 84 83 82 83 85 88 85 81 73 56 21 61 80 60 53 52 53 49 63 65 64 52 41 45 51 50 47 44 41 34 36
90 95 97 96 95 92 90 91 87 86 85 85 86 84 82 83 83 82 78 74 57 34 43 60 67 61 55 52 48 63 65 62 51 45 39 43 47 48 48 46 42 42 40
78 87 88 89 92 88 85 85 85 86 85 86 86 82 81 81 80 75 70 51 40 35 43 59 63 62 49 43 47 55 58 62 52 50 43 41 43 48 47 43 41 41 43
79 80 82 84 88 87 84 83 83 86 86 86 84 81 79 78 73 65 47 33 27 21 28 36 37 38 38 45 52 60 59 58 56 46 45 40 47 48 47 45 40 44 44
77 77 69 69 72 74 75 78 80 84 85 84 81 79 76 70 65 48 39 27 26 19 18 22 26 29 36 40 45 55 55 50 43 45 44 42 43 47 48 46 44 47 47
81 78 74 72 71 76 77 79 79 82 82 81 78 75 71 64 50 41 38 36 23 14 13 13 24 21 38 47 47 53 50 50 50 48 37 40 41 51 51 46 47 50 49
83 80 77 78 80 77 75 78 80 82 80 79 74 66 62 52 40 39 39 35 30 25 20 18 20 25 40 46 49 50 47 49 44 33 40 50 54 52 50 51 55 52 53
87 85 78 83 88 79 75 75 76 77 77 72 60 59 52 41 38 38 37 36 31 29 34 30 33 37 36 49 46 53 55 54 53 51 48 54 56 54 59 61 60 61 58
84 82 84 86 89 86 75 73 74 74 70 60 48 49 41 39 41 39 38 37 39 38 39 36 42 39 45 46 50 54 53 50 47 50 54 58 53 55 53 55 64 59 66
82 85 84 83 79 74 72 73 71 65 60 49 40 42 42 45 44 43 44 44 40 38 39 39 39 44 51 54 55 53 50 48 42 40 45 53 51 48 47 48 53 62 66
82 78 76 72 69 69 69 68 67 62 52 40 39 42 46 49 49 50 49 47 44 42 38 43 46 58 59 61 57 57 52 53 50 46 49 41 42 42 47 55 46 37 35
67 67 67 67 66 66 66 66 65 55 46 37 41 49 53 55 54 56 54 50 49 47 42 51 46 61 62 62 61 61 62 61 59 52 53 53 53 51 45 34 32 30 30
65 64 63 63 63 63 63 62 56 50 41 41 47 55 56 59 58 62 58 51 53 51 44 55 53 61 62 62 61 60 57 57 58 54 55 50 50 47 37 39 35 33 32
49 51 52 53 53 54 52 50 47 42 39 46 54 62 61 61 62 65 65 54 55 53 48 52 54 56 59 59 54 58 56 59 61 58 49 45 43 39 40 42 42 38 37
39 39 40 41 40 40 40 39 38 38 41 47 60 66 62 62 63 65 73 63 59 53 55 52 54 54 61 58 59 60 58 57 57 50 47 47 47 45 45 45 46 42 39
37 36 37 37 36 35 36 36 36 38 44 55 65 69 67 65 62 67 68 69 70 62 57 59 60 59 60 61 62 59 57 58 62 58 59 56 52 50 51 49 53 52 51
32 33 33 34 33 33 34 34 36 41 50 61 68 72 69 70 67 67 67 72 76 70 60 59 63 62 58 59 63 64 70 66 69 67 65 62 61 56 58 58 55 56 57
27 28 29 29 30 31 33 35 39 46 55 65 69 72 74 75 71 69 71 68 71 73 66 65 69 69 66 65 67 70 71 72 73 75 72 72 70 72 70 68 67 68 69
25 26 28 30 31 33 36 39 43 51 60 68 73 73 76 79 81 78 73 74 72 72 71 76 73 71 73 70 76 75 78 79 80 81 83 80 82 83 81 80 78 78 78
22 25 28 30 33 35 39 44 48 53 63 71 74 76 76 83 82 85 82 80 77 77 78 76 78 81 80 78 82 86 86 86 87 87 88 88 89 88 83 81 82 82 83

GFSMW_250_spd_114.txt.gz
Wind_Speed
96 94 92 89 83 80 82 80 81 82 81 78 76 74 74 74 70 68 63 62 59 57 52 56 62 65 65 63 60 60 59 55 55 54 52 49 46 46 51 50 52 55 45
101 105 100 91 86 85 87 88 86 85 83 81 79 77 76 75 74 73 71 66 63 61 58 57 55 58 61 61 63 58 57 50 46 51 50 50 50 59 61 62 58 59 51
97 96 99 91 89 88 88 90 91 88 84 82 79 79 79 79 76 76 74 72 69 64 63 60 60 61 63 63 64 60 57 53 45 46 41 57 67 74 77 73 64 60 53
85 87 91 94 90 87 94 91 95 92 92 86 84 82 81 81 81 79 77 76 73 72 69 66 65 64 64 65 66 63 55 55 55 51 48 43 81 93 74 73 68 70 58
79 81 82 88 78 86 88 89 92 92 96 91 92 89 86 85 85 83 82 80 79 77 74 71 70 70 70 71 70 66 57 55 60 60 61 68 74 67 71 71 67 79 73
68 76 78 78 77 83 83 83 89 92 95 92 94 96 92 89 89 86 86 83 84 83 78 76 74 75 74 72 75 70 63 58 61 73 71 75 80 82 77 79 76 78 79
58 61 65 64 65 69 72 81 88 91 92 91 94 98 90 91 87 88 86 86 86 84 79 78 78 78 78 72 73 70 65 63 63 73 82 82 84 83 82 82 92 93 91
48 51 53 52 55 62 65 71 70 73 80 79 87 87 87 88 89 95 97 89 88 87 84 81 79 78 77 72 72 70 64 68 66 68 82 85 85 85 72 65 72 83 89
39 31 37 43 44 50 54 52 59 64 68 72 72 72 77 85 88 95 86 89 87 84 83 81 79 78 78 70 69 69 66 66 66 70 80 82 85 72 66 67 67 78 80
30 40 38 43 42 42 47 49 53 60 64 68 72 71 76 81 82 83 81 81 80 81 78 78 79 79 71 68 66 65 58 56 50 58 71 68 73 69 59 58 63 69 71
43 48 57 46 47 48 44 49 56 60 62 69 66 70 72 70 68 70 70 72 71 76 78 77 76 68 61 60 59 53 48 45 51 57 58 64 63 58 53 53 56 56 51
63 63 59 51 55 53 51 52 61 64 66 67 67 67 65 61 62 65 66 67 69 69 66 66 64 57 53 52 50 42 42 49 56 58 56 57 59 59 53 53 58 49 45
64 67 64 56 49 46 49 57 63 65 64 67 69 62 61 57 62 59 62 66 67 64 61 57 55 53 44 45 49 43 43 49 54 56 56 57 54 57 51 55 52 48 45
62 64 66 61 56 51 52 55 57 61 62 60 60 62 65 64 61 63 60 58 60 61 57 54 49 45 45 45 44 41 31 29 33 38 34 37 35 43 50 52 46 39 41
64 70 68 69 64 63 64 60 58 58 59 60 59 59 59 58 58 61 63 63 65 61 56 49 43 43 49 46 40 35 28 26 31 42 30 24 37 47 52 50 48 48 46
71 75 73 72 67 63 65 64 65 64 63 62 61 61 62 63 65 67 67 67 62 50 55 45 43 49 50 50 44 35 36 33 45 37 42 44 65 56 52 51 49 54 54
50 54 60 63 60 59 62 64 66 66 70 65 64 69 70 72 71 75 71 62 55 50 46 45 46 55 53 51 43 45 49 49 37 40 50 52 47 60 57 51 52 55 57
38 40 42 45 48 51 51 52 55 54 55 58 62 64 67 64 62 59 51 43 41 49 46 44 53 59 59 56 50 49 47 40 41 44 47 55 50 49 50 53 56 58 59
38 40 42 44 45 45 46 47 48 49 49 48 46 48 47 46 45 44 42 41 44 50 45 50 57 57 64 64 50 49 50 47 37 45 45 54 59 56 49 56 61 62 62
44 46 47 48 47 46 48 49 50 50 49 49 48 49 50 48 47 46 45 45 51 52 48 56 56 58 65 70 59 53 55 57 54 46 41 49 62 61 61 60 64 66 64
47 46 45 43 42 42 43 45 47 48 48 49 50 50 49 49 46 44 42 46 57 50 50 58 59 62 66 68 68 58 56 58 67 65 51 53 56 60 64 69 69 69 67
35 35 34 35 35 35 35 36 37 39 41 43 43 44 44 42 40 40 40 47 50 45 55 61 64 65 66 68 68 65 60 62 67 72 61 63 64 68 70 74 77 73 75
30 31 31 32 32 32 32 33 34 35 35 36 37 38 37 37 36 35 38 41 42 48 60 66 71 69 69 68 70 75 73 72 65 66 76 78 74 69 76 81 76 74 72
27 26 26 27 28 29 29 30 32 33 34 35 36 35 34 34 34 34 36 40 44 53 63 70 76 75 75 73 74 78 78 74 75 74 78 81 85 78 76 81 79 78 78
24 22 22 23 24 25 26 27 29 30 32 33 34 33 32 32 33 34 38 44 49 59 66 69 78 81 79 77 80 76 81 77 74 76 83 83 85 83 89 90 88 87 91
21 20 19 21 22 23 24 26 28 30 32 32 33 33 33 34 36 39 44 49 56 66 71 75 78 84 87 86 86 86 87 86 84 83 82 84 85 88 95 93 97 97 99

GFSMW_250_spd_117.txt.gz
Wind_Speed
94 97 98 98 91 86 86 85 92 84 83 84 82 80 77 76 77 75 73 70 70 70 72 67 68 65 62 61 66 70 61 47 56 64 53 50 48 41 42 39 48 55 56
100 101 96 91 89 85 83 86 94 96 91 91 89 86 82 80 79 80 77 75 73 73 71 69 67 68 66 67 68 74 68 66 71 66 53 50 51 42 41 44 50 59 67
99 99 88 85 88 84 82 81 86 96 101 97 94 91 87 84 82 82 83 79 78 76 74 71 70 70 67 64 67 71 71 77 73 73 70 64 56 51 50 47 43 61 58
95 89 79 75 76 77 77 79 82 88 93 102 101 99 93 90 88 85 84 84 83 80 76 75 73 71 71 69 69 69 69 71 71 72 73 68 69 63 58 54 42 70 62
85 75 65 64 66 70 74 71 75 83 88 93 91 96 96 95 93 89 88 85 82 81 79 76 77 75 75 75 74 74 72 73 76 71 71 70 67 69 69 64 58 62 72
70 64 59 57 65 69 66 65 67 72 78 88 87 93 96 94 95 96 94 89 86 86 82 80 80 79 81 80 79 77 74 76 76 75 71 69 65 71 78 77 75 75 71
61 56 51 52 57 60 59 56 60 66 74 80 83 89 96 97 97 99 97 97 94 91 92 88 85 84 86 87 82 81 80 80 78 76 72 69 67 71 77 86 86 83 84
51 51 49 47 50 49 49 49 52 60 68 74 78 83 91 93 101 97 101 95 95 97 98 94 89 91 89 87 87 83 82 82 82 79 76 71 71 75 84 89 93 93 90
47 46 45 38 43 37 40 43 49 53 60 67 73 79 85 87 92 97 96 98 95 94 97 94 97 96 94 88 88 86 84 84 85 83 81 77 73 74 78 81 87 94 96
45 39 30 33 33 33 34 38 44 46 54 59 64 68 70 77 82 85 90 96 91 92 93 93 95 96 89 90 89 88 85 84 82 80 80 76 71 73 75 75 83 87 87
45 46 41 36 38 38 37 39 42 46 48 50 51 54 58 63 65 69 73 77 80 82 84 83 86 82 79 82 83 79 79 81 82 76 72 67 69 67 64 64 69 73 71
50 44 42 34 28 52 47 41 41 44 44 45 48 55 60 60 62 66 65 67 68 71 71 74 79 80 80 82 80 79 75 70 69 67 62 61 56 47 42 47 59 64 65
46 40 35 32 46 51 54 53 49 44 46 44 50 57 57 58 62 64 62 61 65 66 66 70 70 72 74 76 78 70 66 59 60 57 54 47 41 35 44 46 52 59 61
49 50 51 49 52 60 62 62 63 46 54 54 55 58 62 60 62 66 65 66 67 66 65 64 65 66 69 71 71 67 59 56 53 49 43 42 38 45 52 51 56 54 60
55 56 64 63 65 68 67 67 61 54 52 62 60 64 62 68 68 69 70 70 73 69 67 67 67 67 67 69 68 62 53 52 46 42 44 43 44 46 50 56 57 62 59
56 61 73 71 72 67 65 67 69 63 66 63 59 61 62 67 68 66 65 66 70 70 72 69 68 68 62 59 63 55 51 47 45 41 38 38 38 24 25 29 34 33 34
56 64 65 70 67 69 65 65 63 61 60 61 63 66 63 61 59 59 63 65 64 66 67 67 61 58 56 61 56 50 48 50 52 52 42 35 38 22 41 57 47 37 39
47 51 58 64 63 62 66 69 70 69 59 60 64 66 68 65 63 64 64 64 63 64 64 64 65 62 62 56 49 46 52 54 56 54 59 42 32 31 57 48 48 41 44
38 40 45 47 48 50 50 49 49 49 46 44 46 48 49 48 49 52 53 56 58 58 59 56 54 53 53 48 45 53 56 59 59 55 50 47 40 49 55 53 41 47 52
39 41 44 46 46 44 44 44 44 45 46 46 45 44 45 44 45 45 45 45 46 47 47 47 49 51 52 47 49 59 63 62 56 58 52 52 50 44 50 58 47 46 43
42 40 41 43 45 46 45 45 45 45 46 46 47 48 49 48 47 46 46 46 46 47 49 51 53 56 55 51 58 66 70 64 61 64 58 53 52 51 56 59 57 55 53
40 39 39 38 38 39 38 38 39 39 40 40 42 42 43 44 45 44 45 44 43 43 45 48 54 54 49 52 66 71 73 69 60 60 60 56 51 55 52 57 65 62 63
33 32 32 33 33 33 34 35 35 36 36 35 36 36 36 36 36 37 36 36 37 38 40 44 47 45 47 56 71 72 72 72 70 65 63 64 58 58 58 61 59 63 65
29 30 30 30 30 30 30 31 31 31 31 32 32 33 33 33 33 34 34 34 35 36 37 39 42 46 49 63 73 72 74 72 74 71 71 72 75 75 69 67 67 70 68
25 25 24 25 24 25 25 25 25 26 27 29 30 32 32 33 34 34 34 35 34 35 36 41 46 51 57 69 76 77 78 76 76 75 78 77 80 76 77 83 82 77 74
22 21 21 20 20 20 21 22 23 24 25 27 29 30 32 33 35 35 36 37 38 39 42 46 51 57 63 72 79 82 83 84 84 81 84 85 83 85 82 84 81 89 89

GFSMW_250_spd_120.txt.gz
Wind_Speed
91 93 96 99 95 94 91 88 88 88 89 88 92 92 90 95 94 93 85 81 79 75 76 74 75 68 68 65 65 52 44 42 50 55 50 59 48 42 54 43 42 46 45
96 98 100 100 96 94 93 93 91 92 94 94 92 93 96 93 99 99 92 86 83 79 78 75 75 77 74 72 69 69 65 62 61 53 50 62 60 49 54 43 44 48 51
100 100 99 98 95 94 94 93 91 90 91 91 87 88 91 93 99 104 102 94 88 83 79 77 78 77 76 77 79 79 79 80 85 85 76 61 63 64 64 60 59 57 59
101 101 101 99 96 95 92 87 84 81 81 82 82 83 88 91 96 105 105 101 94 90 87 80 77 77 77 77 77 76 77 79 80 85 87 87 85 71 72 70 73 68 65
105 105 104 93 88 82 80 73 71 67 70 71 74 78 83 91 92 103 110 104 104 98 91 85 81 79 77 78 80 79 77 77 77 78 83 83 87 88 84 81 81 77 73
103 98 96 87 80 72 68 63 62 62 61 63 67 71 75 80 92 93 105 112 106 99 94 91 87 84 83 80 80 81 79 78 77 77 78 80 78 79 84 83 84 81 78
101 91 85 78 71 63 58 55 54 54 55 58 61 69 70 75 85 92 97 105 109 106 100 94 91 90 89 85 84 81 81 81 79 78 79 79 78 78 78 78 78 79 79
93 84 74 71 64 57 49 49 46 43 48 52 58 61 67 71 76 85 91 95 102 108 103 99 97 94 91 88 88 85 83 86 85 85 85 81 80 82 80 79 79 76 75
83 75 67 63 57 52 49 44 39 39 41 46 53 57 60 66 74 82 84 89 92 96 101 101 99 100 98 93 91 92 91 89 93 92 88 85 84 85 84 83 82 80 73
74 65 60 54 53 50 51 47 42 41 47 47 50 53 59 64 71 75 79 83 86 89 93 98 101 98 96 96 96 97 98 96 96 98 98 90 89 89 88 88 79 77 75
65 59 52 50 50 50 50 50 43 38 37 41 46 47 56 62 63 65 66 71 77 81 86 93 96 99 101 98 94 95 97 97 97 97 93 94 89 87 88 81 73 73 75
59 53 49 49 50 49 49 49 44 40 39 43 46 48 52 52 52 56 59 59 60 66 76 84 89 90 92 89 90 95 96 93 92 92 89 87 84 83 78 75 69 67 68
50 48 48 54 53 51 52 53 49 43 41 42 43 45 46 46 46 48 51 57 58 62 63 65 69 73 74 77 79 83 85 87 85 83 82 80 82 77 72 65 64 62 60
48 46 49 53 58 56 53 49 52 43 48 50 47 48 46 48 47 51 51 57 62 62 63 60 59 61 63 65 68 71 73 76 77 78 76 74 72 66 64 62 55 48 40
46 48 49 51 61 60 60 49 50 48 56 58 57 52 48 53 53 55 58 59 56 57 59 61 59 61 62 65 69 70 71 72 71 71 70 66 62 60 56 52 42 41 41
46 48 49 51 56 58 59 57 52 57 61 61 59 56 50 53 58 62 58 59 59 61 61 66 68 67 69 71 69 69 71 72 73 71 67 63 60 52 50 43 40 39 36
46 45 46 49 52 56 60 57 60 59 60 58 57 56 59 59 55 57 62 67 67 65 62 67 71 72 71 73 75 76 75 73 72 67 64 63 53 49 47 45 42 35 37
40 40 43 46 49 56 59 59 60 61 65 65 62 62 64 63 63 63 61 65 66 67 63 65 70 72 72 71 73 76 77 75 69 67 59 55 48 48 52 45 45 35 38
38 39 40 41 45 48 51 56 59 63 63 61 68 67 62 57 54 55 57 62 62 61 62 65 67 69 72 75 72 72 70 71 69 63 53 48 51 49 50 45 45 39 45
36 37 38 41 42 44 45 46 49 52 54 54 53 53 54 55 54 53 50 49 51 53 55 57 60 65 69 71 70 68 70 69 69 54 51 54 59 54 50 54 44 40 50
39 41 44 46 47 47 48 49 50 52 52 53 54 56 57 56 55 53 50 48 49 51 53 54 56 58 59 60 61 61 61 62 56 53 57 61 66 62 61 58 55 55 57
42 43 42 42 42 42 42 42 43 44 44 47 47 47 47 47 47 47 47 47 48 49 51 52 55 57 58 58 59 61 58 60 53 55 63 64 65 69 67 69 61 58 58
40 40 37 36 36 35 35 36 37 36 36 36 37 37 37 39 40 40 40 41 42 43 44 47 50 53 55 59 60 58 58 51 51 61 67 65 68 69 69 68 65 61 61
34 33 33 33 33 33 33 33 33 33 33 32 33 33 34 36 37 37 37 37 38 38 39 40 41 43 45 47 51 53 54 53 54 64 70 69 70 73 69 70 73 73 71
30 30 31 30 29 28 28 29 29 29 30 30 30 31 32 33 34 34 35 36 37 38 38 39 40 41 42 44 46 50 53 56 57 67 72 73 77 78 75 76 76 82 75
27 27 27 26 23 24 25 25 25 26 28 28 28 28 29 31 33 34 36 37 38 40 40 41 42 43 43 45 48 51 56 62 67 75 79 80 83 87 82 79 80 82 78